<?xml version="1.0" encoding="utf-8"?>
<gpx xmlns:xsi="http://www.w3.org/2001/XMLSchema-instance" xmlns:xsd="http://www.w3.org/2001/XMLSchema" version="1.1" creator="Shapelink.com" xmlns="http://www.topografix.com/GPX/1/1" xmlns:gpxtpx="http://www.garmin.com/xmlschemas/TrackPointExtension/v1">
  <metadata>
    <name>Cycling 106.00 km, 2020-07-19</name>
    <desc></desc>
    <author><name>Marian Moron</name></author> 
    <time>2020-07-19T09:25:15Z</time>
  </metadata>
  <trk>
    <name>Cycling 106.00 km, 2020-07-19</name>
    <trkseg>
      <trkpt lat="51.230288134944" lon="4.463388404442">
        <ele>2.6</ele>
        <time>2020-07-19T09:25:15Z</time>
      </trkpt>
      <trkpt lat="51.230500783747" lon="4.464186948055">
        <ele>1.8</ele>
        <time>2020-07-19T09:25:25Z</time>
      </trkpt>
      <trkpt lat="51.230717958776" lon="4.465016169422">
        <ele>1.4</ele>
        <time>2020-07-19T09:25:36Z</time>
      </trkpt>
      <trkpt lat="51.230766909072" lon="4.465893586714">
        <ele>1.6</ele>
        <time>2020-07-19T09:25:53Z</time>
      </trkpt>
      <trkpt lat="51.230744361761" lon="4.466764885219">
        <ele>2.2</ele>
        <time>2020-07-19T09:26:05Z</time>
      </trkpt>
      <trkpt lat="51.230799849939" lon="4.46734901983">
        <ele>2.8</ele>
        <time>2020-07-19T09:26:15Z</time>
      </trkpt>
      <trkpt lat="51.231323886327" lon="4.467199402915">
        <ele>3</ele>
        <time>2020-07-19T09:26:27Z</time>
      </trkpt>
      <trkpt lat="51.231427318973" lon="4.467187752074">
        <ele>2.2</ele>
        <time>2020-07-19T09:26:29Z</time>
      </trkpt>
      <trkpt lat="51.231764103715" lon="4.46723586418">
        <ele>1.2</ele>
        <time>2020-07-19T09:26:36Z</time>
      </trkpt>
      <trkpt lat="51.232202477085" lon="4.467529985051">
        <ele>1.8</ele>
        <time>2020-07-19T09:26:53Z</time>
      </trkpt>
      <trkpt lat="51.232297192555" lon="4.467713381023">
        <ele>2</ele>
        <time>2020-07-19T09:26:56Z</time>
      </trkpt>
      <trkpt lat="51.232621655904" lon="4.468417209166">
        <ele>2.6</ele>
        <time>2020-07-19T09:27:07Z</time>
      </trkpt>
      <trkpt lat="51.232976713188" lon="4.46907066209">
        <ele>0</ele>
        <time>2020-07-19T09:27:18Z</time>
      </trkpt>
      <trkpt lat="51.233266810747" lon="4.469816986466">
        <ele>4</ele>
        <time>2020-07-19T09:27:27Z</time>
      </trkpt>
      <trkpt lat="51.233575180848" lon="4.47053414183">
        <ele>3.8</ele>
        <time>2020-07-19T09:27:36Z</time>
      </trkpt>
      <trkpt lat="51.233933087978" lon="4.471280382387">
        <ele>1</ele>
        <time>2020-07-19T09:27:46Z</time>
      </trkpt>
      <trkpt lat="51.234273476937" lon="4.471959986839">
        <ele>0</ele>
        <time>2020-07-19T09:27:55Z</time>
      </trkpt>
      <trkpt lat="51.234606657462" lon="4.472740341729">
        <ele>1.2</ele>
        <time>2020-07-19T09:28:05Z</time>
      </trkpt>
      <trkpt lat="51.234628701859" lon="4.472824998919">
        <ele>1.2</ele>
        <time>2020-07-19T09:28:06Z</time>
      </trkpt>
      <trkpt lat="51.234692739575" lon="4.473079054308">
        <ele>2.6</ele>
        <time>2020-07-19T09:28:09Z</time>
      </trkpt>
      <trkpt lat="51.234921733083" lon="4.473692525569">
        <ele>6</ele>
        <time>2020-07-19T09:28:17Z</time>
      </trkpt>
      <trkpt lat="51.234960206004" lon="4.473852955135">
        <ele>5.4</ele>
        <time>2020-07-19T09:28:19Z</time>
      </trkpt>
      <trkpt lat="51.235022148245" lon="4.473969463545">
        <ele>4.2</ele>
        <time>2020-07-19T09:28:21Z</time>
      </trkpt>
      <trkpt lat="51.235143685795" lon="4.474094437674">
        <ele>2.4</ele>
        <time>2020-07-19T09:28:24Z</time>
      </trkpt>
      <trkpt lat="51.235181991078" lon="4.474241959114">
        <ele>1.2</ele>
        <time>2020-07-19T09:28:26Z</time>
      </trkpt>
      <trkpt lat="51.235365135593" lon="4.475128596496">
        <ele>0</ele>
        <time>2020-07-19T09:28:36Z</time>
      </trkpt>
      <trkpt lat="51.235551297592" lon="4.475986819237">
        <ele>0</ele>
        <time>2020-07-19T09:28:45Z</time>
      </trkpt>
      <trkpt lat="51.235731340804" lon="4.476837246811">
        <ele>0</ele>
        <time>2020-07-19T09:28:54Z</time>
      </trkpt>
      <trkpt lat="51.235949437842" lon="4.477692954982">
        <ele>0</ele>
        <time>2020-07-19T09:29:03Z</time>
      </trkpt>
      <trkpt lat="51.236089667029" lon="4.478556542139">
        <ele>0</ele>
        <time>2020-07-19T09:29:12Z</time>
      </trkpt>
      <trkpt lat="51.236109113037" lon="4.479447538109">
        <ele>0</ele>
        <time>2020-07-19T09:29:21Z</time>
      </trkpt>
      <trkpt lat="51.236067538813" lon="4.480367954548">
        <ele>0</ele>
        <time>2020-07-19T09:29:31Z</time>
      </trkpt>
      <trkpt lat="51.236035017041" lon="4.481297088163">
        <ele>2</ele>
        <time>2020-07-19T09:29:41Z</time>
      </trkpt>
      <trkpt lat="51.235991682618" lon="4.482189676694">
        <ele>2.2</ele>
        <time>2020-07-19T09:29:51Z</time>
      </trkpt>
      <trkpt lat="51.235969638221" lon="4.483120235232">
        <ele>3.4</ele>
        <time>2020-07-19T09:30:02Z</time>
      </trkpt>
      <trkpt lat="51.235980283234" lon="4.48406336662">
        <ele>2.2</ele>
        <time>2020-07-19T09:30:12Z</time>
      </trkpt>
      <trkpt lat="51.235990090057" lon="4.48492418775">
        <ele>2</ele>
        <time>2020-07-19T09:30:21Z</time>
      </trkpt>
      <trkpt lat="51.236010960988" lon="4.48579003802">
        <ele>1.6</ele>
        <time>2020-07-19T09:30:30Z</time>
      </trkpt>
      <trkpt lat="51.236035352317" lon="4.486697546333">
        <ele>1.6</ele>
        <time>2020-07-19T09:30:40Z</time>
      </trkpt>
      <trkpt lat="51.236053205764" lon="4.487640007169">
        <ele>0.4</ele>
        <time>2020-07-19T09:30:50Z</time>
      </trkpt>
      <trkpt lat="51.236080949853" lon="4.488390354857">
        <ele>0</ele>
        <time>2020-07-19T09:30:59Z</time>
      </trkpt>
      <trkpt lat="51.236098887119" lon="4.489265592855">
        <ele>0</ele>
        <time>2020-07-19T09:31:11Z</time>
      </trkpt>
      <trkpt lat="51.236084973165" lon="4.489570694015">
        <ele>0</ele>
        <time>2020-07-19T09:31:15Z</time>
      </trkpt>
      <trkpt lat="51.236059073094" lon="4.489768590674">
        <ele>0</ele>
        <time>2020-07-19T09:31:18Z</time>
      </trkpt>
      <trkpt lat="51.236538517774" lon="4.490633686573">
        <ele>2.2</ele>
        <time>2020-07-19T09:33:09Z</time>
      </trkpt>
      <trkpt lat="51.236827525686" lon="4.490703843076">
        <ele>0.8</ele>
        <time>2020-07-19T09:33:15Z</time>
      </trkpt>
      <trkpt lat="51.237158946012" lon="4.490663693775">
        <ele>0</ele>
        <time>2020-07-19T09:33:21Z</time>
      </trkpt>
      <trkpt lat="51.237608551128" lon="4.490473676102">
        <ele>0</ele>
        <time>2020-07-19T09:33:30Z</time>
      </trkpt>
      <trkpt lat="51.237803095027" lon="4.490321796074">
        <ele>0</ele>
        <time>2020-07-19T09:33:34Z</time>
      </trkpt>
      <trkpt lat="51.238339955722" lon="4.49021400484">
        <ele>0</ele>
        <time>2020-07-19T09:33:45Z</time>
      </trkpt>
      <trkpt lat="51.23888913781" lon="4.49034057153">
        <ele>0</ele>
        <time>2020-07-19T09:33:56Z</time>
      </trkpt>
      <trkpt lat="51.239411497818" lon="4.490571157599">
        <ele>3.8</ele>
        <time>2020-07-19T09:34:08Z</time>
      </trkpt>
      <trkpt lat="51.239940395708" lon="4.490814651794">
        <ele>6.2</ele>
        <time>2020-07-19T09:34:20Z</time>
      </trkpt>
      <trkpt lat="51.240465940838" lon="4.4910639295">
        <ele>8.4</ele>
        <time>2020-07-19T09:34:30Z</time>
      </trkpt>
      <trkpt lat="51.24102316955" lon="4.491336508888">
        <ele>7</ele>
        <time>2020-07-19T09:34:39Z</time>
      </trkpt>
      <trkpt lat="51.241557767132" lon="4.491765913625">
        <ele>3.2</ele>
        <time>2020-07-19T09:34:47Z</time>
      </trkpt>
      <trkpt lat="51.24161157893" lon="4.49185434267">
        <ele>2.4</ele>
        <time>2020-07-19T09:34:48Z</time>
      </trkpt>
      <trkpt lat="51.241875273504" lon="4.492647102772">
        <ele>0</ele>
        <time>2020-07-19T09:34:55Z</time>
      </trkpt>
      <trkpt lat="51.241970575707" lon="4.493578331862">
        <ele>0</ele>
        <time>2020-07-19T09:35:03Z</time>
      </trkpt>
      <trkpt lat="51.242057831286" lon="4.494471255669">
        <ele>0</ele>
        <time>2020-07-19T09:35:13Z</time>
      </trkpt>
      <trkpt lat="51.242199485396" lon="4.495315312999">
        <ele>0</ele>
        <time>2020-07-19T09:35:24Z</time>
      </trkpt>
      <trkpt lat="51.242382126997" lon="4.496123076702">
        <ele>0</ele>
        <time>2020-07-19T09:35:35Z</time>
      </trkpt>
      <trkpt lat="51.242662082457" lon="4.49687929172">
        <ele>0</ele>
        <time>2020-07-19T09:35:45Z</time>
      </trkpt>
      <trkpt lat="51.243000878855" lon="4.497593764876">
        <ele>0.4</ele>
        <time>2020-07-19T09:35:55Z</time>
      </trkpt>
      <trkpt lat="51.243310003327" lon="4.498348303514">
        <ele>4</ele>
        <time>2020-07-19T09:36:07Z</time>
      </trkpt>
      <trkpt lat="51.243678304013" lon="4.499043330662">
        <ele>8.2</ele>
        <time>2020-07-19T09:36:18Z</time>
      </trkpt>
      <trkpt lat="51.243956750731" lon="4.499871294744">
        <ele>6.2</ele>
        <time>2020-07-19T09:36:29Z</time>
      </trkpt>
      <trkpt lat="51.244010562529" lon="4.500011356293">
        <ele>6.6</ele>
        <time>2020-07-19T09:36:31Z</time>
      </trkpt>
      <trkpt lat="51.243917355801" lon="4.501156826747">
        <ele>0</ele>
        <time>2020-07-19T09:36:59Z</time>
      </trkpt>
      <trkpt lat="51.243396839811" lon="4.501441224614">
        <ele>0</ele>
        <time>2020-07-19T09:37:10Z</time>
      </trkpt>
      <trkpt lat="51.242868109559" lon="4.501733501467">
        <ele>0</ele>
        <time>2020-07-19T09:37:20Z</time>
      </trkpt>
      <trkpt lat="51.242704327233" lon="4.501784295781">
        <ele>0</ele>
        <time>2020-07-19T09:37:23Z</time>
      </trkpt>
      <trkpt lat="51.242599134388" lon="4.501787397084">
        <ele>0</ele>
        <time>2020-07-19T09:37:25Z</time>
      </trkpt>
      <trkpt lat="51.2424606654" lon="4.501750516724">
        <ele>0</ele>
        <time>2020-07-19T09:37:28Z</time>
      </trkpt>
      <trkpt lat="51.241945430007" lon="4.501427143022">
        <ele>0</ele>
        <time>2020-07-19T09:37:42Z</time>
      </trkpt>
      <trkpt lat="51.241535722735" lon="4.501188342691">
        <ele>0.8</ele>
        <time>2020-07-19T09:37:52Z</time>
      </trkpt>
      <trkpt lat="51.241111430957" lon="4.501483637028">
        <ele>0</ele>
        <time>2020-07-19T09:38:11Z</time>
      </trkpt>
      <trkpt lat="51.241668994945" lon="4.501735680761">
        <ele>3.6</ele>
        <time>2020-07-19T09:38:22Z</time>
      </trkpt>
      <trkpt lat="51.242211974427" lon="4.501971212151">
        <ele>4.2</ele>
        <time>2020-07-19T09:38:32Z</time>
      </trkpt>
      <trkpt lat="51.242773226451" lon="4.502278157329">
        <ele>3.2</ele>
        <time>2020-07-19T09:38:42Z</time>
      </trkpt>
      <trkpt lat="51.243327102403" lon="4.502549563251">
        <ele>4.8</ele>
        <time>2020-07-19T09:38:51Z</time>
      </trkpt>
      <trkpt lat="51.243720716427" lon="4.502824238114">
        <ele>4.4</ele>
        <time>2020-07-19T09:38:58Z</time>
      </trkpt>
      <trkpt lat="51.244258918226" lon="4.503095895493">
        <ele>5.6</ele>
        <time>2020-07-19T09:39:07Z</time>
      </trkpt>
      <trkpt lat="51.244818745327" lon="4.50339286621">
        <ele>6.8</ele>
        <time>2020-07-19T09:39:17Z</time>
      </trkpt>
      <trkpt lat="51.24534068624" lon="4.503645915771">
        <ele>5</ele>
        <time>2020-07-19T09:39:27Z</time>
      </trkpt>
      <trkpt lat="51.245905710119" lon="4.503890834889">
        <ele>4.2</ele>
        <time>2020-07-19T09:39:38Z</time>
      </trkpt>
      <trkpt lat="51.246429243593" lon="4.504192164194">
        <ele>6</ele>
        <time>2020-07-19T09:39:47Z</time>
      </trkpt>
      <trkpt lat="51.246723867378" lon="4.504325855499">
        <ele>5.2</ele>
        <time>2020-07-19T09:39:53Z</time>
      </trkpt>
      <trkpt lat="51.247262823548" lon="4.504586113494">
        <ele>3.4</ele>
        <time>2020-07-19T09:40:03Z</time>
      </trkpt>
      <trkpt lat="51.247810580713" lon="4.504851903543">
        <ele>1.6</ele>
        <time>2020-07-19T09:40:13Z</time>
      </trkpt>
      <trkpt lat="51.248381304284" lon="4.50513043408">
        <ele>0.4</ele>
        <time>2020-07-19T09:40:23Z</time>
      </trkpt>
      <trkpt lat="51.248932414209" lon="4.505410557178">
        <ele>1.8</ele>
        <time>2020-07-19T09:40:33Z</time>
      </trkpt>
      <trkpt lat="51.249497018993" lon="4.505693530122">
        <ele>5</ele>
        <time>2020-07-19T09:40:44Z</time>
      </trkpt>
      <trkpt lat="51.250047793642" lon="4.50596778589">
        <ele>6.4</ele>
        <time>2020-07-19T09:40:55Z</time>
      </trkpt>
      <trkpt lat="51.250587923278" lon="4.506252267576">
        <ele>5.8</ele>
        <time>2020-07-19T09:41:07Z</time>
      </trkpt>
      <trkpt lat="51.251127633819" lon="4.506512944666">
        <ele>8.6</ele>
        <time>2020-07-19T09:41:17Z</time>
      </trkpt>
      <trkpt lat="51.251655358243" lon="4.506763647295">
        <ele>9.6</ele>
        <time>2020-07-19T09:41:26Z</time>
      </trkpt>
      <trkpt lat="51.252217029362" lon="4.507044776221">
        <ele>8.2</ele>
        <time>2020-07-19T09:41:36Z</time>
      </trkpt>
      <trkpt lat="51.252266398753" lon="4.507069754283">
        <ele>7.8</ele>
        <time>2020-07-19T09:41:37Z</time>
      </trkpt>
      <trkpt lat="51.252756404627" lon="4.507311823555">
        <ele>4.8</ele>
        <time>2020-07-19T09:42:52Z</time>
      </trkpt>
      <trkpt lat="51.253445648264" lon="4.507708622701">
        <ele>3.8</ele>
        <time>2020-07-19T09:43:04Z</time>
      </trkpt>
      <trkpt lat="51.253963062951" lon="4.50797944189">
        <ele>2.8</ele>
        <time>2020-07-19T09:43:12Z</time>
      </trkpt>
      <trkpt lat="51.254539318576" lon="4.508255960771">
        <ele>2.6</ele>
        <time>2020-07-19T09:43:21Z</time>
      </trkpt>
      <trkpt lat="51.255110461242" lon="4.508528288702">
        <ele>3.4</ele>
        <time>2020-07-19T09:43:30Z</time>
      </trkpt>
      <trkpt lat="51.255655620018" lon="4.508770022698">
        <ele>6</ele>
        <time>2020-07-19T09:43:39Z</time>
      </trkpt>
      <trkpt lat="51.256226511227" lon="4.509078476618">
        <ele>7.8</ele>
        <time>2020-07-19T09:43:48Z</time>
      </trkpt>
      <trkpt lat="51.256761527904" lon="4.509361784838">
        <ele>8.4</ele>
        <time>2020-07-19T09:43:56Z</time>
      </trkpt>
      <trkpt lat="51.257312889286" lon="4.509643584316">
        <ele>6.4</ele>
        <time>2020-07-19T09:44:05Z</time>
      </trkpt>
      <trkpt lat="51.257848073601" lon="4.509927898364">
        <ele>5.4</ele>
        <time>2020-07-19T09:44:14Z</time>
      </trkpt>
      <trkpt lat="51.258371942351" lon="4.510147252687">
        <ele>12.2</ele>
        <time>2020-07-19T09:44:23Z</time>
      </trkpt>
      <trkpt lat="51.258890279047" lon="4.510396614212">
        <ele>19.4</ele>
        <time>2020-07-19T09:44:32Z</time>
      </trkpt>
      <trkpt lat="51.259409453933" lon="4.510659554415">
        <ele>21.8</ele>
        <time>2020-07-19T09:44:41Z</time>
      </trkpt>
      <trkpt lat="51.259927036258" lon="4.510969014163">
        <ele>12.2</ele>
        <time>2020-07-19T09:44:49Z</time>
      </trkpt>
      <trkpt lat="51.260482001857" lon="4.51124586832">
        <ele>11.6</ele>
        <time>2020-07-19T09:44:58Z</time>
      </trkpt>
      <trkpt lat="51.261025987167" lon="4.511518615346">
        <ele>12.2</ele>
        <time>2020-07-19T09:45:07Z</time>
      </trkpt>
      <trkpt lat="51.261486321115" lon="4.511750542519">
        <ele>11.8</ele>
        <time>2020-07-19T09:45:15Z</time>
      </trkpt>
      <trkpt lat="51.262284613271" lon="4.512149018045">
        <ele>11.6</ele>
        <time>2020-07-19T09:45:35Z</time>
      </trkpt>
      <trkpt lat="51.262822647432" lon="4.512387566919">
        <ele>16.8</ele>
        <time>2020-07-19T09:45:45Z</time>
      </trkpt>
      <trkpt lat="51.263389263872" lon="4.512660230126">
        <ele>16</ele>
        <time>2020-07-19T09:45:55Z</time>
      </trkpt>
      <trkpt lat="51.263908941672" lon="4.512932725695">
        <ele>18.2</ele>
        <time>2020-07-19T09:46:04Z</time>
      </trkpt>
      <trkpt lat="51.264432642784" lon="4.513223577625">
        <ele>20.6</ele>
        <time>2020-07-19T09:46:13Z</time>
      </trkpt>
      <trkpt lat="51.264953661688" lon="4.513493307167">
        <ele>18.8</ele>
        <time>2020-07-19T09:46:22Z</time>
      </trkpt>
      <trkpt lat="51.265527821838" lon="4.513768987858">
        <ele>16</ele>
        <time>2020-07-19T09:46:32Z</time>
      </trkpt>
      <trkpt lat="51.266093097174" lon="4.514086326592">
        <ele>17.4</ele>
        <time>2020-07-19T09:46:42Z</time>
      </trkpt>
      <trkpt lat="51.266611852965" lon="4.514374161038">
        <ele>16</ele>
        <time>2020-07-19T09:46:51Z</time>
      </trkpt>
      <trkpt lat="51.267139828846" lon="4.514682531139">
        <ele>7.6</ele>
        <time>2020-07-19T09:47:01Z</time>
      </trkpt>
      <trkpt lat="51.267644000131" lon="4.515020740804">
        <ele>5.8</ele>
        <time>2020-07-19T09:47:10Z</time>
      </trkpt>
      <trkpt lat="51.268146075941" lon="4.515473195766">
        <ele>4.4</ele>
        <time>2020-07-19T09:47:19Z</time>
      </trkpt>
      <trkpt lat="51.268617809273" lon="4.516012235755">
        <ele>5</ele>
        <time>2020-07-19T09:47:28Z</time>
      </trkpt>
      <trkpt lat="51.269076131565" lon="4.516578936014">
        <ele>6.6</ele>
        <time>2020-07-19T09:47:37Z</time>
      </trkpt>
      <trkpt lat="51.269527413061" lon="4.517152425612">
        <ele>7.4</ele>
        <time>2020-07-19T09:47:46Z</time>
      </trkpt>
      <trkpt lat="51.269962098395" lon="4.517705211917">
        <ele>7.4</ele>
        <time>2020-07-19T09:47:55Z</time>
      </trkpt>
      <trkpt lat="51.270401896688" lon="4.518240228594">
        <ele>6.2</ele>
        <time>2020-07-19T09:48:05Z</time>
      </trkpt>
      <trkpt lat="51.270847143216" lon="4.518830901087">
        <ele>5.2</ele>
        <time>2020-07-19T09:48:17Z</time>
      </trkpt>
      <trkpt lat="51.271302196567" lon="4.519374551121">
        <ele>6.2</ele>
        <time>2020-07-19T09:48:27Z</time>
      </trkpt>
      <trkpt lat="51.271760770316" lon="4.519992548608">
        <ele>7.8</ele>
        <time>2020-07-19T09:48:36Z</time>
      </trkpt>
      <trkpt lat="51.272193024899" lon="4.520546089284">
        <ele>8</ele>
        <time>2020-07-19T09:48:44Z</time>
      </trkpt>
      <trkpt lat="51.272624189835" lon="4.521097199209">
        <ele>6.6</ele>
        <time>2020-07-19T09:48:52Z</time>
      </trkpt>
      <trkpt lat="51.273091396941" lon="4.521709077909">
        <ele>7.8</ele>
        <time>2020-07-19T09:49:01Z</time>
      </trkpt>
      <trkpt lat="51.273526669008" lon="4.522266641897">
        <ele>7</ele>
        <time>2020-07-19T09:49:09Z</time>
      </trkpt>
      <trkpt lat="51.273964958559" lon="4.522823200057">
        <ele>6</ele>
        <time>2020-07-19T09:49:17Z</time>
      </trkpt>
      <trkpt lat="51.274403667205" lon="4.52338034495">
        <ele>7.6</ele>
        <time>2020-07-19T09:49:25Z</time>
      </trkpt>
      <trkpt lat="51.274853859054" lon="4.523949727417">
        <ele>6.2</ele>
        <time>2020-07-19T09:49:34Z</time>
      </trkpt>
      <trkpt lat="51.27530765512" lon="4.52452112154">
        <ele>6.8</ele>
        <time>2020-07-19T09:49:44Z</time>
      </trkpt>
      <trkpt lat="51.275753236924" lon="4.525083714668">
        <ele>6</ele>
        <time>2020-07-19T09:49:54Z</time>
      </trkpt>
      <trkpt lat="51.276223293876" lon="4.525673548971">
        <ele>6</ele>
        <time>2020-07-19T09:50:04Z</time>
      </trkpt>
      <trkpt lat="51.276672144621" lon="4.52624863113">
        <ele>6.4</ele>
        <time>2020-07-19T09:50:13Z</time>
      </trkpt>
      <trkpt lat="51.277127114153" lon="4.526815750484">
        <ele>5.6</ele>
        <time>2020-07-19T09:50:22Z</time>
      </trkpt>
      <trkpt lat="51.277428694915" lon="4.527202742807">
        <ele>6.6</ele>
        <time>2020-07-19T09:50:28Z</time>
      </trkpt>
      <trkpt lat="51.277914928934" lon="4.527834402791">
        <ele>10.4</ele>
        <time>2020-07-19T09:50:50Z</time>
      </trkpt>
      <trkpt lat="51.278383644782" lon="4.528439995066">
        <ele>5.8</ele>
        <time>2020-07-19T09:51:00Z</time>
      </trkpt>
      <trkpt lat="51.278860239616" lon="4.529034523233">
        <ele>6.4</ele>
        <time>2020-07-19T09:51:09Z</time>
      </trkpt>
      <trkpt lat="51.279284950489" lon="4.529577586534">
        <ele>6.2</ele>
        <time>2020-07-19T09:51:17Z</time>
      </trkpt>
      <trkpt lat="51.279746457903" lon="4.530185358103">
        <ele>2.8</ele>
        <time>2020-07-19T09:51:26Z</time>
      </trkpt>
      <trkpt lat="51.28020771386" lon="4.530793884043">
        <ele>0</ele>
        <time>2020-07-19T09:51:35Z</time>
      </trkpt>
      <trkpt lat="51.280665449419" lon="4.531375084989">
        <ele>0</ele>
        <time>2020-07-19T09:51:44Z</time>
      </trkpt>
      <trkpt lat="51.281126034824" lon="4.531938767764">
        <ele>0</ele>
        <time>2020-07-19T09:51:54Z</time>
      </trkpt>
      <trkpt lat="51.281580417623" lon="4.532503707824">
        <ele>1</ele>
        <time>2020-07-19T09:52:04Z</time>
      </trkpt>
      <trkpt lat="51.282026250884" lon="4.533088596806">
        <ele>7.6</ele>
        <time>2020-07-19T09:52:13Z</time>
      </trkpt>
      <trkpt lat="51.282487758298" lon="4.533688489389">
        <ele>9.2</ele>
        <time>2020-07-19T09:52:22Z</time>
      </trkpt>
      <trkpt lat="51.282960497458" lon="4.534270779982">
        <ele>6.2</ele>
        <time>2020-07-19T09:52:31Z</time>
      </trkpt>
      <trkpt lat="51.283383196675" lon="4.53482247664">
        <ele>5.8</ele>
        <time>2020-07-19T09:52:39Z</time>
      </trkpt>
      <trkpt lat="51.283859204776" lon="4.535419184101">
        <ele>6</ele>
        <time>2020-07-19T09:52:48Z</time>
      </trkpt>
      <trkpt lat="51.284319119629" lon="4.536001558513">
        <ele>4.8</ele>
        <time>2020-07-19T09:52:57Z</time>
      </trkpt>
      <trkpt lat="51.284766880727" lon="4.536556775569">
        <ele>5.6</ele>
        <time>2020-07-19T09:53:06Z</time>
      </trkpt>
      <trkpt lat="51.285222353173" lon="4.537149962632">
        <ele>7.8</ele>
        <time>2020-07-19T09:53:16Z</time>
      </trkpt>
      <trkpt lat="51.285677322705" lon="4.537726385895">
        <ele>7.8</ele>
        <time>2020-07-19T09:53:26Z</time>
      </trkpt>
      <trkpt lat="51.28613371716" lon="4.538319572958">
        <ele>8</ele>
        <time>2020-07-19T09:53:36Z</time>
      </trkpt>
      <trkpt lat="51.286587513226" lon="4.538916531876">
        <ele>6.6</ele>
        <time>2020-07-19T09:53:46Z</time>
      </trkpt>
      <trkpt lat="51.287012643194" lon="4.53948868037">
        <ele>5</ele>
        <time>2020-07-19T09:53:55Z</time>
      </trkpt>
      <trkpt lat="51.287462080672" lon="4.540037443363">
        <ele>8.2</ele>
        <time>2020-07-19T09:54:05Z</time>
      </trkpt>
      <trkpt lat="51.28790145987" lon="4.540601126138">
        <ele>6.6</ele>
        <time>2020-07-19T09:54:16Z</time>
      </trkpt>
      <trkpt lat="51.288362883465" lon="4.541182578541">
        <ele>8.8</ele>
        <time>2020-07-19T09:54:27Z</time>
      </trkpt>
      <trkpt lat="51.288818523549" lon="4.541764114763">
        <ele>8</ele>
        <time>2020-07-19T09:54:37Z</time>
      </trkpt>
      <trkpt lat="51.289248095924" lon="4.54229577868">
        <ele>9.2</ele>
        <time>2020-07-19T09:54:47Z</time>
      </trkpt>
      <trkpt lat="51.289690744063" lon="4.542894413978">
        <ele>8.6</ele>
        <time>2020-07-19T09:54:57Z</time>
      </trkpt>
      <trkpt lat="51.290133811297" lon="4.543448457568">
        <ele>9.6</ele>
        <time>2020-07-19T09:55:06Z</time>
      </trkpt>
      <trkpt lat="51.290563635129" lon="4.543973164508">
        <ele>9.4</ele>
        <time>2020-07-19T09:55:15Z</time>
      </trkpt>
      <trkpt lat="51.290986250527" lon="4.544510192841">
        <ele>8.8</ele>
        <time>2020-07-19T09:55:24Z</time>
      </trkpt>
      <trkpt lat="51.291445830104" lon="4.545108492863">
        <ele>6</ele>
        <time>2020-07-19T09:55:34Z</time>
      </trkpt>
      <trkpt lat="51.292222832234" lon="4.546069561517">
        <ele>6.2</ele>
        <time>2020-07-19T09:55:49Z</time>
      </trkpt>
      <trkpt lat="51.292653745713" lon="4.546621425813">
        <ele>8.4</ele>
        <time>2020-07-19T09:55:58Z</time>
      </trkpt>
      <trkpt lat="51.293098154051" lon="4.54721679217">
        <ele>9</ele>
        <time>2020-07-19T09:56:08Z</time>
      </trkpt>
      <trkpt lat="51.29348380527" lon="4.547835879304">
        <ele>10.2</ele>
        <time>2020-07-19T09:56:17Z</time>
      </trkpt>
      <trkpt lat="51.293821344383" lon="4.548534762126">
        <ele>11.2</ele>
        <time>2020-07-19T09:56:28Z</time>
      </trkpt>
      <trkpt lat="51.294126780819" lon="4.549320816708">
        <ele>13</ele>
        <time>2020-07-19T09:56:41Z</time>
      </trkpt>
      <trkpt lat="51.294457195317" lon="4.55010854767">
        <ele>12.6</ele>
        <time>2020-07-19T09:56:52Z</time>
      </trkpt>
      <trkpt lat="51.294754836586" lon="4.550899715211">
        <ele>11.8</ele>
        <time>2020-07-19T09:57:01Z</time>
      </trkpt>
      <trkpt lat="51.295069828388" lon="4.551703287964">
        <ele>11</ele>
        <time>2020-07-19T09:57:10Z</time>
      </trkpt>
      <trkpt lat="51.295369481313" lon="4.552420024233">
        <ele>11.2</ele>
        <time>2020-07-19T09:57:18Z</time>
      </trkpt>
      <trkpt lat="51.295675839758" lon="4.553140113262">
        <ele>11.8</ele>
        <time>2020-07-19T09:57:26Z</time>
      </trkpt>
      <trkpt lat="51.295993765225" lon="4.553920551971">
        <ele>13.2</ele>
        <time>2020-07-19T09:57:35Z</time>
      </trkpt>
      <trkpt lat="51.296294340159" lon="4.554667882175">
        <ele>12.6</ele>
        <time>2020-07-19T09:57:44Z</time>
      </trkpt>
      <trkpt lat="51.296600111871" lon="4.555430551256">
        <ele>11.6</ele>
        <time>2020-07-19T09:57:53Z</time>
      </trkpt>
      <trkpt lat="51.296906554135" lon="4.556205290273">
        <ele>10.6</ele>
        <time>2020-07-19T09:58:02Z</time>
      </trkpt>
      <trkpt lat="51.297206793793" lon="4.556976173616">
        <ele>8.6</ele>
        <time>2020-07-19T09:58:11Z</time>
      </trkpt>
      <trkpt lat="51.297534358445" lon="4.557734065014">
        <ele>10</ele>
        <time>2020-07-19T09:58:20Z</time>
      </trkpt>
      <trkpt lat="51.297822947262" lon="4.558468403273">
        <ele>11.8</ele>
        <time>2020-07-19T09:58:29Z</time>
      </trkpt>
      <trkpt lat="51.297967032123" lon="4.558778701211">
        <ele>12</ele>
        <time>2020-07-19T09:58:34Z</time>
      </trkpt>
      <trkpt lat="51.298247322859" lon="4.559519242076">
        <ele>13.8</ele>
        <time>2020-07-19T09:58:47Z</time>
      </trkpt>
      <trkpt lat="51.298574636054" lon="4.560296998577">
        <ele>12</ele>
        <time>2020-07-19T09:59:00Z</time>
      </trkpt>
      <trkpt lat="51.298870265667" lon="4.561055728165">
        <ele>11</ele>
        <time>2020-07-19T09:59:10Z</time>
      </trkpt>
      <trkpt lat="51.299177462302" lon="4.56177447609">
        <ele>10.2</ele>
        <time>2020-07-19T09:59:19Z</time>
      </trkpt>
      <trkpt lat="51.299483988385" lon="4.562542174311">
        <ele>9.4</ele>
        <time>2020-07-19T09:59:28Z</time>
      </trkpt>
      <trkpt lat="51.299806440078" lon="4.563325630504">
        <ele>12.6</ele>
        <time>2020-07-19T09:59:37Z</time>
      </trkpt>
      <trkpt lat="51.300117827663" lon="4.564080252961">
        <ele>13.4</ele>
        <time>2020-07-19T09:59:46Z</time>
      </trkpt>
      <trkpt lat="51.300414379285" lon="4.564860021118">
        <ele>13</ele>
        <time>2020-07-19T09:59:55Z</time>
      </trkpt>
      <trkpt lat="51.300734232589" lon="4.565623947484">
        <ele>13.2</ele>
        <time>2020-07-19T10:00:04Z</time>
      </trkpt>
      <trkpt lat="51.301033298781" lon="4.566369349851">
        <ele>12.2</ele>
        <time>2020-07-19T10:00:13Z</time>
      </trkpt>
      <trkpt lat="51.301334879543" lon="4.567109723078">
        <ele>11.6</ele>
        <time>2020-07-19T10:00:22Z</time>
      </trkpt>
      <trkpt lat="51.301643249644" lon="4.567858813481">
        <ele>11.8</ele>
        <time>2020-07-19T10:00:31Z</time>
      </trkpt>
      <trkpt lat="51.301943405483" lon="4.568599521984">
        <ele>10.8</ele>
        <time>2020-07-19T10:00:40Z</time>
      </trkpt>
      <trkpt lat="51.302260995674" lon="4.569327741456">
        <ele>13.2</ele>
        <time>2020-07-19T10:00:50Z</time>
      </trkpt>
      <trkpt lat="51.30232084244" lon="4.569476939276">
        <ele>16.2</ele>
        <time>2020-07-19T10:00:58Z</time>
      </trkpt>
      <trkpt lat="51.303349385389" lon="4.572070634412">
        <ele>21.6</ele>
        <time>2020-07-19T10:02:09Z</time>
      </trkpt>
      <trkpt lat="51.303653145445" lon="4.572833387312">
        <ele>19.4</ele>
        <time>2020-07-19T10:02:20Z</time>
      </trkpt>
      <trkpt lat="51.303971573826" lon="4.573631847106">
        <ele>15.8</ele>
        <time>2020-07-19T10:02:29Z</time>
      </trkpt>
      <trkpt lat="51.304266029973" lon="4.574372555609">
        <ele>16.2</ele>
        <time>2020-07-19T10:02:37Z</time>
      </trkpt>
      <trkpt lat="51.304576160273" lon="4.575127261885">
        <ele>15.6</ele>
        <time>2020-07-19T10:02:46Z</time>
      </trkpt>
      <trkpt lat="51.304894756292" lon="4.575896217391">
        <ele>16.8</ele>
        <time>2020-07-19T10:02:57Z</time>
      </trkpt>
      <trkpt lat="51.305171275173" lon="4.576653773513">
        <ele>17.6</ele>
        <time>2020-07-19T10:03:08Z</time>
      </trkpt>
      <trkpt lat="51.305494648875" lon="4.577427590521">
        <ele>18</ele>
        <time>2020-07-19T10:03:19Z</time>
      </trkpt>
      <trkpt lat="51.305802096967" lon="4.578201072253">
        <ele>17.8</ele>
        <time>2020-07-19T10:03:30Z</time>
      </trkpt>
      <trkpt lat="51.306104013005" lon="4.578929207906">
        <ele>19</ele>
        <time>2020-07-19T10:03:40Z</time>
      </trkpt>
      <trkpt lat="51.306386566854" lon="4.57964636327">
        <ele>20.6</ele>
        <time>2020-07-19T10:03:51Z</time>
      </trkpt>
      <trkpt lat="51.30666853397" lon="4.580381958814">
        <ele>19.6</ele>
        <time>2020-07-19T10:04:00Z</time>
      </trkpt>
      <trkpt lat="51.306978412813" lon="4.581146220456">
        <ele>17.8</ele>
        <time>2020-07-19T10:04:09Z</time>
      </trkpt>
      <trkpt lat="51.307306983293" lon="4.581902016379">
        <ele>14.2</ele>
        <time>2020-07-19T10:04:20Z</time>
      </trkpt>
      <trkpt lat="51.307616862136" lon="4.582658734311">
        <ele>12.6</ele>
        <time>2020-07-19T10:04:30Z</time>
      </trkpt>
      <trkpt lat="51.307919029631" lon="4.583439089201">
        <ele>16.4</ele>
        <time>2020-07-19T10:04:40Z</time>
      </trkpt>
      <trkpt lat="51.308224717524" lon="4.584236626986">
        <ele>18.8</ele>
        <time>2020-07-19T10:04:50Z</time>
      </trkpt>
      <trkpt lat="51.308513473979" lon="4.585000553352">
        <ele>16</ele>
        <time>2020-07-19T10:05:00Z</time>
      </trkpt>
      <trkpt lat="51.308824610107" lon="4.585725839159">
        <ele>13.2</ele>
        <time>2020-07-19T10:05:09Z</time>
      </trkpt>
      <trkpt lat="51.30913784171" lon="4.586493956475">
        <ele>16.6</ele>
        <time>2020-07-19T10:05:18Z</time>
      </trkpt>
      <trkpt lat="51.30945886848" lon="4.587268360216">
        <ele>17</ele>
        <time>2020-07-19T10:05:27Z</time>
      </trkpt>
      <trkpt lat="51.30978576258" lon="4.587971769264">
        <ele>18.8</ele>
        <time>2020-07-19T10:05:36Z</time>
      </trkpt>
      <trkpt lat="51.309813087574" lon="4.588042763957">
        <ele>19</ele>
        <time>2020-07-19T10:05:37Z</time>
      </trkpt>
      <trkpt lat="51.310099078002" lon="4.588782885727">
        <ele>20.8</ele>
        <time>2020-07-19T10:05:48Z</time>
      </trkpt>
      <trkpt lat="51.310428905767" lon="4.589541615315">
        <ele>21.2</ele>
        <time>2020-07-19T10:05:58Z</time>
      </trkpt>
      <trkpt lat="51.310722272267" lon="4.590295734858">
        <ele>19.6</ele>
        <time>2020-07-19T10:06:08Z</time>
      </trkpt>
      <trkpt lat="51.311017482785" lon="4.591036443361">
        <ele>20.4</ele>
        <time>2020-07-19T10:06:17Z</time>
      </trkpt>
      <trkpt lat="51.311311855113" lon="4.591759549874">
        <ele>17.4</ele>
        <time>2020-07-19T10:06:26Z</time>
      </trkpt>
      <trkpt lat="51.311640257955" lon="4.592536719642">
        <ele>12.4</ele>
        <time>2020-07-19T10:06:36Z</time>
      </trkpt>
      <trkpt lat="51.311943682735" lon="4.593295281592">
        <ele>11.4</ele>
        <time>2020-07-19T10:06:45Z</time>
      </trkpt>
      <trkpt lat="51.31225339394" lon="4.594039845769">
        <ele>15.8</ele>
        <time>2020-07-19T10:06:54Z</time>
      </trkpt>
      <trkpt lat="51.312538210902" lon="4.594789271448">
        <ele>19</ele>
        <time>2020-07-19T10:07:04Z</time>
      </trkpt>
      <trkpt lat="51.312839037293" lon="4.595575074573">
        <ele>16.8</ele>
        <time>2020-07-19T10:07:14Z</time>
      </trkpt>
      <trkpt lat="51.31315947733" lon="4.596359536594">
        <ele>17.8</ele>
        <time>2020-07-19T10:07:23Z</time>
      </trkpt>
      <trkpt lat="51.313471535467" lon="4.597070992266">
        <ele>19.2</ele>
        <time>2020-07-19T10:07:31Z</time>
      </trkpt>
      <trkpt lat="51.313796920825" lon="4.597865177291">
        <ele>21.2</ele>
        <time>2020-07-19T10:07:40Z</time>
      </trkpt>
      <trkpt lat="51.314106799668" lon="4.598645364543">
        <ele>23.2</ele>
        <time>2020-07-19T10:07:49Z</time>
      </trkpt>
      <trkpt lat="51.314404357118" lon="4.599431083849">
        <ele>21.4</ele>
        <time>2020-07-19T10:07:58Z</time>
      </trkpt>
      <trkpt lat="51.31472521625" lon="4.600206074323">
        <ele>21.4</ele>
        <time>2020-07-19T10:08:07Z</time>
      </trkpt>
      <trkpt lat="51.315023947166" lon="4.600964971549">
        <ele>20.4</ele>
        <time>2020-07-19T10:08:16Z</time>
      </trkpt>
      <trkpt lat="51.315348075239" lon="4.60176619737">
        <ele>21.6</ele>
        <time>2020-07-19T10:08:26Z</time>
      </trkpt>
      <trkpt lat="51.315646470879" lon="4.602561304404">
        <ele>22</ele>
        <time>2020-07-19T10:08:36Z</time>
      </trkpt>
      <trkpt lat="51.315949979478" lon="4.603357333447">
        <ele>22.6</ele>
        <time>2020-07-19T10:08:46Z</time>
      </trkpt>
      <trkpt lat="51.316277879406" lon="4.604143555667">
        <ele>20.4</ele>
        <time>2020-07-19T10:08:54Z</time>
      </trkpt>
      <trkpt lat="51.316595637235" lon="4.604915025743">
        <ele>21.2</ele>
        <time>2020-07-19T10:09:02Z</time>
      </trkpt>
      <trkpt lat="51.316938205488" lon="4.605591528892">
        <ele>21</ele>
        <time>2020-07-19T10:09:10Z</time>
      </trkpt>
      <trkpt lat="51.317239534793" lon="4.60633684744">
        <ele>21</ele>
        <time>2020-07-19T10:09:19Z</time>
      </trkpt>
      <trkpt lat="51.317507252679" lon="4.607090128793">
        <ele>21.6</ele>
        <time>2020-07-19T10:09:28Z</time>
      </trkpt>
      <trkpt lat="51.31795476232" lon="4.608226379157">
        <ele>20.4</ele>
        <time>2020-07-19T10:09:42Z</time>
      </trkpt>
      <trkpt lat="51.318258103281" lon="4.608973206447">
        <ele>21.2</ele>
        <time>2020-07-19T10:09:51Z</time>
      </trkpt>
      <trkpt lat="51.318566976296" lon="4.609689104526">
        <ele>24.4</ele>
        <time>2020-07-19T10:10:00Z</time>
      </trkpt>
      <trkpt lat="51.318872831827" lon="4.610421095853">
        <ele>26.2</ele>
        <time>2020-07-19T10:10:09Z</time>
      </trkpt>
      <trkpt lat="51.319192182217" lon="4.611225087701">
        <ele>25.8</ele>
        <time>2020-07-19T10:10:19Z</time>
      </trkpt>
      <trkpt lat="51.319512454616" lon="4.612017428708">
        <ele>25</ele>
        <time>2020-07-19T10:10:29Z</time>
      </trkpt>
      <trkpt lat="51.319807748953" lon="4.612743301248">
        <ele>24</ele>
        <time>2020-07-19T10:10:38Z</time>
      </trkpt>
      <trkpt lat="51.320093655562" lon="4.613512089116">
        <ele>20.4</ele>
        <time>2020-07-19T10:10:47Z</time>
      </trkpt>
      <trkpt lat="51.320395655419" lon="4.614266543935">
        <ele>19.6</ele>
        <time>2020-07-19T10:10:56Z</time>
      </trkpt>
      <trkpt lat="51.32073503855" lon="4.615049161938">
        <ele>21.2</ele>
        <time>2020-07-19T10:11:06Z</time>
      </trkpt>
      <trkpt lat="51.321028656507" lon="4.615789618984">
        <ele>21</ele>
        <time>2020-07-19T10:11:15Z</time>
      </trkpt>
      <trkpt lat="51.321331410735" lon="4.616558993585">
        <ele>20.2</ele>
        <time>2020-07-19T10:11:24Z</time>
      </trkpt>
      <trkpt lat="51.321656125541" lon="4.617352088963">
        <ele>18.6</ele>
        <time>2020-07-19T10:11:33Z</time>
      </trkpt>
      <trkpt lat="51.321952258068" lon="4.618096485502">
        <ele>18.4</ele>
        <time>2020-07-19T10:11:42Z</time>
      </trkpt>
      <trkpt lat="51.32225132426" lon="4.618863932266">
        <ele>20.6</ele>
        <time>2020-07-19T10:11:52Z</time>
      </trkpt>
      <trkpt lat="51.322563047121" lon="4.619634145057">
        <ele>22.2</ele>
        <time>2020-07-19T10:12:01Z</time>
      </trkpt>
      <trkpt lat="51.322899077492" lon="4.62039580831">
        <ele>21.2</ele>
        <time>2020-07-19T10:12:10Z</time>
      </trkpt>
      <trkpt lat="51.323222618832" lon="4.621180521788">
        <ele>21.2</ele>
        <time>2020-07-19T10:12:19Z</time>
      </trkpt>
      <trkpt lat="51.323434764721" lon="4.621699780493">
        <ele>22</ele>
        <time>2020-07-19T10:12:25Z</time>
      </trkpt>
      <trkpt lat="51.323704913358" lon="4.622446943059">
        <ele>24.4</ele>
        <time>2020-07-19T10:12:34Z</time>
      </trkpt>
      <trkpt lat="51.324004985378" lon="4.623177509463">
        <ele>23.2</ele>
        <time>2020-07-19T10:12:42Z</time>
      </trkpt>
      <trkpt lat="51.324313942212" lon="4.623912266817">
        <ele>22.4</ele>
        <time>2020-07-19T10:12:51Z</time>
      </trkpt>
      <trkpt lat="51.324623066684" lon="4.624701338883">
        <ele>18.6</ele>
        <time>2020-07-19T10:13:01Z</time>
      </trkpt>
      <trkpt lat="51.324912074596" lon="4.625453614408">
        <ele>20</ele>
        <time>2020-07-19T10:13:11Z</time>
      </trkpt>
      <trkpt lat="51.325217594851" lon="4.626208739779">
        <ele>19.8</ele>
        <time>2020-07-19T10:13:21Z</time>
      </trkpt>
      <trkpt lat="51.325522360735" lon="4.626937629803">
        <ele>25.2</ele>
        <time>2020-07-19T10:13:30Z</time>
      </trkpt>
      <trkpt lat="51.32581363176" lon="4.627666938922">
        <ele>25.8</ele>
        <time>2020-07-19T10:13:39Z</time>
      </trkpt>
      <trkpt lat="51.326108171726" lon="4.628417873343">
        <ele>24</ele>
        <time>2020-07-19T10:13:48Z</time>
      </trkpt>
      <trkpt lat="51.326417547655" lon="4.629168472488">
        <ele>24</ele>
        <time>2020-07-19T10:13:57Z</time>
      </trkpt>
      <trkpt lat="51.326724073738" lon="4.629934578148">
        <ele>23.2</ele>
        <time>2020-07-19T10:14:07Z</time>
      </trkpt>
      <trkpt lat="51.327034204038" lon="4.630712418468">
        <ele>22.2</ele>
        <time>2020-07-19T10:14:17Z</time>
      </trkpt>
      <trkpt lat="51.327329414556" lon="4.631469639314">
        <ele>18.8</ele>
        <time>2020-07-19T10:14:27Z</time>
      </trkpt>
      <trkpt lat="51.327658823226" lon="4.63225535862">
        <ele>18.6</ele>
        <time>2020-07-19T10:14:37Z</time>
      </trkpt>
      <trkpt lat="51.327953027916" lon="4.632983578092">
        <ele>19.6</ele>
        <time>2020-07-19T10:14:46Z</time>
      </trkpt>
      <trkpt lat="51.32826030837" lon="4.633721269111">
        <ele>21.8</ele>
        <time>2020-07-19T10:14:56Z</time>
      </trkpt>
      <trkpt lat="51.328563146417" lon="4.634478489957">
        <ele>24</ele>
        <time>2020-07-19T10:15:08Z</time>
      </trkpt>
      <trkpt lat="51.328870007776" lon="4.635187850154">
        <ele>22.4</ele>
        <time>2020-07-19T10:15:18Z</time>
      </trkpt>
      <trkpt lat="51.32893337494" lon="4.635317350509">
        <ele>21.8</ele>
        <time>2020-07-19T10:15:20Z</time>
      </trkpt>
      <trkpt lat="51.329130517228" lon="4.635836357757">
        <ele>22.4</ele>
        <time>2020-07-19T10:15:29Z</time>
      </trkpt>
      <trkpt lat="51.32917393547" lon="4.635980610256">
        <ele>22.2</ele>
        <time>2020-07-19T10:15:31Z</time>
      </trkpt>
      <trkpt lat="51.329494543145" lon="4.636754343445">
        <ele>23.2</ele>
        <time>2020-07-19T10:15:41Z</time>
      </trkpt>
      <trkpt lat="51.329807690929" lon="4.637495554862">
        <ele>24.6</ele>
        <time>2020-07-19T10:15:50Z</time>
      </trkpt>
      <trkpt lat="51.330102314714" lon="4.638273646639">
        <ele>25</ele>
        <time>2020-07-19T10:16:00Z</time>
      </trkpt>
      <trkpt lat="51.330413786118" lon="4.639040925765">
        <ele>25.2</ele>
        <time>2020-07-19T10:16:10Z</time>
      </trkpt>
      <trkpt lat="51.330718132907" lon="4.6397588355">
        <ele>21.8</ele>
        <time>2020-07-19T10:16:20Z</time>
      </trkpt>
      <trkpt lat="51.33100202786" lon="4.640501890935">
        <ele>20</ele>
        <time>2020-07-19T10:16:30Z</time>
      </trkpt>
      <trkpt lat="51.331309475952" lon="4.641278054875">
        <ele>23.2</ele>
        <time>2020-07-19T10:16:41Z</time>
      </trkpt>
      <trkpt lat="51.331685487986" lon="4.640827443931">
        <ele>18.8</ele>
        <time>2020-07-19T10:16:57Z</time>
      </trkpt>
      <trkpt lat="51.331736366119" lon="4.64072610676">
        <ele>18.8</ele>
        <time>2020-07-19T10:16:59Z</time>
      </trkpt>
      <trkpt lat="51.332066026246" lon="4.640194945757">
        <ele>19.4</ele>
        <time>2020-07-19T10:17:09Z</time>
      </trkpt>
      <trkpt lat="51.332168536883" lon="4.640078772623">
        <ele>20.6</ele>
        <time>2020-07-19T10:17:29Z</time>
      </trkpt>
      <trkpt lat="51.331912972752" lon="4.640363924861">
        <ele>21.6</ele>
        <time>2020-07-19T10:17:37Z</time>
      </trkpt>
      <trkpt lat="51.331528494999" lon="4.641054258145">
        <ele>19.8</ele>
        <time>2020-07-19T10:17:48Z</time>
      </trkpt>
      <trkpt lat="51.331466552758" lon="4.641172359116">
        <ele>20</ele>
        <time>2020-07-19T10:17:50Z</time>
      </trkpt>
      <trkpt lat="51.331449788958" lon="4.64137486582">
        <ele>20</ele>
        <time>2020-07-19T10:17:53Z</time>
      </trkpt>
      <trkpt lat="51.331591359249" lon="4.641518447767">
        <ele>19.2</ele>
        <time>2020-07-19T10:17:57Z</time>
      </trkpt>
      <trkpt lat="51.332117910207" lon="4.641731683303">
        <ele>19</ele>
        <time>2020-07-19T10:18:07Z</time>
      </trkpt>
      <trkpt lat="51.332256714471" lon="4.641839390718">
        <ele>18.6</ele>
        <time>2020-07-19T10:18:10Z</time>
      </trkpt>
      <trkpt lat="51.332674636005" lon="4.642419837293">
        <ele>15</ele>
        <time>2020-07-19T10:18:20Z</time>
      </trkpt>
      <trkpt lat="51.333056263912" lon="4.643116121726">
        <ele>15.6</ele>
        <time>2020-07-19T10:18:30Z</time>
      </trkpt>
      <trkpt lat="51.333266565783" lon="4.643442177636">
        <ele>17.2</ele>
        <time>2020-07-19T10:18:35Z</time>
      </trkpt>
      <trkpt lat="51.333358096131" lon="4.643533624165">
        <ele>17</ele>
        <time>2020-07-19T10:18:37Z</time>
      </trkpt>
      <trkpt lat="51.333932675376" lon="4.643715176119">
        <ele>18.6</ele>
        <time>2020-07-19T10:18:47Z</time>
      </trkpt>
      <trkpt lat="51.334043232637" lon="4.643667650746">
        <ele>18</ele>
        <time>2020-07-19T10:18:49Z</time>
      </trkpt>
      <trkpt lat="51.334512199942" lon="4.643237491638">
        <ele>17.4</ele>
        <time>2020-07-19T10:18:58Z</time>
      </trkpt>
      <trkpt lat="51.334993907735" lon="4.642832310592">
        <ele>17.6</ele>
        <time>2020-07-19T10:19:07Z</time>
      </trkpt>
      <trkpt lat="51.335507215291" lon="4.642373233929">
        <ele>18.4</ele>
        <time>2020-07-19T10:19:17Z</time>
      </trkpt>
      <trkpt lat="51.335555327397" lon="4.642336856483">
        <ele>18.4</ele>
        <time>2020-07-19T10:19:18Z</time>
      </trkpt>
      <trkpt lat="51.335658508586" lon="4.642320427959">
        <ele>18.8</ele>
        <time>2020-07-19T10:19:20Z</time>
      </trkpt>
      <trkpt lat="51.335760767766" lon="4.642402235303">
        <ele>18.6</ele>
        <time>2020-07-19T10:19:22Z</time>
      </trkpt>
      <trkpt lat="51.336161506405" lon="4.643049234164">
        <ele>18</ele>
        <time>2020-07-19T10:19:32Z</time>
      </trkpt>
      <trkpt lat="51.336565765442" lon="4.643713164463">
        <ele>18.8</ele>
        <time>2020-07-19T10:19:42Z</time>
      </trkpt>
      <trkpt lat="51.336954350326" lon="4.644319008195">
        <ele>18.8</ele>
        <time>2020-07-19T10:19:52Z</time>
      </trkpt>
      <trkpt lat="51.337353496404" lon="4.644952176921">
        <ele>15.6</ele>
        <time>2020-07-19T10:20:02Z</time>
      </trkpt>
      <trkpt lat="51.337770579748" lon="4.645591632072">
        <ele>12.6</ele>
        <time>2020-07-19T10:20:11Z</time>
      </trkpt>
      <trkpt lat="51.338218927579" lon="4.646214826337">
        <ele>17.2</ele>
        <time>2020-07-19T10:20:20Z</time>
      </trkpt>
      <trkpt lat="51.338665096116" lon="4.646861909017">
        <ele>19.2</ele>
        <time>2020-07-19T10:20:29Z</time>
      </trkpt>
      <trkpt lat="51.33909056136" lon="4.647426932896">
        <ele>18.4</ele>
        <time>2020-07-19T10:20:38Z</time>
      </trkpt>
      <trkpt lat="51.339331624804" lon="4.647692052393">
        <ele>17.8</ele>
        <time>2020-07-19T10:20:43Z</time>
      </trkpt>
      <trkpt lat="51.339732279624" lon="4.647950634008">
        <ele>17.6</ele>
        <time>2020-07-19T10:20:50Z</time>
      </trkpt>
      <trkpt lat="51.340218681281" lon="4.648430330145">
        <ele>18.8</ele>
        <time>2020-07-19T10:20:59Z</time>
      </trkpt>
      <trkpt lat="51.340315576045" lon="4.648552873523">
        <ele>19.4</ele>
        <time>2020-07-19T10:21:01Z</time>
      </trkpt>
      <trkpt lat="51.340379446123" lon="4.648714308917">
        <ele>20</ele>
        <time>2020-07-19T10:21:03Z</time>
      </trkpt>
      <trkpt lat="51.34056493757" lon="4.649547050682">
        <ele>21.8</ele>
        <time>2020-07-19T10:21:13Z</time>
      </trkpt>
      <trkpt lat="51.340755709614" lon="4.650407368898">
        <ele>22.4</ele>
        <time>2020-07-19T10:21:24Z</time>
      </trkpt>
      <trkpt lat="51.340794769268" lon="4.650552962501">
        <ele>22.8</ele>
        <time>2020-07-19T10:21:26Z</time>
      </trkpt>
      <trkpt lat="51.340845312125" lon="4.650674164775">
        <ele>22.8</ele>
        <time>2020-07-19T10:21:28Z</time>
      </trkpt>
      <trkpt lat="51.340914211343" lon="4.65069302405">
        <ele>23.6</ele>
        <time>2020-07-19T10:21:30Z</time>
      </trkpt>
      <trkpt lat="51.340994174669" lon="4.650628148144">
        <ele>22.8</ele>
        <time>2020-07-19T10:21:32Z</time>
      </trkpt>
      <trkpt lat="51.34149365209" lon="4.650145183066">
        <ele>20.4</ele>
        <time>2020-07-19T10:21:42Z</time>
      </trkpt>
      <trkpt lat="51.341996649909" lon="4.649678311236">
        <ele>18.6</ele>
        <time>2020-07-19T10:21:52Z</time>
      </trkpt>
      <trkpt lat="51.342495708235" lon="4.649205655895">
        <ele>17.4</ele>
        <time>2020-07-19T10:22:02Z</time>
      </trkpt>
      <trkpt lat="51.342949085206" lon="4.648644822966">
        <ele>18.4</ele>
        <time>2020-07-19T10:22:12Z</time>
      </trkpt>
      <trkpt lat="51.343365665636" lon="4.648006876557">
        <ele>20.2</ele>
        <time>2020-07-19T10:22:22Z</time>
      </trkpt>
      <trkpt lat="51.343521401338" lon="4.647797161419">
        <ele>21.2</ele>
        <time>2020-07-19T10:22:26Z</time>
      </trkpt>
      <trkpt lat="51.343618715197" lon="4.647825492241">
        <ele>21.8</ele>
        <time>2020-07-19T10:22:28Z</time>
      </trkpt>
      <trkpt lat="51.343690380442" lon="4.647959351184">
        <ele>21.8</ele>
        <time>2020-07-19T10:22:30Z</time>
      </trkpt>
      <trkpt lat="51.343977460517" lon="4.648760744643">
        <ele>22.6</ele>
        <time>2020-07-19T10:22:40Z</time>
      </trkpt>
      <trkpt lat="51.344276359071" lon="4.649497681291">
        <ele>22.6</ele>
        <time>2020-07-19T10:22:50Z</time>
      </trkpt>
      <trkpt lat="51.344598475488" lon="4.65020855023">
        <ele>21.8</ele>
        <time>2020-07-19T10:23:00Z</time>
      </trkpt>
      <trkpt lat="51.344794109034" lon="4.650541563117">
        <ele>21</ele>
        <time>2020-07-19T10:23:06Z</time>
      </trkpt>
      <trkpt lat="51.344880023509" lon="4.650819926016">
        <ele>20.4</ele>
        <time>2020-07-19T10:23:15Z</time>
      </trkpt>
      <trkpt lat="51.345301046346" lon="4.651528028928">
        <ele>12.4</ele>
        <time>2020-07-19T10:23:30Z</time>
      </trkpt>
      <trkpt lat="51.345727098323" lon="4.652196401634">
        <ele>13.6</ele>
        <time>2020-07-19T10:23:40Z</time>
      </trkpt>
      <trkpt lat="51.346137895242" lon="4.652828145437">
        <ele>14.8</ele>
        <time>2020-07-19T10:23:49Z</time>
      </trkpt>
      <trkpt lat="51.346551039093" lon="4.653478999972">
        <ele>15</ele>
        <time>2020-07-19T10:23:58Z</time>
      </trkpt>
      <trkpt lat="51.346960494908" lon="4.654133039629">
        <ele>14.2</ele>
        <time>2020-07-19T10:24:07Z</time>
      </trkpt>
      <trkpt lat="51.347437927932" lon="4.654660931691">
        <ele>16.2</ele>
        <time>2020-07-19T10:24:16Z</time>
      </trkpt>
      <trkpt lat="51.347940003742" lon="4.655145992244">
        <ele>18</ele>
        <time>2020-07-19T10:24:25Z</time>
      </trkpt>
      <trkpt lat="51.348431602177" lon="4.655608002572">
        <ele>18.4</ele>
        <time>2020-07-19T10:24:34Z</time>
      </trkpt>
      <trkpt lat="51.348918758205" lon="4.655986864452">
        <ele>19.2</ele>
        <time>2020-07-19T10:24:43Z</time>
      </trkpt>
      <trkpt lat="51.349440615299" lon="4.656397996647">
        <ele>19</ele>
        <time>2020-07-19T10:24:53Z</time>
      </trkpt>
      <trkpt lat="51.349839845196" lon="4.656976347747">
        <ele>19</ele>
        <time>2020-07-19T10:25:03Z</time>
      </trkpt>
      <trkpt lat="51.3502351356" lon="4.657679086243">
        <ele>19</ele>
        <time>2020-07-19T10:25:13Z</time>
      </trkpt>
      <trkpt lat="51.350463877651" lon="4.658049733861">
        <ele>18.8</ele>
        <time>2020-07-19T10:25:19Z</time>
      </trkpt>
      <trkpt lat="51.350526574263" lon="4.658207816495">
        <ele>18</ele>
        <time>2020-07-19T10:25:22Z</time>
      </trkpt>
      <trkpt lat="51.350536800181" lon="4.658345614931">
        <ele>17.8</ele>
        <time>2020-07-19T10:25:24Z</time>
      </trkpt>
      <trkpt lat="51.350660852301" lon="4.65923920929">
        <ele>17.2</ele>
        <time>2020-07-19T10:25:37Z</time>
      </trkpt>
      <trkpt lat="51.350719777058" lon="4.659558894956">
        <ele>17.6</ele>
        <time>2020-07-19T10:25:42Z</time>
      </trkpt>
      <trkpt lat="51.350720112334" lon="4.659684120542">
        <ele>17.8</ele>
        <time>2020-07-19T10:25:44Z</time>
      </trkpt>
      <trkpt lat="51.350883643203" lon="4.660331454679">
        <ele>18.4</ele>
        <time>2020-07-19T10:26:00Z</time>
      </trkpt>
      <trkpt lat="51.351080282577" lon="4.6611494443">
        <ele>18.8</ele>
        <time>2020-07-19T10:26:11Z</time>
      </trkpt>
      <trkpt lat="51.351303995488" lon="4.66199433982">
        <ele>20.4</ele>
        <time>2020-07-19T10:26:23Z</time>
      </trkpt>
      <trkpt lat="51.351326878075" lon="4.66206223321">
        <ele>20.4</ele>
        <time>2020-07-19T10:26:24Z</time>
      </trkpt>
      <trkpt lat="51.35140189608" lon="4.662166671684">
        <ele>21.8</ele>
        <time>2020-07-19T10:26:26Z</time>
      </trkpt>
      <trkpt lat="51.351866420978" lon="4.662636225722">
        <ele>20.2</ele>
        <time>2020-07-19T10:26:36Z</time>
      </trkpt>
      <trkpt lat="51.352327593116" lon="4.66314349831">
        <ele>17</ele>
        <time>2020-07-19T10:26:46Z</time>
      </trkpt>
      <trkpt lat="51.352789687263" lon="4.663626714845">
        <ele>15.2</ele>
        <time>2020-07-19T10:26:56Z</time>
      </trkpt>
      <trkpt lat="51.353246919908" lon="4.664087970802">
        <ele>13</ele>
        <time>2020-07-19T10:27:06Z</time>
      </trkpt>
      <trkpt lat="51.353283716449" lon="4.664141531143">
        <ele>12.6</ele>
        <time>2020-07-19T10:27:07Z</time>
      </trkpt>
      <trkpt lat="51.353327889062" lon="4.664262817236">
        <ele>13.2</ele>
        <time>2020-07-19T10:27:09Z</time>
      </trkpt>
      <trkpt lat="51.353440709436" lon="4.664832954074">
        <ele>17.4</ele>
        <time>2020-07-19T10:27:20Z</time>
      </trkpt>
      <trkpt lat="51.35399609413" lon="4.664528523466">
        <ele>15.8</ele>
        <time>2020-07-19T10:27:32Z</time>
      </trkpt>
      <trkpt lat="51.354536307585" lon="4.664272875516">
        <ele>12.8</ele>
        <time>2020-07-19T10:27:41Z</time>
      </trkpt>
      <trkpt lat="51.355060343973" lon="4.664013036616">
        <ele>12.4</ele>
        <time>2020-07-19T10:27:50Z</time>
      </trkpt>
      <trkpt lat="51.355549511657" lon="4.663768452774">
        <ele>12.8</ele>
        <time>2020-07-19T10:27:59Z</time>
      </trkpt>
      <trkpt lat="51.355645484412" lon="4.663812709206">
        <ele>12.6</ele>
        <time>2020-07-19T10:28:01Z</time>
      </trkpt>
      <trkpt lat="51.35570767811" lon="4.6639573808">
        <ele>12.8</ele>
        <time>2020-07-19T10:28:03Z</time>
      </trkpt>
      <trkpt lat="51.355969696304" lon="4.664801186673">
        <ele>15.2</ele>
        <time>2020-07-19T10:28:13Z</time>
      </trkpt>
      <trkpt lat="51.356226601539" lon="4.665583888495">
        <ele>17.4</ele>
        <time>2020-07-19T10:28:22Z</time>
      </trkpt>
      <trkpt lat="51.356491888674" lon="4.666398776813">
        <ele>15.8</ele>
        <time>2020-07-19T10:28:31Z</time>
      </trkpt>
      <trkpt lat="51.356701939088" lon="4.667204780317">
        <ele>15.8</ele>
        <time>2020-07-19T10:28:40Z</time>
      </trkpt>
      <trkpt lat="51.356861362826" lon="4.668068199836">
        <ele>17.4</ele>
        <time>2020-07-19T10:28:49Z</time>
      </trkpt>
      <trkpt lat="51.357004022764" lon="4.668915777564">
        <ele>17.2</ele>
        <time>2020-07-19T10:28:58Z</time>
      </trkpt>
      <trkpt lat="51.357196722645" lon="4.669774000305">
        <ele>16</ele>
        <time>2020-07-19T10:29:08Z</time>
      </trkpt>
      <trkpt lat="51.357551528472" lon="4.670443714115">
        <ele>16.8</ele>
        <time>2020-07-19T10:29:17Z</time>
      </trkpt>
      <trkpt lat="51.357686225605" lon="4.670730207457">
        <ele>16.6</ele>
        <time>2020-07-19T10:29:21Z</time>
      </trkpt>
      <trkpt lat="51.35787859021" lon="4.671309815842">
        <ele>15.6</ele>
        <time>2020-07-19T10:29:29Z</time>
      </trkpt>
      <trkpt lat="51.357992835507" lon="4.671371674264">
        <ele>14.8</ele>
        <time>2020-07-19T10:29:32Z</time>
      </trkpt>
      <trkpt lat="51.358086126054" lon="4.671329010393">
        <ele>14</ele>
        <time>2020-07-19T10:29:34Z</time>
      </trkpt>
      <trkpt lat="51.358660872937" lon="4.671141423471">
        <ele>13.8</ele>
        <time>2020-07-19T10:29:45Z</time>
      </trkpt>
      <trkpt lat="51.35921131231" lon="4.671211831431">
        <ele>12.4</ele>
        <time>2020-07-19T10:29:55Z</time>
      </trkpt>
      <trkpt lat="51.35979972169" lon="4.671289112549">
        <ele>12.6</ele>
        <time>2020-07-19T10:30:06Z</time>
      </trkpt>
      <trkpt lat="51.360367930691" lon="4.671367902409">
        <ele>14</ele>
        <time>2020-07-19T10:30:17Z</time>
      </trkpt>
      <trkpt lat="51.360905713395" lon="4.67146504863">
        <ele>15.6</ele>
        <time>2020-07-19T10:30:27Z</time>
      </trkpt>
      <trkpt lat="51.361232691314" lon="4.671644002195">
        <ele>18</ele>
        <time>2020-07-19T10:30:33Z</time>
      </trkpt>
      <trkpt lat="51.361327825879" lon="4.671756906388">
        <ele>17.8</ele>
        <time>2020-07-19T10:30:35Z</time>
      </trkpt>
      <trkpt lat="51.361711549261" lon="4.672474397028">
        <ele>17.2</ele>
        <time>2020-07-19T10:30:45Z</time>
      </trkpt>
      <trkpt lat="51.36208127487" lon="4.673186355614">
        <ele>17.8</ele>
        <time>2020-07-19T10:30:56Z</time>
      </trkpt>
      <trkpt lat="51.362457705999" lon="4.673896134906">
        <ele>18.4</ele>
        <time>2020-07-19T10:31:07Z</time>
      </trkpt>
      <trkpt lat="51.362838328078" lon="4.674611781528">
        <ele>18</ele>
        <time>2020-07-19T10:31:17Z</time>
      </trkpt>
      <trkpt lat="51.363209730067" lon="4.675321309363">
        <ele>17</ele>
        <time>2020-07-19T10:31:27Z</time>
      </trkpt>
      <trkpt lat="51.363560512582" lon="4.676018264348">
        <ele>16.4</ele>
        <time>2020-07-19T10:31:37Z</time>
      </trkpt>
      <trkpt lat="51.363950103294" lon="4.676729971477">
        <ele>15.8</ele>
        <time>2020-07-19T10:31:47Z</time>
      </trkpt>
      <trkpt lat="51.364301053447" lon="4.677392560672">
        <ele>15.2</ele>
        <time>2020-07-19T10:31:56Z</time>
      </trkpt>
      <trkpt lat="51.364416975124" lon="4.67759305572">
        <ele>15.6</ele>
        <time>2020-07-19T10:31:59Z</time>
      </trkpt>
      <trkpt lat="51.364457124425" lon="4.677758933521">
        <ele>16.2</ele>
        <time>2020-07-19T10:32:01Z</time>
      </trkpt>
      <trkpt lat="51.364437929874" lon="4.67793168448">
        <ele>16.2</ele>
        <time>2020-07-19T10:32:03Z</time>
      </trkpt>
      <trkpt lat="51.364266771476" lon="4.678831397626">
        <ele>16.2</ele>
        <time>2020-07-19T10:32:13Z</time>
      </trkpt>
      <trkpt lat="51.364223856148" lon="4.679758016671">
        <ele>17.6</ele>
        <time>2020-07-19T10:32:23Z</time>
      </trkpt>
      <trkpt lat="51.364199800095" lon="4.68068346225">
        <ele>15</ele>
        <time>2020-07-19T10:32:33Z</time>
      </trkpt>
      <trkpt lat="51.364216815352" lon="4.681119823964">
        <ele>15.2</ele>
        <time>2020-07-19T10:32:38Z</time>
      </trkpt>
      <trkpt lat="51.364262664345" lon="4.681289641258">
        <ele>15.6</ele>
        <time>2020-07-19T10:32:40Z</time>
      </trkpt>
      <trkpt lat="51.364550666429" lon="4.682064380275">
        <ele>20.2</ele>
        <time>2020-07-19T10:32:50Z</time>
      </trkpt>
      <trkpt lat="51.364941430607" lon="4.682519265988">
        <ele>18.6</ele>
        <time>2020-07-19T10:33:02Z</time>
      </trkpt>
      <trkpt lat="51.36522784013" lon="4.682301252769">
        <ele>17.6</ele>
        <time>2020-07-19T10:33:10Z</time>
      </trkpt>
      <trkpt lat="51.365246531767" lon="4.68234391664">
        <ele>17.2</ele>
        <time>2020-07-19T10:33:12Z</time>
      </trkpt>
      <trkpt lat="51.365034972611" lon="4.682404769234">
        <ele>17</ele>
        <time>2020-07-19T10:33:20Z</time>
      </trkpt>
      <trkpt lat="51.364465422506" lon="4.684014261672">
        <ele>17.8</ele>
        <time>2020-07-19T10:33:52Z</time>
      </trkpt>
      <trkpt lat="51.36484897825" lon="4.684698559988">
        <ele>17.6</ele>
        <time>2020-07-19T10:34:02Z</time>
      </trkpt>
      <trkpt lat="51.365228929777" lon="4.685403393959">
        <ele>18.6</ele>
        <time>2020-07-19T10:34:12Z</time>
      </trkpt>
      <trkpt lat="51.365606115277" lon="4.686141923168">
        <ele>15.8</ele>
        <time>2020-07-19T10:34:22Z</time>
      </trkpt>
      <trkpt lat="51.365972488126" lon="4.686808200399">
        <ele>16.2</ele>
        <time>2020-07-19T10:34:32Z</time>
      </trkpt>
      <trkpt lat="51.366362581752" lon="4.687434998881">
        <ele>17.8</ele>
        <time>2020-07-19T10:34:43Z</time>
      </trkpt>
      <trkpt lat="51.366776647612" lon="4.688052074359">
        <ele>16.4</ele>
        <time>2020-07-19T10:34:53Z</time>
      </trkpt>
      <trkpt lat="51.367223905796" lon="4.688639142635">
        <ele>15.6</ele>
        <time>2020-07-19T10:35:03Z</time>
      </trkpt>
      <trkpt lat="51.36763931276" lon="4.689224953626">
        <ele>16.4</ele>
        <time>2020-07-19T10:35:12Z</time>
      </trkpt>
      <trkpt lat="51.368042146874" lon="4.689819062698">
        <ele>16</ele>
        <time>2020-07-19T10:35:21Z</time>
      </trkpt>
      <trkpt lat="51.36841799127" lon="4.690446447913">
        <ele>17</ele>
        <time>2020-07-19T10:35:31Z</time>
      </trkpt>
      <trkpt lat="51.368764499016" lon="4.691171649901">
        <ele>18.4</ele>
        <time>2020-07-19T10:35:43Z</time>
      </trkpt>
      <trkpt lat="51.369105642346" lon="4.69192945748">
        <ele>18.2</ele>
        <time>2020-07-19T10:35:55Z</time>
      </trkpt>
      <trkpt lat="51.369429099867" lon="4.692635716374">
        <ele>17</ele>
        <time>2020-07-19T10:36:05Z</time>
      </trkpt>
      <trkpt lat="51.369774015052" lon="4.69335186591">
        <ele>17.2</ele>
        <time>2020-07-19T10:36:15Z</time>
      </trkpt>
      <trkpt lat="51.369841824623" lon="4.693494693486">
        <ele>17.2</ele>
        <time>2020-07-19T10:36:17Z</time>
      </trkpt>
      <trkpt lat="51.370165533601" lon="4.694218302913">
        <ele>17.4</ele>
        <time>2020-07-19T10:36:27Z</time>
      </trkpt>
      <trkpt lat="51.370496199556" lon="4.694935877372">
        <ele>18.2</ele>
        <time>2020-07-19T10:36:37Z</time>
      </trkpt>
      <trkpt lat="51.370829044805" lon="4.695674155124">
        <ele>17.6</ele>
        <time>2020-07-19T10:36:48Z</time>
      </trkpt>
      <trkpt lat="51.371158956389" lon="4.696370355738">
        <ele>17.6</ele>
        <time>2020-07-19T10:36:57Z</time>
      </trkpt>
      <trkpt lat="51.371492723647" lon="4.697072758958">
        <ele>17.8</ele>
        <time>2020-07-19T10:37:06Z</time>
      </trkpt>
      <trkpt lat="51.371848367664" lon="4.697827213777">
        <ele>17.8</ele>
        <time>2020-07-19T10:37:16Z</time>
      </trkpt>
      <trkpt lat="51.37218984627" lon="4.698567419366">
        <ele>17.6</ele>
        <time>2020-07-19T10:37:26Z</time>
      </trkpt>
      <trkpt lat="51.372553285454" lon="4.699308463145">
        <ele>18.4</ele>
        <time>2020-07-19T10:37:36Z</time>
      </trkpt>
      <trkpt lat="51.372883532314" lon="4.700107593491">
        <ele>18.4</ele>
        <time>2020-07-19T10:37:47Z</time>
      </trkpt>
      <trkpt lat="51.373138174436" lon="4.700890043856">
        <ele>18.6</ele>
        <time>2020-07-19T10:37:57Z</time>
      </trkpt>
      <trkpt lat="51.37338845797" lon="4.70166838709">
        <ele>19.2</ele>
        <time>2020-07-19T10:38:07Z</time>
      </trkpt>
      <trkpt lat="51.37364242954" lon="4.702453603482">
        <ele>18.4</ele>
        <time>2020-07-19T10:38:18Z</time>
      </trkpt>
      <trkpt lat="51.373874691989" lon="4.703252650009">
        <ele>17.8</ele>
        <time>2020-07-19T10:38:30Z</time>
      </trkpt>
      <trkpt lat="51.373842505493" lon="4.7032349642">
        <ele>18.4</ele>
        <time>2020-07-19T10:38:33Z</time>
      </trkpt>
      <trkpt lat="51.373843678959" lon="4.703186852094">
        <ele>18.2</ele>
        <time>2020-07-19T10:38:34Z</time>
      </trkpt>
      <trkpt lat="51.374450612338" lon="4.702212875314">
        <ele>14.2</ele>
        <time>2020-07-19T10:38:52Z</time>
      </trkpt>
      <trkpt lat="51.374492270381" lon="4.702142215897">
        <ele>13.8</ele>
        <time>2020-07-19T10:38:53Z</time>
      </trkpt>
      <trkpt lat="51.374879346523" lon="4.701532684129">
        <ele>13.6</ele>
        <time>2020-07-19T10:39:02Z</time>
      </trkpt>
      <trkpt lat="51.375294585849" lon="4.700885098535">
        <ele>13</ele>
        <time>2020-07-19T10:39:12Z</time>
      </trkpt>
      <trkpt lat="51.375718458532" lon="4.700235333647">
        <ele>14.4</ele>
        <time>2020-07-19T10:39:24Z</time>
      </trkpt>
      <trkpt lat="51.376133194944" lon="4.69957291209">
        <ele>14.8</ele>
        <time>2020-07-19T10:39:35Z</time>
      </trkpt>
      <trkpt lat="51.376533849764" lon="4.698947873807">
        <ele>14</ele>
        <time>2020-07-19T10:39:45Z</time>
      </trkpt>
      <trkpt lat="51.37693819262" lon="4.698326020646">
        <ele>14</ele>
        <time>2020-07-19T10:39:55Z</time>
      </trkpt>
      <trkpt lat="51.377353180489" lon="4.697679524699">
        <ele>14.8</ele>
        <time>2020-07-19T10:40:06Z</time>
      </trkpt>
      <trkpt lat="51.37776716253" lon="4.697057587719">
        <ele>16.2</ele>
        <time>2020-07-19T10:40:17Z</time>
      </trkpt>
      <trkpt lat="51.378180725476" lon="4.696416456188">
        <ele>15.2</ele>
        <time>2020-07-19T10:40:28Z</time>
      </trkpt>
      <trkpt lat="51.378589259282" lon="4.695776498123">
        <ele>12.4</ele>
        <time>2020-07-19T10:40:38Z</time>
      </trkpt>
      <trkpt lat="51.378983962953" lon="4.695157830084">
        <ele>13.2</ele>
        <time>2020-07-19T10:40:48Z</time>
      </trkpt>
      <trkpt lat="51.379140872121" lon="4.69491006112">
        <ele>14.2</ele>
        <time>2020-07-19T10:40:52Z</time>
      </trkpt>
      <trkpt lat="51.379207424407" lon="4.694757845816">
        <ele>15</ele>
        <time>2020-07-19T10:40:54Z</time>
      </trkpt>
      <trkpt lat="51.379465838384" lon="4.693932396304">
        <ele>13.8</ele>
        <time>2020-07-19T10:41:04Z</time>
      </trkpt>
      <trkpt lat="51.379707740018" lon="4.693101666195">
        <ele>14.2</ele>
        <time>2020-07-19T10:41:14Z</time>
      </trkpt>
      <trkpt lat="51.37996070576" lon="4.692272696285">
        <ele>14.6</ele>
        <time>2020-07-19T10:41:25Z</time>
      </trkpt>
      <trkpt lat="51.380220377022" lon="4.69144749823">
        <ele>13.6</ele>
        <time>2020-07-19T10:41:36Z</time>
      </trkpt>
      <trkpt lat="51.380462613932" lon="4.69063529212">
        <ele>13.8</ele>
        <time>2020-07-19T10:41:46Z</time>
      </trkpt>
      <trkpt lat="51.380725386497" lon="4.689810345522">
        <ele>12.6</ele>
        <time>2020-07-19T10:41:57Z</time>
      </trkpt>
      <trkpt lat="51.380917332007" lon="4.689417737326">
        <ele>12.6</ele>
        <time>2020-07-19T10:42:03Z</time>
      </trkpt>
      <trkpt lat="51.381425694242" lon="4.689088077199">
        <ele>12.8</ele>
        <time>2020-07-19T10:42:15Z</time>
      </trkpt>
      <trkpt lat="51.381706236435" lon="4.688938544103">
        <ele>11</ele>
        <time>2020-07-19T10:42:21Z</time>
      </trkpt>
      <trkpt lat="51.382251730487" lon="4.688599496248">
        <ele>10</ele>
        <time>2020-07-19T10:42:32Z</time>
      </trkpt>
      <trkpt lat="51.382762355835" lon="4.688203954387">
        <ele>12</ele>
        <time>2020-07-19T10:42:43Z</time>
      </trkpt>
      <trkpt lat="51.383239788859" lon="4.687734400349">
        <ele>14.8</ele>
        <time>2020-07-19T10:42:54Z</time>
      </trkpt>
      <trkpt lat="51.383662571895" lon="4.687183709519">
        <ele>14.4</ele>
        <time>2020-07-19T10:43:04Z</time>
      </trkpt>
      <trkpt lat="51.384095664668" lon="4.686558671236">
        <ele>12</ele>
        <time>2020-07-19T10:43:14Z</time>
      </trkpt>
      <trkpt lat="51.384489865425" lon="4.685960622671">
        <ele>11.2</ele>
        <time>2020-07-19T10:43:24Z</time>
      </trkpt>
      <trkpt lat="51.384862859975" lon="4.685308259394">
        <ele>14.8</ele>
        <time>2020-07-19T10:43:34Z</time>
      </trkpt>
      <trkpt lat="51.384953552133" lon="4.684989160461">
        <ele>15.6</ele>
        <time>2020-07-19T10:43:38Z</time>
      </trkpt>
      <trkpt lat="51.385046591223" lon="4.684061032674">
        <ele>16.4</ele>
        <time>2020-07-19T10:43:48Z</time>
      </trkpt>
      <trkpt lat="51.385094954786" lon="4.6833614793">
        <ele>15</ele>
        <time>2020-07-19T10:43:56Z</time>
      </trkpt>
      <trkpt lat="51.385155136828" lon="4.683243545967">
        <ele>15.4</ele>
        <time>2020-07-19T10:43:58Z</time>
      </trkpt>
      <trkpt lat="51.38527399217" lon="4.683375896168">
        <ele>15.4</ele>
        <time>2020-07-19T10:44:01Z</time>
      </trkpt>
      <trkpt lat="51.385584206289" lon="4.684130770082">
        <ele>15.6</ele>
        <time>2020-07-19T10:44:11Z</time>
      </trkpt>
      <trkpt lat="51.385915961891" lon="4.68488027958">
        <ele>15.6</ele>
        <time>2020-07-19T10:44:21Z</time>
      </trkpt>
      <trkpt lat="51.385976227752" lon="4.685040876784">
        <ele>15.4</ele>
        <time>2020-07-19T10:44:23Z</time>
      </trkpt>
      <trkpt lat="51.386158534077" lon="4.685947966002">
        <ele>15.4</ele>
        <time>2020-07-19T10:44:33Z</time>
      </trkpt>
      <trkpt lat="51.386326004439" lon="4.686781126862">
        <ele>15.6</ele>
        <time>2020-07-19T10:44:42Z</time>
      </trkpt>
      <trkpt lat="51.386489786765" lon="4.687605570546">
        <ele>15.2</ele>
        <time>2020-07-19T10:44:51Z</time>
      </trkpt>
      <trkpt lat="51.386660777525" lon="4.688487346426">
        <ele>14</ele>
        <time>2020-07-19T10:45:01Z</time>
      </trkpt>
      <trkpt lat="51.386836545968" lon="4.689384293545">
        <ele>14.4</ele>
        <time>2020-07-19T10:45:11Z</time>
      </trkpt>
      <trkpt lat="51.386911899249" lon="4.690251736376">
        <ele>13.2</ele>
        <time>2020-07-19T10:45:20Z</time>
      </trkpt>
      <trkpt lat="51.386965878685" lon="4.691178606878">
        <ele>13.4</ele>
        <time>2020-07-19T10:45:30Z</time>
      </trkpt>
      <trkpt lat="51.387020696311" lon="4.692083181526">
        <ele>13</ele>
        <time>2020-07-19T10:45:41Z</time>
      </trkpt>
      <trkpt lat="51.38708029162" lon="4.692564302586">
        <ele>12.6</ele>
        <time>2020-07-19T10:45:47Z</time>
      </trkpt>
      <trkpt lat="51.387325210738" lon="4.693343148734">
        <ele>12</ele>
        <time>2020-07-19T10:45:57Z</time>
      </trkpt>
      <trkpt lat="51.387601897257" lon="4.694133310447">
        <ele>11.4</ele>
        <time>2020-07-19T10:46:06Z</time>
      </trkpt>
      <trkpt lat="51.387846145823" lon="4.694945097462">
        <ele>11.4</ele>
        <time>2020-07-19T10:46:15Z</time>
      </trkpt>
      <trkpt lat="51.387982016422" lon="4.695829723188">
        <ele>11.2</ele>
        <time>2020-07-19T10:46:24Z</time>
      </trkpt>
      <trkpt lat="51.3880961779" lon="4.696725413022">
        <ele>11</ele>
        <time>2020-07-19T10:46:33Z</time>
      </trkpt>
      <trkpt lat="51.388208998274" lon="4.697576511148">
        <ele>12.4</ele>
        <time>2020-07-19T10:46:42Z</time>
      </trkpt>
      <trkpt lat="51.388328440349" lon="4.698500364166">
        <ele>12.2</ele>
        <time>2020-07-19T10:46:52Z</time>
      </trkpt>
      <trkpt lat="51.388483170223" lon="4.699410554687">
        <ele>11.6</ele>
        <time>2020-07-19T10:47:03Z</time>
      </trkpt>
      <trkpt lat="51.388659190123" lon="4.700240362787">
        <ele>13.4</ele>
        <time>2020-07-19T10:47:14Z</time>
      </trkpt>
      <trkpt lat="51.388827247218" lon="4.70106321391">
        <ele>14.6</ele>
        <time>2020-07-19T10:47:26Z</time>
      </trkpt>
      <trkpt lat="51.388994885218" lon="4.701910121086">
        <ele>15.2</ele>
        <time>2020-07-19T10:47:37Z</time>
      </trkpt>
      <trkpt lat="51.389049451387" lon="4.702230980218">
        <ele>15.8</ele>
        <time>2020-07-19T10:47:41Z</time>
      </trkpt>
      <trkpt lat="51.389046852998" lon="4.702406497204">
        <ele>14.8</ele>
        <time>2020-07-19T10:47:43Z</time>
      </trkpt>
      <trkpt lat="51.388731274463" lon="4.703184002248">
        <ele>15.2</ele>
        <time>2020-07-19T10:47:53Z</time>
      </trkpt>
      <trkpt lat="51.388532120519" lon="4.703656825227">
        <ele>16.4</ele>
        <time>2020-07-19T10:47:59Z</time>
      </trkpt>
      <trkpt lat="51.388513261244" lon="4.703818009164">
        <ele>15.6</ele>
        <time>2020-07-19T10:48:01Z</time>
      </trkpt>
      <trkpt lat="51.388534215994" lon="4.703977097626">
        <ele>15.2</ele>
        <time>2020-07-19T10:48:03Z</time>
      </trkpt>
      <trkpt lat="51.388728005522" lon="4.704835739462">
        <ele>13.6</ele>
        <time>2020-07-19T10:48:14Z</time>
      </trkpt>
      <trkpt lat="51.388789444849" lon="4.70511418618">
        <ele>13.4</ele>
        <time>2020-07-19T10:48:18Z</time>
      </trkpt>
      <trkpt lat="51.3889008403" lon="4.705213260238">
        <ele>13.8</ele>
        <time>2020-07-19T10:48:21Z</time>
      </trkpt>
      <trkpt lat="51.389452201682" lon="4.704913188218">
        <ele>14.8</ele>
        <time>2020-07-19T10:48:31Z</time>
      </trkpt>
      <trkpt lat="51.389966095971" lon="4.7046431234">
        <ele>14.4</ele>
        <time>2020-07-19T10:48:40Z</time>
      </trkpt>
      <trkpt lat="51.390488791255" lon="4.704370544012">
        <ele>13.4</ele>
        <time>2020-07-19T10:48:49Z</time>
      </trkpt>
      <trkpt lat="51.391032692746" lon="4.704101065927">
        <ele>13.6</ele>
        <time>2020-07-19T10:48:58Z</time>
      </trkpt>
      <trkpt lat="51.39157131364" lon="4.703789762161">
        <ele>14.6</ele>
        <time>2020-07-19T10:49:09Z</time>
      </trkpt>
      <trkpt lat="51.392137427166" lon="4.70349647948">
        <ele>14</ele>
        <time>2020-07-19T10:49:20Z</time>
      </trkpt>
      <trkpt lat="51.392403552491" lon="4.703373852283">
        <ele>14</ele>
        <time>2020-07-19T10:49:25Z</time>
      </trkpt>
      <trkpt lat="51.392969749836" lon="4.70341517505">
        <ele>13.4</ele>
        <time>2020-07-19T10:49:35Z</time>
      </trkpt>
      <trkpt lat="51.393553297714" lon="4.703431771212">
        <ele>13</ele>
        <time>2020-07-19T10:49:46Z</time>
      </trkpt>
      <trkpt lat="51.394131062081" lon="4.703443422053">
        <ele>13.2</ele>
        <time>2020-07-19T10:49:56Z</time>
      </trkpt>
      <trkpt lat="51.394376819389" lon="4.703439231103">
        <ele>12.6</ele>
        <time>2020-07-19T10:50:00Z</time>
      </trkpt>
      <trkpt lat="51.394415711405" lon="4.705490784947">
        <ele>9.6</ele>
        <time>2020-07-19T10:50:38Z</time>
      </trkpt>
      <trkpt lat="51.394941507992" lon="4.705773422615">
        <ele>10.2</ele>
        <time>2020-07-19T10:50:47Z</time>
      </trkpt>
      <trkpt lat="51.395466885484" lon="4.706040302311">
        <ele>13</ele>
        <time>2020-07-19T10:50:55Z</time>
      </trkpt>
      <trkpt lat="51.395604851558" lon="4.706095287575">
        <ele>12.8</ele>
        <time>2020-07-19T10:50:57Z</time>
      </trkpt>
      <trkpt lat="51.395747343858" lon="4.706102496009">
        <ele>12.8</ele>
        <time>2020-07-19T10:50:59Z</time>
      </trkpt>
      <trkpt lat="51.396272469893" lon="4.705840980729">
        <ele>10.2</ele>
        <time>2020-07-19T10:51:08Z</time>
      </trkpt>
      <trkpt lat="51.396825004741" lon="4.705526910936">
        <ele>10.6</ele>
        <time>2020-07-19T10:51:18Z</time>
      </trkpt>
      <trkpt lat="51.397338479935" lon="4.705248799494">
        <ele>10.6</ele>
        <time>2020-07-19T10:51:27Z</time>
      </trkpt>
      <trkpt lat="51.397860923762" lon="4.704982087436">
        <ele>10.6</ele>
        <time>2020-07-19T10:51:36Z</time>
      </trkpt>
      <trkpt lat="51.398379260458" lon="4.704720320699">
        <ele>11</ele>
        <time>2020-07-19T10:51:45Z</time>
      </trkpt>
      <trkpt lat="51.398435503007" lon="4.704679249389">
        <ele>11</ele>
        <time>2020-07-19T10:51:46Z</time>
      </trkpt>
      <trkpt lat="51.39890212338" lon="4.704203325107">
        <ele>10.8</ele>
        <time>2020-07-19T10:51:55Z</time>
      </trkpt>
      <trkpt lat="51.399147461593" lon="4.703968212812">
        <ele>10.8</ele>
        <time>2020-07-19T10:52:00Z</time>
      </trkpt>
      <trkpt lat="51.399600419469" lon="4.70349145034">
        <ele>10.8</ele>
        <time>2020-07-19T10:52:09Z</time>
      </trkpt>
      <trkpt lat="51.400084138918" lon="4.7030254167">
        <ele>10</ele>
        <time>2020-07-19T10:52:18Z</time>
      </trkpt>
      <trkpt lat="51.400567774548" lon="4.70253507555">
        <ele>10</ele>
        <time>2020-07-19T10:52:27Z</time>
      </trkpt>
      <trkpt lat="51.401067754883" lon="4.702039118527">
        <ele>10</ele>
        <time>2020-07-19T10:52:37Z</time>
      </trkpt>
      <trkpt lat="51.401553737445" lon="4.701551291947">
        <ele>10</ele>
        <time>2020-07-19T10:52:47Z</time>
      </trkpt>
      <trkpt lat="51.401832854715" lon="4.701271671763">
        <ele>10.4</ele>
        <time>2020-07-19T10:52:53Z</time>
      </trkpt>
      <trkpt lat="51.402878999654" lon="4.700272046369">
        <ele>12.2</ele>
        <time>2020-07-19T11:00:30Z</time>
      </trkpt>
      <trkpt lat="51.402978325169" lon="4.700123519101">
        <ele>12</ele>
        <time>2020-07-19T11:00:33Z</time>
      </trkpt>
      <trkpt lat="51.403092654285" lon="4.700007848881">
        <ele>12</ele>
        <time>2020-07-19T11:00:36Z</time>
      </trkpt>
      <trkpt lat="51.403164235711" lon="4.699930148668">
        <ele>11.8</ele>
        <time>2020-07-19T11:00:38Z</time>
      </trkpt>
      <trkpt lat="51.403241349191" lon="4.699845826754">
        <ele>11.8</ele>
        <time>2020-07-19T11:00:40Z</time>
      </trkpt>
      <trkpt lat="51.403587437842" lon="4.699487919624">
        <ele>11.8</ele>
        <time>2020-07-19T11:00:50Z</time>
      </trkpt>
      <trkpt lat="51.403617361225" lon="4.699465037037">
        <ele>12</ele>
        <time>2020-07-19T11:02:29Z</time>
      </trkpt>
      <trkpt lat="51.403616774492" lon="4.699462773924">
        <ele>12</ele>
        <time>2020-07-19T11:02:30Z</time>
      </trkpt>
      <trkpt lat="51.403838056652" lon="4.699188685794">
        <ele>11.8</ele>
        <time>2020-07-19T11:03:41Z</time>
      </trkpt>
      <trkpt lat="51.404310544355" lon="4.698663895035">
        <ele>12.4</ele>
        <time>2020-07-19T11:03:53Z</time>
      </trkpt>
      <trkpt lat="51.404773392873" lon="4.698153772601">
        <ele>12</ele>
        <time>2020-07-19T11:04:04Z</time>
      </trkpt>
      <trkpt lat="51.405067178468" lon="4.697805756113">
        <ele>12</ele>
        <time>2020-07-19T11:04:10Z</time>
      </trkpt>
      <trkpt lat="51.405184860344" lon="4.697752950143">
        <ele>11.8</ele>
        <time>2020-07-19T11:04:12Z</time>
      </trkpt>
      <trkpt lat="51.405293657406" lon="4.697828973976">
        <ele>11.8</ele>
        <time>2020-07-19T11:04:14Z</time>
      </trkpt>
      <trkpt lat="51.405372698723" lon="4.697992169569">
        <ele>11.8</ele>
        <time>2020-07-19T11:04:16Z</time>
      </trkpt>
      <trkpt lat="51.405709315827" lon="4.698780068169">
        <ele>11.4</ele>
        <time>2020-07-19T11:04:25Z</time>
      </trkpt>
      <trkpt lat="51.405859435656" lon="4.699107213726">
        <ele>11.4</ele>
        <time>2020-07-19T11:04:29Z</time>
      </trkpt>
      <trkpt lat="51.406191526534" lon="4.699846832582">
        <ele>11.4</ele>
        <time>2020-07-19T11:04:38Z</time>
      </trkpt>
      <trkpt lat="51.406535268253" lon="4.700613692613">
        <ele>10.8</ele>
        <time>2020-07-19T11:04:47Z</time>
      </trkpt>
      <trkpt lat="51.406873394099" lon="4.701366471052">
        <ele>11.6</ele>
        <time>2020-07-19T11:04:56Z</time>
      </trkpt>
      <trkpt lat="51.407215627076" lon="4.70210089313">
        <ele>11.8</ele>
        <time>2020-07-19T11:05:05Z</time>
      </trkpt>
      <trkpt lat="51.407508574481" lon="4.702827939136">
        <ele>12.4</ele>
        <time>2020-07-19T11:05:14Z</time>
      </trkpt>
      <trkpt lat="51.407837731694" lon="4.703575101702">
        <ele>13.8</ele>
        <time>2020-07-19T11:05:24Z</time>
      </trkpt>
      <trkpt lat="51.408158590826" lon="4.704297118568">
        <ele>15</ele>
        <time>2020-07-19T11:05:33Z</time>
      </trkpt>
      <trkpt lat="51.408509792436" lon="4.705053082129">
        <ele>15.2</ele>
        <time>2020-07-19T11:05:42Z</time>
      </trkpt>
      <trkpt lat="51.408829226645" lon="4.705758083738">
        <ele>14.4</ele>
        <time>2020-07-19T11:05:51Z</time>
      </trkpt>
      <trkpt lat="51.409166849577" lon="4.70648546502">
        <ele>12.2</ele>
        <time>2020-07-19T11:06:00Z</time>
      </trkpt>
      <trkpt lat="51.409382767321" lon="4.707283840995">
        <ele>10.2</ele>
        <time>2020-07-19T11:06:09Z</time>
      </trkpt>
      <trkpt lat="51.409560463601" lon="4.708183051227">
        <ele>13.4</ele>
        <time>2020-07-19T11:06:19Z</time>
      </trkpt>
      <trkpt lat="51.4097717713" lon="4.709078992518">
        <ele>14.6</ele>
        <time>2020-07-19T11:06:29Z</time>
      </trkpt>
      <trkpt lat="51.409980229153" lon="4.709910057903">
        <ele>14.4</ele>
        <time>2020-07-19T11:06:38Z</time>
      </trkpt>
      <trkpt lat="51.410177287622" lon="4.710800718597">
        <ele>14.2</ele>
        <time>2020-07-19T11:06:48Z</time>
      </trkpt>
      <trkpt lat="51.410341656681" lon="4.711492644442">
        <ele>12.6</ele>
        <time>2020-07-19T11:06:56Z</time>
      </trkpt>
      <trkpt lat="51.410458081272" lon="4.711590628853">
        <ele>10.4</ele>
        <time>2020-07-19T11:07:00Z</time>
      </trkpt>
      <trkpt lat="51.410749436116" lon="4.710863666666">
        <ele>9.6</ele>
        <time>2020-07-19T11:07:09Z</time>
      </trkpt>
      <trkpt lat="51.411049843412" lon="4.710060848284">
        <ele>10</ele>
        <time>2020-07-19T11:07:19Z</time>
      </trkpt>
      <trkpt lat="51.411229718986" lon="4.709537985362">
        <ele>8.4</ele>
        <time>2020-07-19T11:07:26Z</time>
      </trkpt>
      <trkpt lat="51.411267772812" lon="4.709392559397">
        <ele>7.8</ele>
        <time>2020-07-19T11:07:28Z</time>
      </trkpt>
      <trkpt lat="51.411349580156" lon="4.709350817535">
        <ele>7</ele>
        <time>2020-07-19T11:07:30Z</time>
      </trkpt>
      <trkpt lat="51.411429627301" lon="4.709443940444">
        <ele>7.4</ele>
        <time>2020-07-19T11:07:32Z</time>
      </trkpt>
      <trkpt lat="51.411462232892" lon="4.709615601756">
        <ele>7</ele>
        <time>2020-07-19T11:07:34Z</time>
      </trkpt>
      <trkpt lat="51.411632720738" lon="4.710525708458">
        <ele>8.6</ele>
        <time>2020-07-19T11:07:44Z</time>
      </trkpt>
      <trkpt lat="51.411826258809" lon="4.711431205115">
        <ele>12.2</ele>
        <time>2020-07-19T11:07:54Z</time>
      </trkpt>
      <trkpt lat="51.412002613985" lon="4.71229495991">
        <ele>12.4</ele>
        <time>2020-07-19T11:08:04Z</time>
      </trkpt>
      <trkpt lat="51.412185339405" lon="4.713163576207">
        <ele>11.8</ele>
        <time>2020-07-19T11:08:14Z</time>
      </trkpt>
      <trkpt lat="51.412372591051" lon="4.714026744269">
        <ele>10.4</ele>
        <time>2020-07-19T11:08:24Z</time>
      </trkpt>
      <trkpt lat="51.412570320072" lon="4.714849846849">
        <ele>11.4</ele>
        <time>2020-07-19T11:08:33Z</time>
      </trkpt>
      <trkpt lat="51.41270459811" lon="4.715764060682">
        <ele>13.2</ele>
        <time>2020-07-19T11:08:43Z</time>
      </trkpt>
      <trkpt lat="51.412792188965" lon="4.716626558192">
        <ele>12.6</ele>
        <time>2020-07-19T11:08:53Z</time>
      </trkpt>
      <trkpt lat="51.412895286335" lon="4.717524594958">
        <ele>9.6</ele>
        <time>2020-07-19T11:09:03Z</time>
      </trkpt>
      <trkpt lat="51.41301975755" lon="4.718394887635">
        <ele>9.6</ele>
        <time>2020-07-19T11:09:13Z</time>
      </trkpt>
      <trkpt lat="51.413147413887" lon="4.719309185287">
        <ele>9.8</ele>
        <time>2020-07-19T11:09:23Z</time>
      </trkpt>
      <trkpt lat="51.413157472167" lon="4.719501382254">
        <ele>9.8</ele>
        <time>2020-07-19T11:09:25Z</time>
      </trkpt>
      <trkpt lat="51.413137439426" lon="4.719694920325">
        <ele>9.6</ele>
        <time>2020-07-19T11:09:27Z</time>
      </trkpt>
      <trkpt lat="51.413010286003" lon="4.720582479716">
        <ele>9.6</ele>
        <time>2020-07-19T11:09:36Z</time>
      </trkpt>
      <trkpt lat="51.412921437863" lon="4.721059661283">
        <ele>10</ele>
        <time>2020-07-19T11:09:41Z</time>
      </trkpt>
      <trkpt lat="51.412626478802" lon="4.721727363437">
        <ele>8.8</ele>
        <time>2020-07-19T11:09:50Z</time>
      </trkpt>
      <trkpt lat="51.412594292306" lon="4.721895336713">
        <ele>8.4</ele>
        <time>2020-07-19T11:09:52Z</time>
      </trkpt>
      <trkpt lat="51.412585910406" lon="4.722796558601">
        <ele>9.8</ele>
        <time>2020-07-19T11:10:02Z</time>
      </trkpt>
      <trkpt lat="51.412592364469" lon="4.723703647819">
        <ele>12</ele>
        <time>2020-07-19T11:10:12Z</time>
      </trkpt>
      <trkpt lat="51.412576271221" lon="4.724630685959">
        <ele>13</ele>
        <time>2020-07-19T11:10:23Z</time>
      </trkpt>
      <trkpt lat="51.412586832415" lon="4.725199816969">
        <ele>12.2</ele>
        <time>2020-07-19T11:10:30Z</time>
      </trkpt>
      <trkpt lat="51.412631088847" lon="4.725317582664">
        <ele>11</ele>
        <time>2020-07-19T11:10:32Z</time>
      </trkpt>
      <trkpt lat="51.412722703014" lon="4.725375920688">
        <ele>10.6</ele>
        <time>2020-07-19T11:10:34Z</time>
      </trkpt>
      <trkpt lat="51.413315135706" lon="4.72540089875">
        <ele>9.4</ele>
        <time>2020-07-19T11:10:44Z</time>
      </trkpt>
      <trkpt lat="51.413887200381" lon="4.725335184654">
        <ele>8.8</ele>
        <time>2020-07-19T11:10:54Z</time>
      </trkpt>
      <trkpt lat="51.414428000569" lon="4.725284557978">
        <ele>9.2</ele>
        <time>2020-07-19T11:11:03Z</time>
      </trkpt>
      <trkpt lat="51.414978775218" lon="4.725231835827">
        <ele>9.2</ele>
        <time>2020-07-19T11:11:13Z</time>
      </trkpt>
      <trkpt lat="51.415547487133" lon="4.725189507232">
        <ele>9.4</ele>
        <time>2020-07-19T11:11:23Z</time>
      </trkpt>
      <trkpt lat="51.415767847284" lon="4.725174168355">
        <ele>9.4</ele>
        <time>2020-07-19T11:11:27Z</time>
      </trkpt>
      <trkpt lat="51.415853929397" lon="4.725273074775">
        <ele>9.8</ele>
        <time>2020-07-19T11:11:29Z</time>
      </trkpt>
      <trkpt lat="51.415887121721" lon="4.7254302354">
        <ele>9.8</ele>
        <time>2020-07-19T11:11:31Z</time>
      </trkpt>
      <trkpt lat="51.416008072538" lon="4.726298097326">
        <ele>10</ele>
        <time>2020-07-19T11:11:41Z</time>
      </trkpt>
      <trkpt lat="51.416133214305" lon="4.727231589529">
        <ele>11</ele>
        <time>2020-07-19T11:11:51Z</time>
      </trkpt>
      <trkpt lat="51.416303450694" lon="4.728058883059">
        <ele>11.2</ele>
        <time>2020-07-19T11:12:00Z</time>
      </trkpt>
      <trkpt lat="51.41657284496" lon="4.728890618996">
        <ele>11.2</ele>
        <time>2020-07-19T11:12:09Z</time>
      </trkpt>
      <trkpt lat="51.41685028585" lon="4.729663513995">
        <ele>11.2</ele>
        <time>2020-07-19T11:12:17Z</time>
      </trkpt>
      <trkpt lat="51.417019348773" lon="4.730572447231">
        <ele>11.8</ele>
        <time>2020-07-19T11:12:26Z</time>
      </trkpt>
      <trkpt lat="51.417119763935" lon="4.731476016051">
        <ele>11.6</ele>
        <time>2020-07-19T11:12:36Z</time>
      </trkpt>
      <trkpt lat="51.417499212548" lon="4.732045649975">
        <ele>11</ele>
        <time>2020-07-19T11:12:48Z</time>
      </trkpt>
      <trkpt lat="51.417998354693" lon="4.732449489917">
        <ele>11</ele>
        <time>2020-07-19T11:12:57Z</time>
      </trkpt>
      <trkpt lat="51.418492551517" lon="4.732887947106">
        <ele>10.8</ele>
        <time>2020-07-19T11:13:06Z</time>
      </trkpt>
      <trkpt lat="51.418991609843" lon="4.733342832819">
        <ele>10.2</ele>
        <time>2020-07-19T11:13:16Z</time>
      </trkpt>
      <trkpt lat="51.419484968477" lon="4.733786654424">
        <ele>10.8</ele>
        <time>2020-07-19T11:13:26Z</time>
      </trkpt>
      <trkpt lat="51.41962301837" lon="4.733885644663">
        <ele>10.4</ele>
        <time>2020-07-19T11:13:29Z</time>
      </trkpt>
      <trkpt lat="51.419727289206" lon="4.733871311614">
        <ele>10</ele>
        <time>2020-07-19T11:13:31Z</time>
      </trkpt>
      <trkpt lat="51.419976399274" lon="4.733734854282">
        <ele>9.6</ele>
        <time>2020-07-19T11:13:36Z</time>
      </trkpt>
      <trkpt lat="51.420041778094" lon="4.733789336632">
        <ele>10</ele>
        <time>2020-07-19T11:13:38Z</time>
      </trkpt>
      <trkpt lat="51.420105312896" lon="4.734678404765">
        <ele>9.6</ele>
        <time>2020-07-19T11:13:50Z</time>
      </trkpt>
      <trkpt lat="51.420116963737" lon="4.734753925684">
        <ele>9.6</ele>
        <time>2020-07-19T11:13:51Z</time>
      </trkpt>
      <trkpt lat="51.420215199605" lon="4.735302856315">
        <ele>9.4</ele>
        <time>2020-07-19T11:13:59Z</time>
      </trkpt>
      <trkpt lat="51.420421561983" lon="4.736379092275">
        <ele>12.8</ele>
        <time>2020-07-19T12:46:52Z</time>
      </trkpt>
      <trkpt lat="51.42053245452" lon="4.736926597983">
        <ele>12.6</ele>
        <time>2020-07-19T12:47:01Z</time>
      </trkpt>
      <trkpt lat="51.420540584963" lon="4.737357092367">
        <ele>12.6</ele>
        <time>2020-07-19T12:47:06Z</time>
      </trkpt>
      <trkpt lat="51.420439163973" lon="4.738032673507">
        <ele>13.2</ele>
        <time>2020-07-19T12:47:15Z</time>
      </trkpt>
      <trkpt lat="51.420517702376" lon="4.73820928014">
        <ele>11</ele>
        <time>2020-07-19T12:47:18Z</time>
      </trkpt>
      <trkpt lat="51.420848200693" lon="4.738461491511">
        <ele>10.4</ele>
        <time>2020-07-19T12:47:27Z</time>
      </trkpt>
      <trkpt lat="51.420963954732" lon="4.738605241096">
        <ele>10.8</ele>
        <time>2020-07-19T12:47:30Z</time>
      </trkpt>
      <trkpt lat="51.421107620498" lon="4.738841778314">
        <ele>10</ele>
        <time>2020-07-19T12:47:34Z</time>
      </trkpt>
      <trkpt lat="51.42146033085" lon="4.739568572863">
        <ele>10</ele>
        <time>2020-07-19T12:47:44Z</time>
      </trkpt>
      <trkpt lat="51.421820668731" lon="4.740254547559">
        <ele>9.6</ele>
        <time>2020-07-19T12:47:54Z</time>
      </trkpt>
      <trkpt lat="51.422205649398" lon="4.74097279257">
        <ele>9.6</ele>
        <time>2020-07-19T12:48:04Z</time>
      </trkpt>
      <trkpt lat="51.422561544872" lon="4.741665808062">
        <ele>9.6</ele>
        <time>2020-07-19T12:48:13Z</time>
      </trkpt>
      <trkpt lat="51.422911740654" lon="4.742354213509">
        <ele>9.2</ele>
        <time>2020-07-19T12:48:22Z</time>
      </trkpt>
      <trkpt lat="51.423432927196" lon="4.743332716515">
        <ele>9.4</ele>
        <time>2020-07-19T12:48:36Z</time>
      </trkpt>
      <trkpt lat="51.423827127953" lon="4.743930597442">
        <ele>9.4</ele>
        <time>2020-07-19T12:48:45Z</time>
      </trkpt>
      <trkpt lat="51.424258795803" lon="4.744579021226">
        <ele>9</ele>
        <time>2020-07-19T12:48:55Z</time>
      </trkpt>
      <trkpt lat="51.42466221665" lon="4.745182937121">
        <ele>9.2</ele>
        <time>2020-07-19T12:49:04Z</time>
      </trkpt>
      <trkpt lat="51.425073097388" lon="4.745804455006">
        <ele>9.2</ele>
        <time>2020-07-19T12:49:13Z</time>
      </trkpt>
      <trkpt lat="51.425528569834" lon="4.746335867466">
        <ele>9</ele>
        <time>2020-07-19T12:49:22Z</time>
      </trkpt>
      <trkpt lat="51.42568732302" lon="4.74645287879">
        <ele>8.8</ele>
        <time>2020-07-19T12:49:25Z</time>
      </trkpt>
      <trkpt lat="51.425775835884" lon="4.746566453535">
        <ele>8.4</ele>
        <time>2020-07-19T12:49:27Z</time>
      </trkpt>
      <trkpt lat="51.425871305725" lon="4.746615152374">
        <ele>8</ele>
        <time>2020-07-19T12:49:29Z</time>
      </trkpt>
      <trkpt lat="51.425950849956" lon="4.746558574549">
        <ele>7.6</ele>
        <time>2020-07-19T12:49:31Z</time>
      </trkpt>
      <trkpt lat="51.426357958839" lon="4.745949713333">
        <ele>9.2</ele>
        <time>2020-07-19T12:49:41Z</time>
      </trkpt>
      <trkpt lat="51.426405148936" lon="4.745894811888">
        <ele>9.2</ele>
        <time>2020-07-19T12:49:42Z</time>
      </trkpt>
      <trkpt lat="51.426507240478" lon="4.745829181611">
        <ele>9</ele>
        <time>2020-07-19T12:49:44Z</time>
      </trkpt>
      <trkpt lat="51.42661268478" lon="4.745851645103">
        <ele>8.6</ele>
        <time>2020-07-19T12:49:46Z</time>
      </trkpt>
      <trkpt lat="51.427167734198" lon="4.746109556166">
        <ele>7.6</ele>
        <time>2020-07-19T12:49:57Z</time>
      </trkpt>
      <trkpt lat="51.427706941825" lon="4.746349110868">
        <ele>6.8</ele>
        <time>2020-07-19T12:50:07Z</time>
      </trkpt>
      <trkpt lat="51.428240114484" lon="4.746587575923">
        <ele>6</ele>
        <time>2020-07-19T12:50:16Z</time>
      </trkpt>
      <trkpt lat="51.428816370109" lon="4.746830986299">
        <ele>5.6</ele>
        <time>2020-07-19T12:50:25Z</time>
      </trkpt>
      <trkpt lat="51.42935608065" lon="4.747055285943">
        <ele>6.4</ele>
        <time>2020-07-19T12:50:34Z</time>
      </trkpt>
      <trkpt lat="51.429908531679" lon="4.747284195632">
        <ele>6.8</ele>
        <time>2020-07-19T12:50:44Z</time>
      </trkpt>
      <trkpt lat="51.430453606636" lon="4.747404308259">
        <ele>7.4</ele>
        <time>2020-07-19T12:50:53Z</time>
      </trkpt>
      <trkpt lat="51.430992562806" lon="4.747544621265">
        <ele>7</ele>
        <time>2020-07-19T12:51:03Z</time>
      </trkpt>
      <trkpt lat="51.4315479475" lon="4.747594242113">
        <ele>5.6</ele>
        <time>2020-07-19T12:51:13Z</time>
      </trkpt>
      <trkpt lat="51.432111043542" lon="4.747379497835">
        <ele>6.6</ele>
        <time>2020-07-19T12:51:23Z</time>
      </trkpt>
      <trkpt lat="51.432666595874" lon="4.747114713614">
        <ele>7</ele>
        <time>2020-07-19T12:51:32Z</time>
      </trkpt>
      <trkpt lat="51.433200439085" lon="4.746853952705">
        <ele>7.8</ele>
        <time>2020-07-19T12:51:41Z</time>
      </trkpt>
      <trkpt lat="51.433387103998" lon="4.746781616908">
        <ele>8</ele>
        <time>2020-07-19T12:51:44Z</time>
      </trkpt>
      <trkpt lat="51.43350428296" lon="4.746831070118">
        <ele>7</ele>
        <time>2020-07-19T12:51:46Z</time>
      </trkpt>
      <trkpt lat="51.434028738443" lon="4.747273885895">
        <ele>5.8</ele>
        <time>2020-07-19T12:51:55Z</time>
      </trkpt>
      <trkpt lat="51.4345151401" lon="4.747660962037">
        <ele>9.2</ele>
        <time>2020-07-19T12:52:04Z</time>
      </trkpt>
      <trkpt lat="51.434713288216" lon="4.747831366064">
        <ele>10</ele>
        <time>2020-07-19T12:52:09Z</time>
      </trkpt>
      <trkpt lat="51.43514126803" lon="4.74838993588">
        <ele>8.4</ele>
        <time>2020-07-19T12:52:19Z</time>
      </trkpt>
      <trkpt lat="51.435614426285" lon="4.748964515125">
        <ele>7.2</ele>
        <time>2020-07-19T12:52:29Z</time>
      </trkpt>
      <trkpt lat="51.436056906786" lon="4.749487378047">
        <ele>6.2</ele>
        <time>2020-07-19T12:52:37Z</time>
      </trkpt>
      <trkpt lat="51.436535932371" lon="4.749926421969">
        <ele>5.4</ele>
        <time>2020-07-19T12:52:45Z</time>
      </trkpt>
      <trkpt lat="51.437054771981" lon="4.750274019362">
        <ele>2.8</ele>
        <time>2020-07-19T12:52:53Z</time>
      </trkpt>
      <trkpt lat="51.437513848644" lon="4.750740388278">
        <ele>1.4</ele>
        <time>2020-07-19T12:53:01Z</time>
      </trkpt>
      <trkpt lat="51.437629351226" lon="4.750848514788">
        <ele>2</ele>
        <time>2020-07-19T12:53:03Z</time>
      </trkpt>
      <trkpt lat="51.437756756106" lon="4.75087265466">
        <ele>2.4</ele>
        <time>2020-07-19T12:53:05Z</time>
      </trkpt>
      <trkpt lat="51.437889609221" lon="4.750835941938">
        <ele>3.6</ele>
        <time>2020-07-19T12:53:07Z</time>
      </trkpt>
      <trkpt lat="51.438384644235" lon="4.750493122228">
        <ele>6.8</ele>
        <time>2020-07-19T12:53:15Z</time>
      </trkpt>
      <trkpt lat="51.438886468588" lon="4.750107303371">
        <ele>5</ele>
        <time>2020-07-19T12:53:24Z</time>
      </trkpt>
      <trkpt lat="51.439433387563" lon="4.749714778994">
        <ele>4.8</ele>
        <time>2020-07-19T12:53:34Z</time>
      </trkpt>
      <trkpt lat="51.439924399265" lon="4.749320410599">
        <ele>2.8</ele>
        <time>2020-07-19T12:53:43Z</time>
      </trkpt>
      <trkpt lat="51.440395964959" lon="4.748848090534">
        <ele>4.2</ele>
        <time>2020-07-19T12:53:52Z</time>
      </trkpt>
      <trkpt lat="51.440857304735" lon="4.748360683049">
        <ele>5.6</ele>
        <time>2020-07-19T12:54:02Z</time>
      </trkpt>
      <trkpt lat="51.44126927512" lon="4.747728520151">
        <ele>4.6</ele>
        <time>2020-07-19T12:54:13Z</time>
      </trkpt>
      <trkpt lat="51.441733045647" lon="4.747177745502">
        <ele>5</ele>
        <time>2020-07-19T12:54:24Z</time>
      </trkpt>
      <trkpt lat="51.442202096771" lon="4.746681034108">
        <ele>5</ele>
        <time>2020-07-19T12:54:35Z</time>
      </trkpt>
      <trkpt lat="51.442652623896" lon="4.74619890722">
        <ele>5.2</ele>
        <time>2020-07-19T12:54:45Z</time>
      </trkpt>
      <trkpt lat="51.443128296721" lon="4.745699178342">
        <ele>7.4</ele>
        <time>2020-07-19T12:54:55Z</time>
      </trkpt>
      <trkpt lat="51.443578153294" lon="4.745202550767">
        <ele>6.4</ele>
        <time>2020-07-19T12:55:05Z</time>
      </trkpt>
      <trkpt lat="51.444018622139" lon="4.74475219128">
        <ele>6.6</ele>
        <time>2020-07-19T12:55:15Z</time>
      </trkpt>
      <trkpt lat="51.444114343437" lon="4.744746156312">
        <ele>6.2</ele>
        <time>2020-07-19T12:55:17Z</time>
      </trkpt>
      <trkpt lat="51.44420042555" lon="4.744873896468">
        <ele>6</ele>
        <time>2020-07-19T12:55:19Z</time>
      </trkpt>
      <trkpt lat="51.444478453173" lon="4.74562055612">
        <ele>4.4</ele>
        <time>2020-07-19T12:55:27Z</time>
      </trkpt>
      <trkpt lat="51.444809705861" lon="4.746323210797">
        <ele>3.4</ele>
        <time>2020-07-19T12:55:35Z</time>
      </trkpt>
      <trkpt lat="51.444939038578" lon="4.74656351987">
        <ele>3.4</ele>
        <time>2020-07-19T12:55:38Z</time>
      </trkpt>
      <trkpt lat="51.445069041847" lon="4.746923690113">
        <ele>3.6</ele>
        <time>2020-07-19T12:55:42Z</time>
      </trkpt>
      <trkpt lat="51.445205499179" lon="4.747525510533">
        <ele>4</ele>
        <time>2020-07-19T12:55:49Z</time>
      </trkpt>
      <trkpt lat="51.445243720643" lon="4.748425391317">
        <ele>5</ele>
        <time>2020-07-19T12:55:59Z</time>
      </trkpt>
      <trkpt lat="51.445334580439" lon="4.749319907685">
        <ele>5.2</ele>
        <time>2020-07-19T12:56:08Z</time>
      </trkpt>
      <trkpt lat="51.445376909034" lon="4.749620147343">
        <ele>5</ele>
        <time>2020-07-19T12:56:11Z</time>
      </trkpt>
      <trkpt lat="51.445452932867" lon="4.74990119245">
        <ele>5</ele>
        <time>2020-07-19T12:56:14Z</time>
      </trkpt>
      <trkpt lat="51.445534572573" lon="4.75005793398">
        <ele>5</ele>
        <time>2020-07-19T12:56:16Z</time>
      </trkpt>
      <trkpt lat="51.445635825925" lon="4.750185171222">
        <ele>4.8</ele>
        <time>2020-07-19T12:56:18Z</time>
      </trkpt>
      <trkpt lat="51.445750406498" lon="4.750279467597">
        <ele>4.8</ele>
        <time>2020-07-19T12:56:20Z</time>
      </trkpt>
      <trkpt lat="51.446334708747" lon="4.750384492804">
        <ele>4</ele>
        <time>2020-07-19T12:56:30Z</time>
      </trkpt>
      <trkpt lat="51.44649371339" lon="4.750413829454">
        <ele>3.6</ele>
        <time>2020-07-19T12:56:33Z</time>
      </trkpt>
      <trkpt lat="51.446590021421" lon="4.750493289866">
        <ele>3.2</ele>
        <time>2020-07-19T12:56:35Z</time>
      </trkpt>
      <trkpt lat="51.446670068566" lon="4.750584820214">
        <ele>3</ele>
        <time>2020-07-19T12:56:37Z</time>
      </trkpt>
      <trkpt lat="51.447112549067" lon="4.751224107727">
        <ele>3.2</ele>
        <time>2020-07-19T12:56:47Z</time>
      </trkpt>
      <trkpt lat="51.447527620755" lon="4.751823832672">
        <ele>3</ele>
        <time>2020-07-19T12:56:56Z</time>
      </trkpt>
      <trkpt lat="51.447954259465" lon="4.752445015281">
        <ele>2.4</ele>
        <time>2020-07-19T12:57:05Z</time>
      </trkpt>
      <trkpt lat="51.448365978393" lon="4.753027473512">
        <ele>3</ele>
        <time>2020-07-19T12:57:14Z</time>
      </trkpt>
      <trkpt lat="51.448735955459" lon="4.753684195377">
        <ele>1.4</ele>
        <time>2020-07-19T12:57:23Z</time>
      </trkpt>
      <trkpt lat="51.449117667185" lon="4.754351562255">
        <ele>2.4</ele>
        <time>2020-07-19T12:57:32Z</time>
      </trkpt>
      <trkpt lat="51.449539612031" lon="4.7550015786">
        <ele>2.4</ele>
        <time>2020-07-19T12:57:41Z</time>
      </trkpt>
      <trkpt lat="51.449968513854" lon="4.755672465876">
        <ele>2.4</ele>
        <time>2020-07-19T12:57:50Z</time>
      </trkpt>
      <trkpt lat="51.45003506614" lon="4.755841528799">
        <ele>2.4</ele>
        <time>2020-07-19T12:57:52Z</time>
      </trkpt>
      <trkpt lat="51.450248636952" lon="4.756673432374">
        <ele>2.8</ele>
        <time>2020-07-19T12:58:01Z</time>
      </trkpt>
      <trkpt lat="51.450406132853" lon="4.757302074874">
        <ele>2.8</ele>
        <time>2020-07-19T12:58:08Z</time>
      </trkpt>
      <trkpt lat="51.450487772559" lon="4.757389162815">
        <ele>3</ele>
        <time>2020-07-19T12:58:10Z</time>
      </trkpt>
      <trkpt lat="51.450580644011" lon="4.757357479233">
        <ele>2.8</ele>
        <time>2020-07-19T12:58:12Z</time>
      </trkpt>
      <trkpt lat="51.451066542754" lon="4.756935869663">
        <ele>2.6</ele>
        <time>2020-07-19T12:58:21Z</time>
      </trkpt>
      <trkpt lat="51.451569121478" lon="4.756485510176">
        <ele>3</ele>
        <time>2020-07-19T12:58:30Z</time>
      </trkpt>
      <trkpt lat="51.452093157866" lon="4.756030624463">
        <ele>4.6</ele>
        <time>2020-07-19T12:58:40Z</time>
      </trkpt>
      <trkpt lat="51.452139677411" lon="4.755978405226">
        <ele>4.6</ele>
        <time>2020-07-19T12:58:41Z</time>
      </trkpt>
      <trkpt lat="51.452208660448" lon="4.755849072509">
        <ele>4.6</ele>
        <time>2020-07-19T12:58:43Z</time>
      </trkpt>
      <trkpt lat="51.452260544409" lon="4.755717309041">
        <ele>5</ele>
        <time>2020-07-19T12:58:45Z</time>
      </trkpt>
      <trkpt lat="51.452320474994" lon="4.755665676537">
        <ele>4.8</ele>
        <time>2020-07-19T12:58:47Z</time>
      </trkpt>
      <trkpt lat="51.452519964214" lon="4.756534879567">
        <ele>4.2</ele>
        <time>2020-07-19T12:59:02Z</time>
      </trkpt>
      <trkpt lat="51.452822466985" lon="4.757300482313">
        <ele>5.2</ele>
        <time>2020-07-19T12:59:11Z</time>
      </trkpt>
      <trkpt lat="51.453142404108" lon="4.758086285438">
        <ele>5</ele>
        <time>2020-07-19T12:59:20Z</time>
      </trkpt>
      <trkpt lat="51.453460497213" lon="4.758878710264">
        <ele>5</ele>
        <time>2020-07-19T12:59:29Z</time>
      </trkpt>
      <trkpt lat="51.453791246987" lon="4.759680941913">
        <ele>5</ele>
        <time>2020-07-19T12:59:39Z</time>
      </trkpt>
      <trkpt lat="51.454110094463" lon="4.760437995121">
        <ele>4.8</ele>
        <time>2020-07-19T12:59:48Z</time>
      </trkpt>
      <trkpt lat="51.45441125613" lon="4.761160933996">
        <ele>4</ele>
        <time>2020-07-19T12:59:57Z</time>
      </trkpt>
      <trkpt lat="51.454725745018" lon="4.761936092108">
        <ele>3.4</ele>
        <time>2020-07-19T13:00:06Z</time>
      </trkpt>
      <trkpt lat="51.455040066268" lon="4.762728684572">
        <ele>4</ele>
        <time>2020-07-19T13:00:15Z</time>
      </trkpt>
      <trkpt lat="51.455332929854" lon="4.763497723897">
        <ele>3</ele>
        <time>2020-07-19T13:00:24Z</time>
      </trkpt>
      <trkpt lat="51.455603581405" lon="4.764333399327">
        <ele>2.8</ele>
        <time>2020-07-19T13:00:33Z</time>
      </trkpt>
      <trkpt lat="51.455809943783" lon="4.765196567389">
        <ele>2.6</ele>
        <time>2020-07-19T13:00:42Z</time>
      </trkpt>
      <trkpt lat="51.455985125493" lon="4.765948256181">
        <ele>2.4</ele>
        <time>2020-07-19T13:00:50Z</time>
      </trkpt>
      <trkpt lat="51.456331465601" lon="4.767349709861">
        <ele>5</ele>
        <time>2020-07-19T13:01:06Z</time>
      </trkpt>
      <trkpt lat="51.4565260095" lon="4.768240370555">
        <ele>4.8</ele>
        <time>2020-07-19T13:01:16Z</time>
      </trkpt>
      <trkpt lat="51.456725666358" lon="4.769135054561">
        <ele>5.8</ele>
        <time>2020-07-19T13:01:27Z</time>
      </trkpt>
      <trkpt lat="51.456919036791" lon="4.769996630062">
        <ele>5.8</ele>
        <time>2020-07-19T13:01:36Z</time>
      </trkpt>
      <trkpt lat="51.457124225703" lon="4.770900031244">
        <ele>5.8</ele>
        <time>2020-07-19T13:01:45Z</time>
      </trkpt>
      <trkpt lat="51.457325894217" lon="4.771768479903">
        <ele>5.4</ele>
        <time>2020-07-19T13:01:54Z</time>
      </trkpt>
      <trkpt lat="51.457528233283" lon="4.772650591059">
        <ele>4.4</ele>
        <time>2020-07-19T13:02:03Z</time>
      </trkpt>
      <trkpt lat="51.45770953378" lon="4.773476627304">
        <ele>4.2</ele>
        <time>2020-07-19T13:02:11Z</time>
      </trkpt>
      <trkpt lat="51.457911956665" lon="4.774384806169">
        <ele>3.8</ele>
        <time>2020-07-19T13:02:20Z</time>
      </trkpt>
      <trkpt lat="51.458100549415" lon="4.775197850469">
        <ele>5.6</ele>
        <time>2020-07-19T13:02:28Z</time>
      </trkpt>
      <trkpt lat="51.458292997839" lon="4.776016175366">
        <ele>4.8</ele>
        <time>2020-07-19T13:02:36Z</time>
      </trkpt>
      <trkpt lat="51.458628357658" lon="4.776767193606">
        <ele>5</ele>
        <time>2020-07-19T13:02:45Z</time>
      </trkpt>
      <trkpt lat="51.458981654743" lon="4.777529192135">
        <ele>5</ele>
        <time>2020-07-19T13:02:54Z</time>
      </trkpt>
      <trkpt lat="51.459305028445" lon="4.778259758539">
        <ele>4.6</ele>
        <time>2020-07-19T13:03:03Z</time>
      </trkpt>
      <trkpt lat="51.459628485966" lon="4.778961742664">
        <ele>4</ele>
        <time>2020-07-19T13:03:12Z</time>
      </trkpt>
      <trkpt lat="51.459987985657" lon="4.779738577156">
        <ele>3.8</ele>
        <time>2020-07-19T13:03:21Z</time>
      </trkpt>
      <trkpt lat="51.460104410248" lon="4.780014341666">
        <ele>3.8</ele>
        <time>2020-07-19T13:03:24Z</time>
      </trkpt>
      <trkpt lat="51.460290991342" lon="4.780829816717">
        <ele>4.2</ele>
        <time>2020-07-19T13:03:32Z</time>
      </trkpt>
      <trkpt lat="51.460474052038" lon="4.781647051967">
        <ele>4.4</ele>
        <time>2020-07-19T13:03:40Z</time>
      </trkpt>
      <trkpt lat="51.460662980064" lon="4.782499407378">
        <ele>4.8</ele>
        <time>2020-07-19T13:03:48Z</time>
      </trkpt>
      <trkpt lat="51.46084520257" lon="4.783396438316">
        <ele>5.6</ele>
        <time>2020-07-19T13:03:57Z</time>
      </trkpt>
      <trkpt lat="51.461028011809" lon="4.784262959138">
        <ele>5.6</ele>
        <time>2020-07-19T13:04:06Z</time>
      </trkpt>
      <trkpt lat="51.461180646208" lon="4.785119673137">
        <ele>6.6</ele>
        <time>2020-07-19T13:04:16Z</time>
      </trkpt>
      <trkpt lat="51.461373849003" lon="4.786008405994">
        <ele>6.4</ele>
        <time>2020-07-19T13:04:25Z</time>
      </trkpt>
      <trkpt lat="51.461703425311" lon="4.786737715113">
        <ele>5.4</ele>
        <time>2020-07-19T13:04:33Z</time>
      </trkpt>
      <trkpt lat="51.46205890169" lon="4.78740432762">
        <ele>3.6</ele>
        <time>2020-07-19T13:04:41Z</time>
      </trkpt>
      <trkpt lat="51.462429716946" lon="4.78811511274">
        <ele>4.8</ele>
        <time>2020-07-19T13:04:49Z</time>
      </trkpt>
      <trkpt lat="51.462690980769" lon="4.788936203664">
        <ele>3.8</ele>
        <time>2020-07-19T13:04:58Z</time>
      </trkpt>
      <trkpt lat="51.462967332012" lon="4.789770202714">
        <ele>4.2</ele>
        <time>2020-07-19T13:05:07Z</time>
      </trkpt>
      <trkpt lat="51.463238737934" lon="4.790615936424">
        <ele>4.4</ele>
        <time>2020-07-19T13:05:16Z</time>
      </trkpt>
      <trkpt lat="51.463509557123" lon="4.791438871366">
        <ele>4.4</ele>
        <time>2020-07-19T13:05:25Z</time>
      </trkpt>
      <trkpt lat="51.463780208674" lon="4.792262812136">
        <ele>4.4</ele>
        <time>2020-07-19T13:05:34Z</time>
      </trkpt>
      <trkpt lat="51.464044406162" lon="4.79301600967">
        <ele>4.4</ele>
        <time>2020-07-19T13:05:42Z</time>
      </trkpt>
      <trkpt lat="51.464331318599" lon="4.793825785029">
        <ele>5</ele>
        <time>2020-07-19T13:05:52Z</time>
      </trkpt>
      <trkpt lat="51.464375826488" lon="4.793951345891">
        <ele>5</ele>
        <time>2020-07-19T13:05:54Z</time>
      </trkpt>
      <trkpt lat="51.46475871168" lon="4.794361388439">
        <ele>1.4</ele>
        <time>2020-07-19T13:06:09Z</time>
      </trkpt>
      <trkpt lat="51.465280317317" lon="4.794594740535">
        <ele>1.2</ele>
        <time>2020-07-19T13:06:18Z</time>
      </trkpt>
      <trkpt lat="51.465815250175" lon="4.794871427054">
        <ele>0</ele>
        <time>2020-07-19T13:06:27Z</time>
      </trkpt>
      <trkpt lat="51.466334257423" lon="4.795129673393">
        <ele>0</ele>
        <time>2020-07-19T13:06:37Z</time>
      </trkpt>
      <trkpt lat="51.466883271873" lon="4.795407198102">
        <ele>0</ele>
        <time>2020-07-19T13:06:48Z</time>
      </trkpt>
      <trkpt lat="51.467416528351" lon="4.795668210468">
        <ele>1.4</ele>
        <time>2020-07-19T13:07:00Z</time>
      </trkpt>
      <trkpt lat="51.467555248796" lon="4.795739037523">
        <ele>2.8</ele>
        <time>2020-07-19T13:07:03Z</time>
      </trkpt>
      <trkpt lat="51.467604785825" lon="4.795851187345">
        <ele>3.6</ele>
        <time>2020-07-19T13:07:05Z</time>
      </trkpt>
      <trkpt lat="51.467587267654" lon="4.795995439844">
        <ele>4</ele>
        <time>2020-07-19T13:07:07Z</time>
      </trkpt>
      <trkpt lat="51.467565223257" lon="4.796867073625">
        <ele>2</ele>
        <time>2020-07-19T13:07:16Z</time>
      </trkpt>
      <trkpt lat="51.46763537976" lon="4.797787909159">
        <ele>3.2</ele>
        <time>2020-07-19T13:07:25Z</time>
      </trkpt>
      <trkpt lat="51.467738393311" lon="4.798732800746">
        <ele>3.2</ele>
        <time>2020-07-19T13:07:34Z</time>
      </trkpt>
      <trkpt lat="51.467837215912" lon="4.799604015432">
        <ele>3.8</ele>
        <time>2020-07-19T13:07:42Z</time>
      </trkpt>
      <trkpt lat="51.467940145644" lon="4.800476571222">
        <ele>4.2</ele>
        <time>2020-07-19T13:07:50Z</time>
      </trkpt>
      <trkpt lat="51.46804106372" lon="4.801351976858">
        <ele>4.6</ele>
        <time>2020-07-19T13:07:59Z</time>
      </trkpt>
      <trkpt lat="51.468104598522" lon="4.802246912321">
        <ele>5.4</ele>
        <time>2020-07-19T13:08:08Z</time>
      </trkpt>
      <trkpt lat="51.468062102289" lon="4.803204041482">
        <ele>5.6</ele>
        <time>2020-07-19T13:08:17Z</time>
      </trkpt>
      <trkpt lat="51.46801675621" lon="4.804121775713">
        <ele>5.8</ele>
        <time>2020-07-19T13:08:26Z</time>
      </trkpt>
      <trkpt lat="51.467963782602" lon="4.804993577132">
        <ele>5.2</ele>
        <time>2020-07-19T13:08:35Z</time>
      </trkpt>
      <trkpt lat="51.467928075708" lon="4.805928745715">
        <ele>5.2</ele>
        <time>2020-07-19T13:08:45Z</time>
      </trkpt>
      <trkpt lat="51.467929835907" lon="4.80601298381">
        <ele>4.8</ele>
        <time>2020-07-19T13:08:46Z</time>
      </trkpt>
      <trkpt lat="51.467960765118" lon="4.806158074499">
        <ele>4.4</ele>
        <time>2020-07-19T13:08:48Z</time>
      </trkpt>
      <trkpt lat="51.468039219702" lon="4.806238792196">
        <ele>4</ele>
        <time>2020-07-19T13:08:50Z</time>
      </trkpt>
      <trkpt lat="51.46861522387" lon="4.806437694683">
        <ele>3.8</ele>
        <time>2020-07-19T13:09:00Z</time>
      </trkpt>
      <trkpt lat="51.468673729532" lon="4.806457895062">
        <ele>4</ele>
        <time>2020-07-19T13:09:01Z</time>
      </trkpt>
      <trkpt lat="51.46877447997" lon="4.806563087907">
        <ele>4.2</ele>
        <time>2020-07-19T13:09:03Z</time>
      </trkpt>
      <trkpt lat="51.468806666466" lon="4.806736844694">
        <ele>4.8</ele>
        <time>2020-07-19T13:09:05Z</time>
      </trkpt>
      <trkpt lat="51.46884572612" lon="4.807174882788">
        <ele>5.8</ele>
        <time>2020-07-19T13:09:10Z</time>
      </trkpt>
      <trkpt lat="51.468864585395" lon="4.807306730075">
        <ele>6.8</ele>
        <time>2020-07-19T13:09:13Z</time>
      </trkpt>
      <trkpt lat="51.468854694753" lon="4.807308574093">
        <ele>7.2</ele>
        <time>2020-07-19T13:09:14Z</time>
      </trkpt>
      <trkpt lat="51.469634965824" lon="4.806811862699">
        <ele>9</ele>
        <time>2020-07-19T13:09:41Z</time>
      </trkpt>
      <trkpt lat="51.470193116545" lon="4.806550179781">
        <ele>9.2</ele>
        <time>2020-07-19T13:09:52Z</time>
      </trkpt>
      <trkpt lat="51.470288418748" lon="4.806412046069">
        <ele>8.8</ele>
        <time>2020-07-19T13:09:55Z</time>
      </trkpt>
      <trkpt lat="51.470267212541" lon="4.806127312926">
        <ele>6.4</ele>
        <time>2020-07-19T13:09:59Z</time>
      </trkpt>
      <trkpt lat="51.470311301335" lon="4.805991442327">
        <ele>6.6</ele>
        <time>2020-07-19T13:10:01Z</time>
      </trkpt>
      <trkpt lat="51.470399562742" lon="4.805903432377">
        <ele>6.2</ele>
        <time>2020-07-19T13:10:03Z</time>
      </trkpt>
      <trkpt lat="51.470893759566" lon="4.805463634084">
        <ele>7.2</ele>
        <time>2020-07-19T13:10:13Z</time>
      </trkpt>
      <trkpt lat="51.471389968046" lon="4.805043952351">
        <ele>8.4</ele>
        <time>2020-07-19T13:10:24Z</time>
      </trkpt>
      <trkpt lat="51.471912244235" lon="4.804608931741">
        <ele>8.2</ele>
        <time>2020-07-19T13:10:36Z</time>
      </trkpt>
      <trkpt lat="51.472420019737" lon="4.804235853372">
        <ele>9.8</ele>
        <time>2020-07-19T13:10:47Z</time>
      </trkpt>
      <trkpt lat="51.472978254277" lon="4.804030999736">
        <ele>13.8</ele>
        <time>2020-07-19T13:10:58Z</time>
      </trkpt>
      <trkpt lat="51.473552079151" lon="4.803845256832">
        <ele>15</ele>
        <time>2020-07-19T13:11:09Z</time>
      </trkpt>
      <trkpt lat="51.474033451668" lon="4.803688766759">
        <ele>15.6</ele>
        <time>2020-07-19T13:11:19Z</time>
      </trkpt>
      <trkpt lat="51.474118192677" lon="4.803701842523">
        <ele>14.2</ele>
        <time>2020-07-19T13:11:21Z</time>
      </trkpt>
      <trkpt lat="51.474622447781" lon="4.803753726484">
        <ele>8.6</ele>
        <time>2020-07-19T13:11:37Z</time>
      </trkpt>
      <trkpt lat="51.474673577371" lon="4.803764539135">
        <ele>7.6</ele>
        <time>2020-07-19T13:11:39Z</time>
      </trkpt>
      <trkpt lat="51.474684725298" lon="4.803813405612">
        <ele>7.2</ele>
        <time>2020-07-19T13:11:41Z</time>
      </trkpt>
      <trkpt lat="51.474615742261" lon="4.803793791966">
        <ele>6.6</ele>
        <time>2020-07-19T13:11:45Z</time>
      </trkpt>
      <trkpt lat="51.47455715278" lon="4.803823128616">
        <ele>7.2</ele>
        <time>2020-07-19T13:11:48Z</time>
      </trkpt>
      <trkpt lat="51.474556482228" lon="4.804212970785">
        <ele>6.4</ele>
        <time>2020-07-19T13:11:58Z</time>
      </trkpt>
      <trkpt lat="51.474556901323" lon="4.8042703868">
        <ele>6.4</ele>
        <time>2020-07-19T13:11:59Z</time>
      </trkpt>
      <trkpt lat="51.474567294879" lon="4.804776402103">
        <ele>6.2</ele>
        <time>2020-07-19T13:12:07Z</time>
      </trkpt>
      <trkpt lat="51.474646420015" lon="4.805052166613">
        <ele>6.4</ele>
        <time>2020-07-19T13:12:17Z</time>
      </trkpt>
      <trkpt lat="51.475130139464" lon="4.805456509469">
        <ele>6</ele>
        <time>2020-07-19T13:12:30Z</time>
      </trkpt>
      <trkpt lat="51.47561327218" lon="4.806036117854">
        <ele>7.6</ele>
        <time>2020-07-19T13:12:39Z</time>
      </trkpt>
      <trkpt lat="51.476038569786" lon="4.806574654929">
        <ele>5.2</ele>
        <time>2020-07-19T13:12:47Z</time>
      </trkpt>
      <trkpt lat="51.476467303971" lon="4.807112186176">
        <ele>5.8</ele>
        <time>2020-07-19T13:12:55Z</time>
      </trkpt>
      <trkpt lat="51.476947083927" lon="4.807707049619">
        <ele>6.6</ele>
        <time>2020-07-19T13:13:04Z</time>
      </trkpt>
      <trkpt lat="51.477402472554" lon="4.808275761534">
        <ele>6</ele>
        <time>2020-07-19T13:13:12Z</time>
      </trkpt>
      <trkpt lat="51.477870936945" lon="4.808835840092">
        <ele>6.4</ele>
        <time>2020-07-19T13:13:20Z</time>
      </trkpt>
      <trkpt lat="51.478318530405" lon="4.809389380768">
        <ele>6.6</ele>
        <time>2020-07-19T13:13:28Z</time>
      </trkpt>
      <trkpt lat="51.478754137748" lon="4.809921882875">
        <ele>6.8</ele>
        <time>2020-07-19T13:13:36Z</time>
      </trkpt>
      <trkpt lat="51.479203491407" lon="4.810486822935">
        <ele>4.6</ele>
        <time>2020-07-19T13:13:45Z</time>
      </trkpt>
      <trkpt lat="51.479633734334" lon="4.811036507937">
        <ele>2.8</ele>
        <time>2020-07-19T13:13:53Z</time>
      </trkpt>
      <trkpt lat="51.480084680554" lon="4.811592144088">
        <ele>6.4</ele>
        <time>2020-07-19T13:14:01Z</time>
      </trkpt>
      <trkpt lat="51.480557587352" lon="4.812189103006">
        <ele>7.8</ele>
        <time>2020-07-19T13:14:10Z</time>
      </trkpt>
      <trkpt lat="51.480954721774" lon="4.812781200422">
        <ele>6.4</ele>
        <time>2020-07-19T13:14:18Z</time>
      </trkpt>
      <trkpt lat="51.481354370766" lon="4.813486453488">
        <ele>5.2</ele>
        <time>2020-07-19T13:14:27Z</time>
      </trkpt>
      <trkpt lat="51.481391334945" lon="4.813571529773">
        <ele>5</ele>
        <time>2020-07-19T13:14:28Z</time>
      </trkpt>
      <trkpt lat="51.481749828808" lon="4.814417766397">
        <ele>3.2</ele>
        <time>2020-07-19T13:14:38Z</time>
      </trkpt>
      <trkpt lat="51.482077728736" lon="4.815149422448">
        <ele>2.8</ele>
        <time>2020-07-19T13:14:46Z</time>
      </trkpt>
      <trkpt lat="51.482390960339" lon="4.815911253339">
        <ele>3.4</ele>
        <time>2020-07-19T13:14:54Z</time>
      </trkpt>
      <trkpt lat="51.482638896941" lon="4.816720777241">
        <ele>3.2</ele>
        <time>2020-07-19T13:15:02Z</time>
      </trkpt>
      <trkpt lat="51.482940058608" lon="4.817509933126">
        <ele>3</ele>
        <time>2020-07-19T13:15:11Z</time>
      </trkpt>
      <trkpt lat="51.48329109258" lon="4.818302274133">
        <ele>2.6</ele>
        <time>2020-07-19T13:15:20Z</time>
      </trkpt>
      <trkpt lat="51.483608347495" lon="4.81902085442">
        <ele>2.4</ele>
        <time>2020-07-19T13:15:28Z</time>
      </trkpt>
      <trkpt lat="51.48393314612" lon="4.81975007972">
        <ele>2</ele>
        <time>2020-07-19T13:15:36Z</time>
      </trkpt>
      <trkpt lat="51.484234223968" lon="4.82051031805">
        <ele>1.8</ele>
        <time>2020-07-19T13:15:44Z</time>
      </trkpt>
      <trkpt lat="51.484522728966" lon="4.821292852234">
        <ele>0.8</ele>
        <time>2020-07-19T13:15:52Z</time>
      </trkpt>
      <trkpt lat="51.48487191892" lon="4.822066250147">
        <ele>1.4</ele>
        <time>2020-07-19T13:16:01Z</time>
      </trkpt>
      <trkpt lat="51.485197388097" lon="4.822775861801">
        <ele>3</ele>
        <time>2020-07-19T13:16:09Z</time>
      </trkpt>
      <trkpt lat="51.48552319255" lon="4.823474576985">
        <ele>3</ele>
        <time>2020-07-19T13:16:17Z</time>
      </trkpt>
      <trkpt lat="51.485876321997" lon="4.824235737324">
        <ele>2.6</ele>
        <time>2020-07-19T13:16:26Z</time>
      </trkpt>
      <trkpt lat="51.48623230129" lon="4.825033526566">
        <ele>1.4</ele>
        <time>2020-07-19T13:16:35Z</time>
      </trkpt>
      <trkpt lat="51.486593393542" lon="4.825811283067">
        <ele>1.2</ele>
        <time>2020-07-19T13:16:44Z</time>
      </trkpt>
      <trkpt lat="51.486941829125" lon="4.826584094247">
        <ele>1.2</ele>
        <time>2020-07-19T13:16:53Z</time>
      </trkpt>
      <trkpt lat="51.487277356582" lon="4.827272667332">
        <ele>2</ele>
        <time>2020-07-19T13:17:02Z</time>
      </trkpt>
      <trkpt lat="51.487597042248" lon="4.827976663113">
        <ele>1.2</ele>
        <time>2020-07-19T13:17:11Z</time>
      </trkpt>
      <trkpt lat="51.487894348241" lon="4.828569347262">
        <ele>1.8</ele>
        <time>2020-07-19T13:17:19Z</time>
      </trkpt>
      <trkpt lat="51.488033655419" lon="4.828704379671">
        <ele>1.8</ele>
        <time>2020-07-19T13:17:22Z</time>
      </trkpt>
      <trkpt lat="51.488141865748" lon="4.828749055198">
        <ele>2</ele>
        <time>2020-07-19T13:17:24Z</time>
      </trkpt>
      <trkpt lat="51.488710912939" lon="4.828614358065">
        <ele>3.8</ele>
        <time>2020-07-19T13:17:33Z</time>
      </trkpt>
      <trkpt lat="51.489297310663" lon="4.828405984031">
        <ele>3</ele>
        <time>2020-07-19T13:17:42Z</time>
      </trkpt>
      <trkpt lat="51.489841463611" lon="4.828191910305">
        <ele>2.6</ele>
        <time>2020-07-19T13:17:51Z</time>
      </trkpt>
      <trkpt lat="51.49017766162" lon="4.828075401895">
        <ele>4.6</ele>
        <time>2020-07-19T13:17:57Z</time>
      </trkpt>
      <trkpt lat="51.490294337668" lon="4.828086046908">
        <ele>4.6</ele>
        <time>2020-07-19T13:17:59Z</time>
      </trkpt>
      <trkpt lat="51.490409504974" lon="4.828140026344">
        <ele>4.8</ele>
        <time>2020-07-19T13:18:01Z</time>
      </trkpt>
      <trkpt lat="51.490518553493" lon="4.828227114285">
        <ele>4.6</ele>
        <time>2020-07-19T13:18:03Z</time>
      </trkpt>
      <trkpt lat="51.490612766049" lon="4.828355692631">
        <ele>4.6</ele>
        <time>2020-07-19T13:18:05Z</time>
      </trkpt>
      <trkpt lat="51.490935133923" lon="4.829121127739">
        <ele>5.2</ele>
        <time>2020-07-19T13:18:14Z</time>
      </trkpt>
      <trkpt lat="51.491240989454" lon="4.829930484003">
        <ele>2.8</ele>
        <time>2020-07-19T13:18:23Z</time>
      </trkpt>
      <trkpt lat="51.491567799735" lon="4.83074294157">
        <ele>1.6</ele>
        <time>2020-07-19T13:18:32Z</time>
      </trkpt>
      <trkpt lat="51.491908859246" lon="4.831538719156">
        <ele>4</ele>
        <time>2020-07-19T13:18:41Z</time>
      </trkpt>
      <trkpt lat="51.492199459719" lon="4.832273392691">
        <ele>3.8</ele>
        <time>2020-07-19T13:18:49Z</time>
      </trkpt>
      <trkpt lat="51.492510847304" lon="4.833027679872">
        <ele>3.6</ele>
        <time>2020-07-19T13:18:58Z</time>
      </trkpt>
      <trkpt lat="51.492846039485" lon="4.833815327015">
        <ele>4.6</ele>
        <time>2020-07-19T13:19:08Z</time>
      </trkpt>
      <trkpt lat="51.49300152373" lon="4.834128139523">
        <ele>4.8</ele>
        <time>2020-07-19T13:19:12Z</time>
      </trkpt>
      <trkpt lat="51.493479711125" lon="4.834574224241">
        <ele>4</ele>
        <time>2020-07-19T13:19:21Z</time>
      </trkpt>
      <trkpt lat="51.493996287622" lon="4.834968508817">
        <ele>2</ele>
        <time>2020-07-19T13:19:30Z</time>
      </trkpt>
      <trkpt lat="51.494490316808" lon="4.835407888015">
        <ele>1.8</ele>
        <time>2020-07-19T13:19:39Z</time>
      </trkpt>
      <trkpt lat="51.494943861417" lon="4.835894373491">
        <ele>1.6</ele>
        <time>2020-07-19T13:19:48Z</time>
      </trkpt>
      <trkpt lat="51.495448032702" lon="4.836417404051">
        <ele>2.6</ele>
        <time>2020-07-19T13:19:58Z</time>
      </trkpt>
      <trkpt lat="51.49591004303" lon="4.836871451574">
        <ele>3</ele>
        <time>2020-07-19T13:20:06Z</time>
      </trkpt>
      <trkpt lat="51.496379010335" lon="4.837344274553">
        <ele>3.4</ele>
        <time>2020-07-19T13:20:14Z</time>
      </trkpt>
      <trkpt lat="51.496882846344" lon="4.837815756428">
        <ele>3.6</ele>
        <time>2020-07-19T13:20:23Z</time>
      </trkpt>
      <trkpt lat="51.497251566125" lon="4.83817098135">
        <ele>3.2</ele>
        <time>2020-07-19T13:20:31Z</time>
      </trkpt>
      <trkpt lat="51.497265480079" lon="4.838319592437">
        <ele>4.2</ele>
        <time>2020-07-19T13:20:33Z</time>
      </trkpt>
      <trkpt lat="51.497211835919" lon="4.838476333967">
        <ele>4.8</ele>
        <time>2020-07-19T13:20:35Z</time>
      </trkpt>
      <trkpt lat="51.496927186595" lon="4.839299520366">
        <ele>6.2</ele>
        <time>2020-07-19T13:20:45Z</time>
      </trkpt>
      <trkpt lat="51.496653601379" lon="4.840151708139">
        <ele>6.8</ele>
        <time>2020-07-19T13:20:55Z</time>
      </trkpt>
      <trkpt lat="51.496394349212" lon="4.840984282266">
        <ele>7.4</ele>
        <time>2020-07-19T13:21:04Z</time>
      </trkpt>
      <trkpt lat="51.496144987687" lon="4.841799422041">
        <ele>7.8</ele>
        <time>2020-07-19T13:21:13Z</time>
      </trkpt>
      <trkpt lat="51.495880035828" lon="4.842618249852">
        <ele>6.4</ele>
        <time>2020-07-19T13:21:22Z</time>
      </trkpt>
      <trkpt lat="51.495576778686" lon="4.843403633882">
        <ele>6</ele>
        <time>2020-07-19T13:21:31Z</time>
      </trkpt>
      <trkpt lat="51.495230438578" lon="4.844182731487">
        <ele>9.2</ele>
        <time>2020-07-19T13:21:41Z</time>
      </trkpt>
      <trkpt lat="51.494845374092" lon="4.844873567685">
        <ele>14.2</ele>
        <time>2020-07-19T13:21:50Z</time>
      </trkpt>
      <trkpt lat="51.494398702641" lon="4.845458624305">
        <ele>11.8</ele>
        <time>2020-07-19T13:21:59Z</time>
      </trkpt>
      <trkpt lat="51.493947253507" lon="4.846080812742">
        <ele>10.8</ele>
        <time>2020-07-19T13:22:09Z</time>
      </trkpt>
      <trkpt lat="51.493568894541" lon="4.846751197104">
        <ele>7.4</ele>
        <time>2020-07-19T13:22:19Z</time>
      </trkpt>
      <trkpt lat="51.493206293547" lon="4.847405991132">
        <ele>6.8</ele>
        <time>2020-07-19T13:22:28Z</time>
      </trkpt>
      <trkpt lat="51.492842351449" lon="4.848131444577">
        <ele>4.8</ele>
        <time>2020-07-19T13:22:37Z</time>
      </trkpt>
      <trkpt lat="51.492497017169" lon="4.848833428702">
        <ele>6.8</ele>
        <time>2020-07-19T13:22:46Z</time>
      </trkpt>
      <trkpt lat="51.492149419776" lon="4.849502304322">
        <ele>6.2</ele>
        <time>2020-07-19T13:22:55Z</time>
      </trkpt>
      <trkpt lat="51.491817915631" lon="4.850215687831">
        <ele>9.6</ele>
        <time>2020-07-19T13:23:04Z</time>
      </trkpt>
      <trkpt lat="51.491448441479" lon="4.850936195955">
        <ele>10.6</ele>
        <time>2020-07-19T13:23:14Z</time>
      </trkpt>
      <trkpt lat="51.491103107199" lon="4.85166081121">
        <ele>14.8</ele>
        <time>2020-07-19T13:23:24Z</time>
      </trkpt>
      <trkpt lat="51.490718880903" lon="4.852352150322">
        <ele>14.6</ele>
        <time>2020-07-19T13:23:34Z</time>
      </trkpt>
      <trkpt lat="51.490343287964" lon="4.852989593817">
        <ele>10.6</ele>
        <time>2020-07-19T13:23:44Z</time>
      </trkpt>
      <trkpt lat="51.489962330609" lon="4.853674897961">
        <ele>2.8</ele>
        <time>2020-07-19T13:23:55Z</time>
      </trkpt>
      <trkpt lat="51.489592688819" lon="4.854363890141">
        <ele>2.8</ele>
        <time>2020-07-19T13:24:03Z</time>
      </trkpt>
      <trkpt lat="51.489234278775" lon="4.855058665832">
        <ele>3</ele>
        <time>2020-07-19T13:24:12Z</time>
      </trkpt>
      <trkpt lat="51.488909563969" lon="4.855793674643">
        <ele>3.6</ele>
        <time>2020-07-19T13:24:21Z</time>
      </trkpt>
      <trkpt lat="51.488610916872" lon="4.85659942669">
        <ele>4.4</ele>
        <time>2020-07-19T13:24:30Z</time>
      </trkpt>
      <trkpt lat="51.488334733267" lon="4.857394533724">
        <ele>9.2</ele>
        <time>2020-07-19T13:24:39Z</time>
      </trkpt>
      <trkpt lat="51.488032565772" lon="4.858226018204">
        <ele>11.2</ele>
        <time>2020-07-19T13:24:48Z</time>
      </trkpt>
      <trkpt lat="51.487769457931" lon="4.859012072786">
        <ele>11.2</ele>
        <time>2020-07-19T13:24:57Z</time>
      </trkpt>
      <trkpt lat="51.487572231824" lon="4.859862081265">
        <ele>11</ele>
        <time>2020-07-19T13:25:07Z</time>
      </trkpt>
      <trkpt lat="51.487365701808" lon="4.860697169962">
        <ele>9.4</ele>
        <time>2020-07-19T13:25:21Z</time>
      </trkpt>
      <trkpt lat="51.487154897023" lon="4.861562684956">
        <ele>9</ele>
        <time>2020-07-19T13:25:33Z</time>
      </trkpt>
      <trkpt lat="51.486914252674" lon="4.86235024828">
        <ele>7</ele>
        <time>2020-07-19T13:25:45Z</time>
      </trkpt>
      <trkpt lat="51.486635051585" lon="4.863166058607">
        <ele>8.4</ele>
        <time>2020-07-19T13:25:56Z</time>
      </trkpt>
      <trkpt lat="51.486425755542" lon="4.863997543087">
        <ele>8.2</ele>
        <time>2020-07-19T13:26:07Z</time>
      </trkpt>
      <trkpt lat="51.486372614296" lon="4.864291831596">
        <ele>10</ele>
        <time>2020-07-19T13:26:11Z</time>
      </trkpt>
      <trkpt lat="51.486273959333" lon="4.864690893855">
        <ele>9.8</ele>
        <time>2020-07-19T13:26:16Z</time>
      </trkpt>
      <trkpt lat="51.486233726213" lon="4.864927347254">
        <ele>8.4</ele>
        <time>2020-07-19T13:26:19Z</time>
      </trkpt>
      <trkpt lat="51.486161306597" lon="4.865028432968">
        <ele>9</ele>
        <time>2020-07-19T13:26:21Z</time>
      </trkpt>
      <trkpt lat="51.485726956539" lon="4.865564204016">
        <ele>8.2</ele>
        <time>2020-07-19T13:26:31Z</time>
      </trkpt>
      <trkpt lat="51.485091776157" lon="4.866348749856">
        <ele>8.8</ele>
        <time>2020-07-19T13:26:44Z</time>
      </trkpt>
      <trkpt lat="51.484641332851" lon="4.866891896976">
        <ele>7.8</ele>
        <time>2020-07-19T13:26:53Z</time>
      </trkpt>
      <trkpt lat="51.484154093004" lon="4.867436804295">
        <ele>6.4</ele>
        <time>2020-07-19T13:27:03Z</time>
      </trkpt>
      <trkpt lat="51.483662159293" lon="4.86797450318">
        <ele>6</ele>
        <time>2020-07-19T13:27:12Z</time>
      </trkpt>
      <trkpt lat="51.483166705184" lon="4.86846987347">
        <ele>7.4</ele>
        <time>2020-07-19T13:27:21Z</time>
      </trkpt>
      <trkpt lat="51.482688350151" lon="4.86895099453">
        <ele>8.4</ele>
        <time>2020-07-19T13:27:30Z</time>
      </trkpt>
      <trkpt lat="51.482210581851" lon="4.869477880764">
        <ele>8.8</ele>
        <time>2020-07-19T13:27:40Z</time>
      </trkpt>
      <trkpt lat="51.481710852973" lon="4.869967802819">
        <ele>9.2</ele>
        <time>2020-07-19T13:27:50Z</time>
      </trkpt>
      <trkpt lat="51.481657208813" lon="4.870005772826">
        <ele>9.2</ele>
        <time>2020-07-19T13:27:51Z</time>
      </trkpt>
      <trkpt lat="51.481152366976" lon="4.870474069579">
        <ele>8.8</ele>
        <time>2020-07-19T13:28:00Z</time>
      </trkpt>
      <trkpt lat="51.480690524286" lon="4.870930044939">
        <ele>8.4</ele>
        <time>2020-07-19T13:28:08Z</time>
      </trkpt>
      <trkpt lat="51.480216946936" lon="4.871365568463">
        <ele>8.2</ele>
        <time>2020-07-19T13:28:16Z</time>
      </trkpt>
      <trkpt lat="51.479669776504" lon="4.871769911319">
        <ele>6.2</ele>
        <time>2020-07-19T13:28:25Z</time>
      </trkpt>
      <trkpt lat="51.479126629384" lon="4.872118179264">
        <ele>7.4</ele>
        <time>2020-07-19T13:28:35Z</time>
      </trkpt>
      <trkpt lat="51.47860141953" lon="4.87252252212">
        <ele>8.4</ele>
        <time>2020-07-19T13:28:44Z</time>
      </trkpt>
      <trkpt lat="51.478062547179" lon="4.872894007928">
        <ele>9</ele>
        <time>2020-07-19T13:28:53Z</time>
      </trkpt>
      <trkpt lat="51.477553765849" lon="4.873242946425">
        <ele>9.8</ele>
        <time>2020-07-19T13:29:02Z</time>
      </trkpt>
      <trkpt lat="51.477017910982" lon="4.873611750025">
        <ele>10.4</ele>
        <time>2020-07-19T13:29:12Z</time>
      </trkpt>
      <trkpt lat="51.476505525435" lon="4.873970243888">
        <ele>11</ele>
        <time>2020-07-19T13:29:23Z</time>
      </trkpt>
      <trkpt lat="51.475978303925" lon="4.874324714439">
        <ele>11.2</ele>
        <time>2020-07-19T13:29:33Z</time>
      </trkpt>
      <trkpt lat="51.475432306959" lon="4.874677843886">
        <ele>10</ele>
        <time>2020-07-19T13:29:44Z</time>
      </trkpt>
      <trkpt lat="51.47488907602" lon="4.874995434077">
        <ele>6</ele>
        <time>2020-07-19T13:29:56Z</time>
      </trkpt>
      <trkpt lat="51.474380378509" lon="4.875338169968">
        <ele>3.4</ele>
        <time>2020-07-19T13:30:06Z</time>
      </trkpt>
      <trkpt lat="51.473846702936" lon="4.875656933625">
        <ele>0</ele>
        <time>2020-07-19T13:30:15Z</time>
      </trkpt>
      <trkpt lat="51.473299113409" lon="4.876012996737">
        <ele>0</ele>
        <time>2020-07-19T13:30:25Z</time>
      </trkpt>
      <trkpt lat="51.4727701317" lon="4.876351457859">
        <ele>0</ele>
        <time>2020-07-19T13:30:34Z</time>
      </trkpt>
      <trkpt lat="51.472587909194" lon="4.876569806354">
        <ele>3.8</ele>
        <time>2020-07-19T13:30:38Z</time>
      </trkpt>
      <trkpt lat="51.472191026229" lon="4.87728176494">
        <ele>10.8</ele>
        <time>2020-07-19T13:30:46Z</time>
      </trkpt>
      <trkpt lat="51.471808476313" lon="4.877974193699">
        <ele>11.8</ele>
        <time>2020-07-19T13:30:55Z</time>
      </trkpt>
      <trkpt lat="51.471441265274" lon="4.878627646623">
        <ele>13</ele>
        <time>2020-07-19T13:31:06Z</time>
      </trkpt>
      <trkpt lat="51.471227191548" lon="4.879017991706">
        <ele>12.4</ele>
        <time>2020-07-19T13:31:13Z</time>
      </trkpt>
      <trkpt lat="51.47085738212" lon="4.879652752993">
        <ele>12.8</ele>
        <time>2020-07-19T13:31:23Z</time>
      </trkpt>
      <trkpt lat="51.470470222159" lon="4.880355742946">
        <ele>13</ele>
        <time>2020-07-19T13:31:33Z</time>
      </trkpt>
      <trkpt lat="51.470117679445" lon="4.881044064574">
        <ele>13.8</ele>
        <time>2020-07-19T13:31:43Z</time>
      </trkpt>
      <trkpt lat="51.469711324933" lon="4.881703384828">
        <ele>12.8</ele>
        <time>2020-07-19T13:31:54Z</time>
      </trkpt>
      <trkpt lat="51.469350567957" lon="4.882383324556">
        <ele>12.2</ele>
        <time>2020-07-19T13:32:04Z</time>
      </trkpt>
      <trkpt lat="51.468954104087" lon="4.883079441351">
        <ele>11.8</ele>
        <time>2020-07-19T13:32:15Z</time>
      </trkpt>
      <trkpt lat="51.468595023491" lon="4.883734067741">
        <ele>10.8</ele>
        <time>2020-07-19T13:32:24Z</time>
      </trkpt>
      <trkpt lat="51.46823217104" lon="4.884384419362">
        <ele>13</ele>
        <time>2020-07-19T13:32:34Z</time>
      </trkpt>
      <trkpt lat="51.467833779333" lon="4.885101910002">
        <ele>13.6</ele>
        <time>2020-07-19T13:32:44Z</time>
      </trkpt>
      <trkpt lat="51.467448128114" lon="4.885807079249">
        <ele>11.6</ele>
        <time>2020-07-19T13:32:54Z</time>
      </trkpt>
      <trkpt lat="51.467076390849" lon="4.886461286544">
        <ele>11.6</ele>
        <time>2020-07-19T13:33:04Z</time>
      </trkpt>
      <trkpt lat="51.466693338019" lon="4.887145501041">
        <ele>12.6</ele>
        <time>2020-07-19T13:33:15Z</time>
      </trkpt>
      <trkpt lat="51.466307183886" lon="4.887834660859">
        <ele>12</ele>
        <time>2020-07-19T13:33:24Z</time>
      </trkpt>
      <trkpt lat="51.465921029753" lon="4.888515522596">
        <ele>11.6</ele>
        <time>2020-07-19T13:33:33Z</time>
      </trkpt>
      <trkpt lat="51.465520123476" lon="4.889255141452">
        <ele>11.4</ele>
        <time>2020-07-19T13:33:42Z</time>
      </trkpt>
      <trkpt lat="51.465143692347" lon="4.889954024274">
        <ele>10.2</ele>
        <time>2020-07-19T13:33:51Z</time>
      </trkpt>
      <trkpt lat="51.464743037527" lon="4.890649302879">
        <ele>9.8</ele>
        <time>2020-07-19T13:34:00Z</time>
      </trkpt>
      <trkpt lat="51.464364427104" lon="4.891352041375">
        <ele>7.8</ele>
        <time>2020-07-19T13:34:10Z</time>
      </trkpt>
      <trkpt lat="51.464018925186" lon="4.892028209248">
        <ele>6</ele>
        <time>2020-07-19T13:34:19Z</time>
      </trkpt>
      <trkpt lat="51.463638638383" lon="4.892714770677">
        <ele>5.8</ele>
        <time>2020-07-19T13:34:30Z</time>
      </trkpt>
      <trkpt lat="51.463215268614" lon="4.893385825591">
        <ele>8.4</ele>
        <time>2020-07-19T13:34:40Z</time>
      </trkpt>
      <trkpt lat="51.462823917703" lon="4.894080014549">
        <ele>3.2</ele>
        <time>2020-07-19T13:34:51Z</time>
      </trkpt>
      <trkpt lat="51.462416389725" lon="4.894735562948">
        <ele>0</ele>
        <time>2020-07-19T13:35:01Z</time>
      </trkpt>
      <trkpt lat="51.462058985509" lon="4.895384489646">
        <ele>4.2</ele>
        <time>2020-07-19T13:35:08Z</time>
      </trkpt>
      <trkpt lat="51.461707364804" lon="4.89608739578">
        <ele>13.2</ele>
        <time>2020-07-19T13:35:15Z</time>
      </trkpt>
      <trkpt lat="51.461332358598" lon="4.896790553371">
        <ele>16.2</ele>
        <time>2020-07-19T13:35:24Z</time>
      </trkpt>
      <trkpt lat="51.460959364048" lon="4.897494968247">
        <ele>14.4</ele>
        <time>2020-07-19T13:35:36Z</time>
      </trkpt>
      <trkpt lat="51.460568348413" lon="4.898172058129">
        <ele>14</ele>
        <time>2020-07-19T13:35:46Z</time>
      </trkpt>
      <trkpt lat="51.46019057618" lon="4.898826935976">
        <ele>12.6</ele>
        <time>2020-07-19T13:35:55Z</time>
      </trkpt>
      <trkpt lat="51.459806349884" lon="4.899516263432">
        <ele>14.2</ele>
        <time>2020-07-19T13:36:04Z</time>
      </trkpt>
      <trkpt lat="51.459421033941" lon="4.900227886742">
        <ele>15.4</ele>
        <time>2020-07-19T13:36:14Z</time>
      </trkpt>
      <trkpt lat="51.459040998595" lon="4.900908329384">
        <ele>14.2</ele>
        <time>2020-07-19T13:36:24Z</time>
      </trkpt>
      <trkpt lat="51.458661298525" lon="4.901596399555">
        <ele>12</ele>
        <time>2020-07-19T13:36:34Z</time>
      </trkpt>
      <trkpt lat="51.458270534347" lon="4.902240883846">
        <ele>10.6</ele>
        <time>2020-07-19T13:36:44Z</time>
      </trkpt>
      <trkpt lat="51.457897455978" lon="4.902917889909">
        <ele>11.4</ele>
        <time>2020-07-19T13:36:53Z</time>
      </trkpt>
      <trkpt lat="51.457527395093" lon="4.903576204335">
        <ele>13.4</ele>
        <time>2020-07-19T13:37:02Z</time>
      </trkpt>
      <trkpt lat="51.457159932597" lon="4.904261257022">
        <ele>13.2</ele>
        <time>2020-07-19T13:37:11Z</time>
      </trkpt>
      <trkpt lat="51.456799343259" lon="4.904936502886">
        <ele>15.6</ele>
        <time>2020-07-19T13:37:21Z</time>
      </trkpt>
      <trkpt lat="51.456430791116" lon="4.905650054033">
        <ele>17</ele>
        <time>2020-07-19T13:37:31Z</time>
      </trkpt>
      <trkpt lat="51.456234822294" lon="4.90597971416">
        <ele>17.6</ele>
        <time>2020-07-19T13:37:37Z</time>
      </trkpt>
      <trkpt lat="51.456124432671" lon="4.905557182581">
        <ele>12.8</ele>
        <time>2020-07-19T13:41:15Z</time>
      </trkpt>
      <trkpt lat="51.45577918221" lon="4.9048112773">
        <ele>5.2</ele>
        <time>2020-07-19T13:41:33Z</time>
      </trkpt>
      <trkpt lat="51.455423957288" lon="4.90409630123">
        <ele>5.2</ele>
        <time>2020-07-19T13:41:43Z</time>
      </trkpt>
      <trkpt lat="51.455057919715" lon="4.90338719249">
        <ele>9.8</ele>
        <time>2020-07-19T13:41:53Z</time>
      </trkpt>
      <trkpt lat="51.454687942649" lon="4.902680346863">
        <ele>12.8</ele>
        <time>2020-07-19T13:42:03Z</time>
      </trkpt>
      <trkpt lat="51.454325676931" lon="4.902011806519">
        <ele>14.8</ele>
        <time>2020-07-19T13:42:14Z</time>
      </trkpt>
      <trkpt lat="51.454236242058" lon="4.901826147434">
        <ele>13.8</ele>
        <time>2020-07-19T13:42:17Z</time>
      </trkpt>
      <trkpt lat="51.4538773291" lon="4.901136819978">
        <ele>13</ele>
        <time>2020-07-19T13:42:27Z</time>
      </trkpt>
      <trkpt lat="51.45349427627" lon="4.900496023723">
        <ele>8.4</ele>
        <time>2020-07-19T13:42:36Z</time>
      </trkpt>
      <trkpt lat="51.453151540379" lon="4.899817173642">
        <ele>5</ele>
        <time>2020-07-19T13:42:47Z</time>
      </trkpt>
      <trkpt lat="51.4527625364" lon="4.899129690204">
        <ele>7.2</ele>
        <time>2020-07-19T13:42:58Z</time>
      </trkpt>
      <trkpt lat="51.452409826048" lon="4.898457294186">
        <ele>8.2</ele>
        <time>2020-07-19T13:43:08Z</time>
      </trkpt>
      <trkpt lat="51.451946223159" lon="4.89752153887">
        <ele>10.8</ele>
        <time>2020-07-19T13:43:21Z</time>
      </trkpt>
      <trkpt lat="51.451606337114" lon="4.896849729585">
        <ele>11.2</ele>
        <time>2020-07-19T13:43:31Z</time>
      </trkpt>
      <trkpt lat="51.451249100536" lon="4.896165095993">
        <ele>12</ele>
        <time>2020-07-19T13:43:43Z</time>
      </trkpt>
      <trkpt lat="51.45090594555" lon="4.895479205116">
        <ele>13</ele>
        <time>2020-07-19T13:43:54Z</time>
      </trkpt>
      <trkpt lat="51.450551977913" lon="4.894767497987">
        <ele>14.4</ele>
        <time>2020-07-19T13:44:06Z</time>
      </trkpt>
      <trkpt lat="51.450173451309" lon="4.894150171052">
        <ele>11.6</ele>
        <time>2020-07-19T13:44:22Z</time>
      </trkpt>
      <trkpt lat="51.450152915654" lon="4.894155619287">
        <ele>11.4</ele>
        <time>2020-07-19T13:44:23Z</time>
      </trkpt>
      <trkpt lat="51.449957533565" lon="4.895038484814">
        <ele>10.4</ele>
        <time>2020-07-19T13:44:36Z</time>
      </trkpt>
      <trkpt lat="51.449798361284" lon="4.895938365598">
        <ele>11.6</ele>
        <time>2020-07-19T13:44:46Z</time>
      </trkpt>
      <trkpt lat="51.449663831789" lon="4.896798851452">
        <ele>12.2</ele>
        <time>2020-07-19T13:44:56Z</time>
      </trkpt>
      <trkpt lat="51.449512789951" lon="4.89771767533">
        <ele>11.8</ele>
        <time>2020-07-19T13:45:06Z</time>
      </trkpt>
      <trkpt lat="51.449349929634" lon="4.898640187244">
        <ele>10.4</ele>
        <time>2020-07-19T13:45:16Z</time>
      </trkpt>
      <trkpt lat="51.449218082347" lon="4.899567979755">
        <ele>14.8</ele>
        <time>2020-07-19T13:45:26Z</time>
      </trkpt>
      <trkpt lat="51.44908036773" lon="4.900413042913">
        <ele>15.6</ele>
        <time>2020-07-19T13:45:36Z</time>
      </trkpt>
      <trkpt lat="51.448925470218" lon="4.901283419409">
        <ele>15.6</ele>
        <time>2020-07-19T13:45:46Z</time>
      </trkpt>
      <trkpt lat="51.448785576307" lon="4.901935279772">
        <ele>15.6</ele>
        <time>2020-07-19T13:45:53Z</time>
      </trkpt>
      <trkpt lat="51.44856152812" lon="4.902729129521">
        <ele>15.4</ele>
        <time>2020-07-19T13:46:02Z</time>
      </trkpt>
      <trkpt lat="51.448316441364" lon="4.903561871286">
        <ele>15.2</ele>
        <time>2020-07-19T13:46:12Z</time>
      </trkpt>
      <trkpt lat="51.448076048472" lon="4.904373993577">
        <ele>16.4</ele>
        <time>2020-07-19T13:46:22Z</time>
      </trkpt>
      <trkpt lat="51.447845294765" lon="4.905189468628">
        <ele>17</ele>
        <time>2020-07-19T13:46:32Z</time>
      </trkpt>
      <trkpt lat="51.447588724806" lon="4.906032436311">
        <ele>16.2</ele>
        <time>2020-07-19T13:46:43Z</time>
      </trkpt>
      <trkpt lat="51.447348751009" lon="4.906822514205">
        <ele>15.2</ele>
        <time>2020-07-19T13:46:52Z</time>
      </trkpt>
      <trkpt lat="51.447116572379" lon="4.90761837561">
        <ele>14.6</ele>
        <time>2020-07-19T13:47:01Z</time>
      </trkpt>
      <trkpt lat="51.446868887234" lon="4.908444998588">
        <ele>14.2</ele>
        <time>2020-07-19T13:47:11Z</time>
      </trkpt>
      <trkpt lat="51.446833347978" lon="4.908613810054">
        <ele>14</ele>
        <time>2020-07-19T13:47:12Z</time>
      </trkpt>
      <trkpt lat="51.446803592233" lon="4.908784549357">
        <ele>13.6</ele>
        <time>2020-07-19T13:47:15Z</time>
      </trkpt>
      <trkpt lat="51.446553895432" lon="4.909620727701">
        <ele>12.8</ele>
        <time>2020-07-19T13:47:25Z</time>
      </trkpt>
      <trkpt lat="51.446290703772" lon="4.910390353759">
        <ele>13</ele>
        <time>2020-07-19T13:47:34Z</time>
      </trkpt>
      <trkpt lat="51.446262037674" lon="4.910472496379">
        <ele>13.2</ele>
        <time>2020-07-19T13:47:35Z</time>
      </trkpt>
      <trkpt lat="51.445993062503" lon="4.911286797964">
        <ele>13.8</ele>
        <time>2020-07-19T13:47:45Z</time>
      </trkpt>
      <trkpt lat="51.445646973852" lon="4.91200462388">
        <ele>14.6</ele>
        <time>2020-07-19T13:47:55Z</time>
      </trkpt>
      <trkpt lat="51.445292168025" lon="4.912741895804">
        <ele>14</ele>
        <time>2020-07-19T13:48:05Z</time>
      </trkpt>
      <trkpt lat="51.44496820759" lon="4.913449998716">
        <ele>16.4</ele>
        <time>2020-07-19T13:48:16Z</time>
      </trkpt>
      <trkpt lat="51.444912216498" lon="4.913575894854">
        <ele>16.4</ele>
        <time>2020-07-19T13:48:18Z</time>
      </trkpt>
      <trkpt lat="51.444563613277" lon="4.914490863058">
        <ele>16</ele>
        <time>2020-07-19T13:51:53Z</time>
      </trkpt>
      <trkpt lat="51.444441908089" lon="4.915415805723">
        <ele>15.2</ele>
        <time>2020-07-19T13:52:05Z</time>
      </trkpt>
      <trkpt lat="51.444327662792" lon="4.916342843863">
        <ele>14.6</ele>
        <time>2020-07-19T13:52:15Z</time>
      </trkpt>
      <trkpt lat="51.444217524626" lon="4.917206179563">
        <ele>14</ele>
        <time>2020-07-19T13:52:24Z</time>
      </trkpt>
      <trkpt lat="51.444085342063" lon="4.918116453903">
        <ele>15</ele>
        <time>2020-07-19T13:52:35Z</time>
      </trkpt>
      <trkpt lat="51.444014850284" lon="4.91860201737">
        <ele>17.8</ele>
        <time>2020-07-19T13:52:43Z</time>
      </trkpt>
      <trkpt lat="51.443838998022" lon="4.919432998936">
        <ele>14.2</ele>
        <time>2020-07-19T13:52:53Z</time>
      </trkpt>
      <trkpt lat="51.443653758032" lon="4.920335645747">
        <ele>13.8</ele>
        <time>2020-07-19T13:53:04Z</time>
      </trkpt>
      <trkpt lat="51.443443288523" lon="4.921149528237">
        <ele>12.4</ele>
        <time>2020-07-19T13:53:13Z</time>
      </trkpt>
      <trkpt lat="51.443315883643" lon="4.921476925251">
        <ele>11.8</ele>
        <time>2020-07-19T13:53:17Z</time>
      </trkpt>
      <trkpt lat="51.442897543014" lon="4.922024514778">
        <ele>10.8</ele>
        <time>2020-07-19T13:53:27Z</time>
      </trkpt>
      <trkpt lat="51.442805761209" lon="4.922194248253">
        <ele>14.6</ele>
        <time>2020-07-19T13:53:35Z</time>
      </trkpt>
      <trkpt lat="51.443186634745" lon="4.921781188221">
        <ele>17</ele>
        <time>2020-07-19T13:53:47Z</time>
      </trkpt>
      <trkpt lat="51.44321387592" lon="4.921875316958">
        <ele>16.4</ele>
        <time>2020-07-19T13:53:49Z</time>
      </trkpt>
      <trkpt lat="51.443856013279" lon="4.923685723539">
        <ele>9.8</ele>
        <time>2020-07-19T13:54:51Z</time>
      </trkpt>
      <trkpt lat="51.444076792525" lon="4.924214453791">
        <ele>10.4</ele>
        <time>2020-07-19T13:55:03Z</time>
      </trkpt>
      <trkpt lat="51.444546430382" lon="4.925258670893">
        <ele>9.6</ele>
        <time>2020-07-19T13:55:38Z</time>
      </trkpt>
      <trkpt lat="51.444318191245" lon="4.926114630521">
        <ele>17.6</ele>
        <time>2020-07-19T13:55:52Z</time>
      </trkpt>
      <trkpt lat="51.444003031805" lon="4.926882664018">
        <ele>16.4</ele>
        <time>2020-07-19T13:56:05Z</time>
      </trkpt>
      <trkpt lat="51.443718969214" lon="4.927624881263">
        <ele>15.6</ele>
        <time>2020-07-19T13:56:16Z</time>
      </trkpt>
      <trkpt lat="51.443609669238" lon="4.928017321821">
        <ele>13.2</ele>
        <time>2020-07-19T13:56:22Z</time>
      </trkpt>
      <trkpt lat="51.443460219961" lon="4.928557032362">
        <ele>13.4</ele>
        <time>2020-07-19T14:06:53Z</time>
      </trkpt>
      <trkpt lat="51.443199207595" lon="4.929347529351">
        <ele>14.8</ele>
        <time>2020-07-19T14:07:06Z</time>
      </trkpt>
      <trkpt lat="51.443091835456" lon="4.930171889216">
        <ele>11.8</ele>
        <time>2020-07-19T14:07:20Z</time>
      </trkpt>
      <trkpt lat="51.442849179451" lon="4.930856941903">
        <ele>9</ele>
        <time>2020-07-19T14:07:39Z</time>
      </trkpt>
      <trkpt lat="51.442723786227" lon="4.931009408664">
        <ele>8.8</ele>
        <time>2020-07-19T14:07:48Z</time>
      </trkpt>
      <trkpt lat="51.442393036453" lon="4.930607245102">
        <ele>10.4</ele>
        <time>2020-07-19T14:08:02Z</time>
      </trkpt>
      <trkpt lat="51.441958015843" lon="4.92991422961">
        <ele>18.4</ele>
        <time>2020-07-19T14:08:23Z</time>
      </trkpt>
      <trkpt lat="51.44165232795" lon="4.929120798956">
        <ele>19.2</ele>
        <time>2020-07-19T14:08:36Z</time>
      </trkpt>
      <trkpt lat="51.441602707102" lon="4.928830114664">
        <ele>19</ele>
        <time>2020-07-19T14:08:40Z</time>
      </trkpt>
      <trkpt lat="51.441594576659" lon="4.928677144989">
        <ele>19</ele>
        <time>2020-07-19T14:08:42Z</time>
      </trkpt>
      <trkpt lat="51.441651657398" lon="4.927769552857">
        <ele>18.2</ele>
        <time>2020-07-19T14:08:53Z</time>
      </trkpt>
      <trkpt lat="51.441629193906" lon="4.927107801852">
        <ele>14.6</ele>
        <time>2020-07-19T14:09:06Z</time>
      </trkpt>
      <trkpt lat="51.441536322454" lon="4.927114926467">
        <ele>11.8</ele>
        <time>2020-07-19T14:09:08Z</time>
      </trkpt>
      <trkpt lat="51.440989068203" lon="4.927275104576">
        <ele>11.6</ele>
        <time>2020-07-19T14:09:22Z</time>
      </trkpt>
      <trkpt lat="51.440713052236" lon="4.927341405405">
        <ele>12.2</ele>
        <time>2020-07-19T14:09:29Z</time>
      </trkpt>
      <trkpt lat="51.440443993246" lon="4.927397480316">
        <ele>18.6</ele>
        <time>2020-07-19T14:11:42Z</time>
      </trkpt>
      <trkpt lat="51.439896152262" lon="4.927471408674">
        <ele>16</ele>
        <time>2020-07-19T14:11:53Z</time>
      </trkpt>
      <trkpt lat="51.439341019025" lon="4.927566543239">
        <ele>13</ele>
        <time>2020-07-19T14:12:04Z</time>
      </trkpt>
      <trkpt lat="51.438770966006" lon="4.927688918979">
        <ele>10.4</ele>
        <time>2020-07-19T14:12:17Z</time>
      </trkpt>
      <trkpt lat="51.438400569845" lon="4.927750609763">
        <ele>12.6</ele>
        <time>2020-07-19T14:12:26Z</time>
      </trkpt>
      <trkpt lat="51.43816545755" lon="4.927865525612">
        <ele>15.2</ele>
        <time>2020-07-19T14:13:16Z</time>
      </trkpt>
      <trkpt lat="51.437628596855" lon="4.92794783587">
        <ele>15</ele>
        <time>2020-07-19T14:13:28Z</time>
      </trkpt>
      <trkpt lat="51.437085533554" lon="4.928024194979">
        <ele>14.2</ele>
        <time>2020-07-19T14:13:38Z</time>
      </trkpt>
      <trkpt lat="51.436546828841" lon="4.928115557689">
        <ele>14.8</ele>
        <time>2020-07-19T14:13:47Z</time>
      </trkpt>
      <trkpt lat="51.435966130809" lon="4.928197867947">
        <ele>15.8</ele>
        <time>2020-07-19T14:13:57Z</time>
      </trkpt>
      <trkpt lat="51.43540697426" lon="4.92828562644">
        <ele>15.4</ele>
        <time>2020-07-19T14:14:07Z</time>
      </trkpt>
      <trkpt lat="51.434832311196" lon="4.928389813457">
        <ele>15.8</ele>
        <time>2020-07-19T14:14:17Z</time>
      </trkpt>
      <trkpt lat="51.434459149008" lon="4.928435578631">
        <ele>13.6</ele>
        <time>2020-07-19T14:14:25Z</time>
      </trkpt>
      <trkpt lat="51.433903596676" lon="4.928463071263">
        <ele>14</ele>
        <time>2020-07-19T14:14:36Z</time>
      </trkpt>
      <trkpt lat="51.433360533375" lon="4.928552841412">
        <ele>15.4</ele>
        <time>2020-07-19T14:14:45Z</time>
      </trkpt>
      <trkpt lat="51.432803975215" lon="4.928654849135">
        <ele>17.2</ele>
        <time>2020-07-19T14:14:54Z</time>
      </trkpt>
      <trkpt lat="51.432221600803" lon="4.928739841601">
        <ele>15.4</ele>
        <time>2020-07-19T14:15:04Z</time>
      </trkpt>
      <trkpt lat="51.431641992418" lon="4.9288338027">
        <ele>16</ele>
        <time>2020-07-19T14:15:14Z</time>
      </trkpt>
      <trkpt lat="51.431047212794" lon="4.928899768253">
        <ele>15.8</ele>
        <time>2020-07-19T14:15:24Z</time>
      </trkpt>
      <trkpt lat="51.430479422888" lon="4.929001608338">
        <ele>15</ele>
        <time>2020-07-19T14:15:34Z</time>
      </trkpt>
      <trkpt lat="51.430430891687" lon="4.929002865623">
        <ele>15.6</ele>
        <time>2020-07-19T14:15:35Z</time>
      </trkpt>
      <trkpt lat="51.429886571101" lon="4.929067154796">
        <ele>16.4</ele>
        <time>2020-07-19T14:15:46Z</time>
      </trkpt>
      <trkpt lat="51.429297323531" lon="4.929149884149">
        <ele>18.4</ele>
        <time>2020-07-19T14:15:58Z</time>
      </trkpt>
      <trkpt lat="51.428755685153" lon="4.929247281827">
        <ele>20.4</ele>
        <time>2020-07-19T14:16:07Z</time>
      </trkpt>
      <trkpt lat="51.428188565799" lon="4.929319282348">
        <ele>21.4</ele>
        <time>2020-07-19T14:16:17Z</time>
      </trkpt>
      <trkpt lat="51.427589846682" lon="4.929415003646">
        <ele>15</ele>
        <time>2020-07-19T14:16:27Z</time>
      </trkpt>
      <trkpt lat="51.427015183618" lon="4.929525225631">
        <ele>13.8</ele>
        <time>2020-07-19T14:16:36Z</time>
      </trkpt>
      <trkpt lat="51.426435072319" lon="4.929583396017">
        <ele>13.8</ele>
        <time>2020-07-19T14:16:46Z</time>
      </trkpt>
      <trkpt lat="51.42588010672" lon="4.929693953278">
        <ele>16.2</ele>
        <time>2020-07-19T14:16:56Z</time>
      </trkpt>
      <trkpt lat="51.424892886538" lon="4.929807276566">
        <ele>18.2</ele>
        <time>2020-07-19T14:17:11Z</time>
      </trkpt>
      <trkpt lat="51.424342698622" lon="4.929894029231">
        <ele>19.8</ele>
        <time>2020-07-19T14:17:21Z</time>
      </trkpt>
      <trkpt lat="51.423848082703" lon="4.929975752756">
        <ele>21.4</ele>
        <time>2020-07-19T14:17:31Z</time>
      </trkpt>
      <trkpt lat="51.423800641149" lon="4.929899477466">
        <ele>22.4</ele>
        <time>2020-07-19T14:17:33Z</time>
      </trkpt>
      <trkpt lat="51.423566534682" lon="4.929113339065">
        <ele>20</ele>
        <time>2020-07-19T14:17:43Z</time>
      </trkpt>
      <trkpt lat="51.423296302226" lon="4.928312532339">
        <ele>20.8</ele>
        <time>2020-07-19T14:17:52Z</time>
      </trkpt>
      <trkpt lat="51.423004863563" lon="4.927520694246">
        <ele>18.4</ele>
        <time>2020-07-19T14:18:01Z</time>
      </trkpt>
      <trkpt lat="51.422681070766" lon="4.926804293253">
        <ele>18.2</ele>
        <time>2020-07-19T14:18:11Z</time>
      </trkpt>
      <trkpt lat="51.422392062854" lon="4.926004240898">
        <ele>16</ele>
        <time>2020-07-19T14:18:22Z</time>
      </trkpt>
      <trkpt lat="51.42215016122" lon="4.925177198825">
        <ele>13</ele>
        <time>2020-07-19T14:18:33Z</time>
      </trkpt>
      <trkpt lat="51.421851514123" lon="4.924389551682">
        <ele>11.6</ele>
        <time>2020-07-19T14:18:43Z</time>
      </trkpt>
      <trkpt lat="51.421822680387" lon="4.924298775705">
        <ele>11</ele>
        <time>2020-07-19T14:18:44Z</time>
      </trkpt>
      <trkpt lat="51.421679349897" lon="4.923877417592">
        <ele>12.8</ele>
        <time>2020-07-19T14:18:49Z</time>
      </trkpt>
      <trkpt lat="51.421594273612" lon="4.923652447396">
        <ele>13</ele>
        <time>2020-07-19T14:18:52Z</time>
      </trkpt>
      <trkpt lat="51.421463515972" lon="4.923229412903">
        <ele>12.2</ele>
        <time>2020-07-19T14:18:58Z</time>
      </trkpt>
      <trkpt lat="51.421464940895" lon="4.923075772676">
        <ele>12.2</ele>
        <time>2020-07-19T14:19:00Z</time>
      </trkpt>
      <trkpt lat="51.421509448784" lon="4.92292875415">
        <ele>12.6</ele>
        <time>2020-07-19T14:19:02Z</time>
      </trkpt>
      <trkpt lat="51.421882443334" lon="4.922219980686">
        <ele>14</ele>
        <time>2020-07-19T14:19:11Z</time>
      </trkpt>
      <trkpt lat="51.422224508673" lon="4.921539370406">
        <ele>14.6</ele>
        <time>2020-07-19T14:19:19Z</time>
      </trkpt>
      <trkpt lat="51.422564729994" lon="4.920849623855">
        <ele>14.4</ele>
        <time>2020-07-19T14:19:27Z</time>
      </trkpt>
      <trkpt lat="51.422899335442" lon="4.920165576996">
        <ele>14</ele>
        <time>2020-07-19T14:19:35Z</time>
      </trkpt>
      <trkpt lat="51.423235281994" lon="4.919453450772">
        <ele>14.4</ele>
        <time>2020-07-19T14:19:43Z</time>
      </trkpt>
      <trkpt lat="51.423587070337" lon="4.918675107538">
        <ele>17.2</ele>
        <time>2020-07-19T14:19:52Z</time>
      </trkpt>
      <trkpt lat="51.423931650246" lon="4.91792978899">
        <ele>18.4</ele>
        <time>2020-07-19T14:20:01Z</time>
      </trkpt>
      <trkpt lat="51.424282348942" lon="4.917212130712">
        <ele>18.6</ele>
        <time>2020-07-19T14:20:10Z</time>
      </trkpt>
      <trkpt lat="51.424659282985" lon="4.916472511856">
        <ele>15.8</ele>
        <time>2020-07-19T14:20:20Z</time>
      </trkpt>
      <trkpt lat="51.424978968651" lon="4.915766336781">
        <ele>16.8</ele>
        <time>2020-07-19T14:20:30Z</time>
      </trkpt>
      <trkpt lat="51.425349197174" lon="4.915016156731">
        <ele>16.2</ele>
        <time>2020-07-19T14:20:40Z</time>
      </trkpt>
      <trkpt lat="51.425706685209" lon="4.914296151521">
        <ele>16</ele>
        <time>2020-07-19T14:20:50Z</time>
      </trkpt>
      <trkpt lat="51.426039446639" lon="4.913593664482">
        <ele>17</ele>
        <time>2020-07-19T14:21:00Z</time>
      </trkpt>
      <trkpt lat="51.426378075399" lon="4.912917915704">
        <ele>16.2</ele>
        <time>2020-07-19T14:21:09Z</time>
      </trkpt>
      <trkpt lat="51.426700862368" lon="4.912223559108">
        <ele>16.6</ele>
        <time>2020-07-19T14:21:18Z</time>
      </trkpt>
      <trkpt lat="51.427039072033" lon="4.911502883346">
        <ele>17.2</ele>
        <time>2020-07-19T14:21:28Z</time>
      </trkpt>
      <trkpt lat="51.427370157083" lon="4.910817495383">
        <ele>17.6</ele>
        <time>2020-07-19T14:21:39Z</time>
      </trkpt>
      <trkpt lat="51.427711468051" lon="4.910147027202">
        <ele>15.2</ele>
        <time>2020-07-19T14:21:49Z</time>
      </trkpt>
      <trkpt lat="51.428065603326" lon="4.909442109412">
        <ele>14.4</ele>
        <time>2020-07-19T14:22:00Z</time>
      </trkpt>
      <trkpt lat="51.428406579018" lon="4.908703077289">
        <ele>14.2</ele>
        <time>2020-07-19T14:22:10Z</time>
      </trkpt>
      <trkpt lat="51.428746800339" lon="4.907957591103">
        <ele>16.8</ele>
        <time>2020-07-19T14:22:21Z</time>
      </trkpt>
      <trkpt lat="51.428842940732" lon="4.907623237112">
        <ele>16.8</ele>
        <time>2020-07-19T14:22:28Z</time>
      </trkpt>
      <trkpt lat="51.428784518889" lon="4.907546123632">
        <ele>16.2</ele>
        <time>2020-07-19T14:22:30Z</time>
      </trkpt>
      <trkpt lat="51.428652671602" lon="4.907431794516">
        <ele>15.8</ele>
        <time>2020-07-19T14:22:33Z</time>
      </trkpt>
      <trkpt lat="51.42818764379" lon="4.906935586036">
        <ele>15.6</ele>
        <time>2020-07-19T14:22:42Z</time>
      </trkpt>
      <trkpt lat="51.427721777788" lon="4.9064122202">
        <ele>15</ele>
        <time>2020-07-19T14:22:51Z</time>
      </trkpt>
      <trkpt lat="51.427268400817" lon="4.905905282888">
        <ele>14.6</ele>
        <time>2020-07-19T14:23:00Z</time>
      </trkpt>
      <trkpt lat="51.426791470707" lon="4.905423575095">
        <ele>14.2</ele>
        <time>2020-07-19T14:23:10Z</time>
      </trkpt>
      <trkpt lat="51.426645541828" lon="4.905360543207">
        <ele>14.2</ele>
        <time>2020-07-19T14:23:13Z</time>
      </trkpt>
      <trkpt lat="51.426537080042" lon="4.905354005325">
        <ele>14</ele>
        <time>2020-07-19T14:23:15Z</time>
      </trkpt>
      <trkpt lat="51.425942300418" lon="4.905470346097">
        <ele>14.8</ele>
        <time>2020-07-19T14:23:25Z</time>
      </trkpt>
      <trkpt lat="51.425378533824" lon="4.905587189783">
        <ele>15.8</ele>
        <time>2020-07-19T14:23:34Z</time>
      </trkpt>
      <trkpt lat="51.424819041999" lon="4.905691544438">
        <ele>15.6</ele>
        <time>2020-07-19T14:23:43Z</time>
      </trkpt>
      <trkpt lat="51.42427748744" lon="4.905810567418">
        <ele>15</ele>
        <time>2020-07-19T14:23:52Z</time>
      </trkpt>
      <trkpt lat="51.423699890711" lon="4.90591684991">
        <ele>14.6</ele>
        <time>2020-07-19T14:24:01Z</time>
      </trkpt>
      <trkpt lat="51.42358011336" lon="4.905914083883">
        <ele>14.4</ele>
        <time>2020-07-19T14:24:03Z</time>
      </trkpt>
      <trkpt lat="51.423056998981" lon="4.905652484784">
        <ele>14.2</ele>
        <time>2020-07-19T14:24:12Z</time>
      </trkpt>
      <trkpt lat="51.422512007843" lon="4.905384934536">
        <ele>14</ele>
        <time>2020-07-19T14:24:21Z</time>
      </trkpt>
      <trkpt lat="51.42198839055" lon="4.90512476036">
        <ele>13.6</ele>
        <time>2020-07-19T14:24:30Z</time>
      </trkpt>
      <trkpt lat="51.421470724406" lon="4.904842206511">
        <ele>13.2</ele>
        <time>2020-07-19T14:24:40Z</time>
      </trkpt>
      <trkpt lat="51.420896815713" lon="4.904550013477">
        <ele>12.4</ele>
        <time>2020-07-19T14:24:50Z</time>
      </trkpt>
      <trkpt lat="51.420331205101" lon="4.90425974828">
        <ele>12</ele>
        <time>2020-07-19T14:25:00Z</time>
      </trkpt>
      <trkpt lat="51.419772383828" lon="4.903987504168">
        <ele>11.4</ele>
        <time>2020-07-19T14:25:10Z</time>
      </trkpt>
      <trkpt lat="51.41921230527" lon="4.903711488201">
        <ele>12.2</ele>
        <time>2020-07-19T14:25:21Z</time>
      </trkpt>
      <trkpt lat="51.418662955544" lon="4.903440082279">
        <ele>13.2</ele>
        <time>2020-07-19T14:25:31Z</time>
      </trkpt>
      <trkpt lat="51.418105810651" lon="4.903174795144">
        <ele>13.2</ele>
        <time>2020-07-19T14:25:41Z</time>
      </trkpt>
      <trkpt lat="51.417955355546" lon="4.903093071619">
        <ele>13.2</ele>
        <time>2020-07-19T14:25:44Z</time>
      </trkpt>
      <trkpt lat="51.417417405204" lon="4.902819821679">
        <ele>13.2</ele>
        <time>2020-07-19T14:25:55Z</time>
      </trkpt>
      <trkpt lat="51.41685866775" lon="4.902538022201">
        <ele>13.2</ele>
        <time>2020-07-19T14:26:05Z</time>
      </trkpt>
      <trkpt lat="51.416304875617" lon="4.902262090053">
        <ele>13.4</ele>
        <time>2020-07-19T14:26:15Z</time>
      </trkpt>
      <trkpt lat="51.415760387393" lon="4.901969980838">
        <ele>12.4</ele>
        <time>2020-07-19T14:26:26Z</time>
      </trkpt>
      <trkpt lat="51.415240793412" lon="4.901699245468">
        <ele>9.8</ele>
        <time>2020-07-19T14:26:36Z</time>
      </trkpt>
      <trkpt lat="51.414709464771" lon="4.901456170368">
        <ele>14.2</ele>
        <time>2020-07-19T14:26:45Z</time>
      </trkpt>
      <trkpt lat="51.414191714808" lon="4.901199348952">
        <ele>13.6</ele>
        <time>2020-07-19T14:26:54Z</time>
      </trkpt>
      <trkpt lat="51.414036398201" lon="4.901114775581">
        <ele>13.2</ele>
        <time>2020-07-19T14:26:57Z</time>
      </trkpt>
      <trkpt lat="51.413750156316" lon="4.900946299391">
        <ele>13.2</ele>
        <time>2020-07-19T14:27:03Z</time>
      </trkpt>
      <trkpt lat="51.41366516385" lon="4.90085418231">
        <ele>13.4</ele>
        <time>2020-07-19T14:27:05Z</time>
      </trkpt>
      <trkpt lat="51.413571035113" lon="4.900759131564">
        <ele>13.4</ele>
        <time>2020-07-19T14:27:07Z</time>
      </trkpt>
      <trkpt lat="51.41307591628" lon="4.900408600506">
        <ele>13.4</ele>
        <time>2020-07-19T14:27:16Z</time>
      </trkpt>
      <trkpt lat="51.412631927037" lon="4.900128812684">
        <ele>14.4</ele>
        <time>2020-07-19T14:27:24Z</time>
      </trkpt>
      <trkpt lat="51.412294890838" lon="4.900146917588">
        <ele>13.8</ele>
        <time>2020-07-19T14:27:30Z</time>
      </trkpt>
      <trkpt lat="51.411921141917" lon="4.900330816474">
        <ele>10.8</ele>
        <time>2020-07-19T14:27:37Z</time>
      </trkpt>
      <trkpt lat="51.411386544335" lon="4.900197544264">
        <ele>9.8</ele>
        <time>2020-07-19T14:27:47Z</time>
      </trkpt>
      <trkpt lat="51.410824035026" lon="4.899992774447">
        <ele>8.8</ele>
        <time>2020-07-19T14:27:57Z</time>
      </trkpt>
      <trkpt lat="51.410736360352" lon="4.899916331519">
        <ele>8.4</ele>
        <time>2020-07-19T14:27:59Z</time>
      </trkpt>
      <trkpt lat="51.41030988928" lon="4.899366814155">
        <ele>10.2</ele>
        <time>2020-07-19T14:28:09Z</time>
      </trkpt>
      <trkpt lat="51.409959106765" lon="4.898878736118">
        <ele>11.4</ele>
        <time>2020-07-19T14:28:17Z</time>
      </trkpt>
      <trkpt lat="51.409554093357" lon="4.898210782507">
        <ele>13.4</ele>
        <time>2020-07-19T14:28:27Z</time>
      </trkpt>
      <trkpt lat="51.409156456021" lon="4.897556910488">
        <ele>12.8</ele>
        <time>2020-07-19T14:28:37Z</time>
      </trkpt>
      <trkpt lat="51.408822688763" lon="4.896841515323">
        <ele>11.8</ele>
        <time>2020-07-19T14:28:47Z</time>
      </trkpt>
      <trkpt lat="51.408530831005" lon="4.89607482293">
        <ele>13.2</ele>
        <time>2020-07-19T14:28:57Z</time>
      </trkpt>
      <trkpt lat="51.408445251806" lon="4.895668468418">
        <ele>12.6</ele>
        <time>2020-07-19T14:29:02Z</time>
      </trkpt>
      <trkpt lat="51.408265376232" lon="4.89483262535">
        <ele>12.4</ele>
        <time>2020-07-19T14:29:12Z</time>
      </trkpt>
      <trkpt lat="51.40816496107" lon="4.894377655818">
        <ele>12.2</ele>
        <time>2020-07-19T14:29:18Z</time>
      </trkpt>
      <trkpt lat="51.407745530794" lon="4.893758820141">
        <ele>12.8</ele>
        <time>2020-07-19T14:29:29Z</time>
      </trkpt>
      <trkpt lat="51.40759750644" lon="4.893606940113">
        <ele>12.4</ele>
        <time>2020-07-19T14:29:33Z</time>
      </trkpt>
      <trkpt lat="51.407072464224" lon="4.893286500076">
        <ele>14.6</ele>
        <time>2020-07-19T14:29:45Z</time>
      </trkpt>
      <trkpt lat="51.406988309948" lon="4.893279543099">
        <ele>14.4</ele>
        <time>2020-07-19T14:29:47Z</time>
      </trkpt>
      <trkpt lat="51.406432003245" lon="4.89305733893">
        <ele>13</ele>
        <time>2020-07-19T14:30:00Z</time>
      </trkpt>
      <trkpt lat="51.406083400024" lon="4.892889030378">
        <ele>12.6</ele>
        <time>2020-07-19T14:30:08Z</time>
      </trkpt>
      <trkpt lat="51.40561853985" lon="4.89259801081">
        <ele>14.8</ele>
        <time>2020-07-19T14:30:18Z</time>
      </trkpt>
      <trkpt lat="51.405102885362" lon="4.89229123327">
        <ele>14.4</ele>
        <time>2020-07-19T14:30:28Z</time>
      </trkpt>
      <trkpt lat="51.404609610547" lon="4.891936511262">
        <ele>13.2</ele>
        <time>2020-07-19T14:30:38Z</time>
      </trkpt>
      <trkpt lat="51.404228066459" lon="4.891608695153">
        <ele>13.2</ele>
        <time>2020-07-19T14:30:48Z</time>
      </trkpt>
      <trkpt lat="51.403684164968" lon="4.891579945236">
        <ele>14.2</ele>
        <time>2020-07-19T14:30:59Z</time>
      </trkpt>
      <trkpt lat="51.403331035521" lon="4.891663596598">
        <ele>15</ele>
        <time>2020-07-19T14:31:11Z</time>
      </trkpt>
      <trkpt lat="51.403826573449" lon="4.890689284542">
        <ele>4.6</ele>
        <time>2020-07-19T14:33:24Z</time>
      </trkpt>
      <trkpt lat="51.403466654663" lon="4.889950000962">
        <ele>4.4</ele>
        <time>2020-07-19T14:33:35Z</time>
      </trkpt>
      <trkpt lat="51.403110256275" lon="4.889255895823">
        <ele>9.8</ele>
        <time>2020-07-19T14:33:45Z</time>
      </trkpt>
      <trkpt lat="51.402804233106" lon="4.888849373673">
        <ele>12.2</ele>
        <time>2020-07-19T14:33:51Z</time>
      </trkpt>
      <trkpt lat="51.402285561134" lon="4.888451987794">
        <ele>10.2</ele>
        <time>2020-07-19T14:34:02Z</time>
      </trkpt>
      <trkpt lat="51.40176789499" lon="4.888001209212">
        <ele>10.8</ele>
        <time>2020-07-19T14:34:12Z</time>
      </trkpt>
      <trkpt lat="51.401288785586" lon="4.88754037235">
        <ele>12.2</ele>
        <time>2020-07-19T14:34:21Z</time>
      </trkpt>
      <trkpt lat="51.400820069738" lon="4.88699219609">
        <ele>14.6</ele>
        <time>2020-07-19T14:34:31Z</time>
      </trkpt>
      <trkpt lat="51.400419582556" lon="4.886389369842">
        <ele>14.6</ele>
        <time>2020-07-19T14:34:39Z</time>
      </trkpt>
      <trkpt lat="51.400313383883" lon="4.886297168942">
        <ele>15.8</ele>
        <time>2020-07-19T14:34:42Z</time>
      </trkpt>
      <trkpt lat="51.400203916269" lon="4.88625123613">
        <ele>16.6</ele>
        <time>2020-07-19T14:34:44Z</time>
      </trkpt>
      <trkpt lat="51.399718855716" lon="4.886191221726">
        <ele>15.6</ele>
        <time>2020-07-19T14:34:52Z</time>
      </trkpt>
      <trkpt lat="51.39960787936" lon="4.886102960319">
        <ele>16.2</ele>
        <time>2020-07-19T14:34:54Z</time>
      </trkpt>
      <trkpt lat="51.399116783839" lon="4.885608092943">
        <ele>14.6</ele>
        <time>2020-07-19T14:35:05Z</time>
      </trkpt>
      <trkpt lat="51.39862803525" lon="4.885200062051">
        <ele>15</ele>
        <time>2020-07-19T14:35:15Z</time>
      </trkpt>
      <trkpt lat="51.398137358824" lon="4.884758922654">
        <ele>14.8</ele>
        <time>2020-07-19T14:35:25Z</time>
      </trkpt>
      <trkpt lat="51.397650873348" lon="4.884305042769">
        <ele>14.6</ele>
        <time>2020-07-19T14:35:36Z</time>
      </trkpt>
      <trkpt lat="51.397159442551" lon="4.883862981363">
        <ele>14.6</ele>
        <time>2020-07-19T14:35:47Z</time>
      </trkpt>
      <trkpt lat="51.396725008674" lon="4.88349442922">
        <ele>14.8</ele>
        <time>2020-07-19T14:35:59Z</time>
      </trkpt>
      <trkpt lat="51.396536164467" lon="4.883149011121">
        <ele>14.4</ele>
        <time>2020-07-19T14:36:05Z</time>
      </trkpt>
      <trkpt lat="51.396391995787" lon="4.882297577719">
        <ele>15</ele>
        <time>2020-07-19T14:36:16Z</time>
      </trkpt>
      <trkpt lat="51.396200720829" lon="4.881487969998">
        <ele>15.2</ele>
        <time>2020-07-19T14:36:27Z</time>
      </trkpt>
      <trkpt lat="51.396116315096" lon="4.881258808852">
        <ele>15</ele>
        <time>2020-07-19T14:36:30Z</time>
      </trkpt>
      <trkpt lat="51.396055043407" lon="4.881106761186">
        <ele>14.8</ele>
        <time>2020-07-19T14:36:32Z</time>
      </trkpt>
      <trkpt lat="51.395946833078" lon="4.880613654009">
        <ele>14.4</ele>
        <time>2020-07-19T14:36:38Z</time>
      </trkpt>
      <trkpt lat="51.395780955277" lon="4.8797913058">
        <ele>14</ele>
        <time>2020-07-19T14:36:49Z</time>
      </trkpt>
      <trkpt lat="51.395662267573" lon="4.879370953515">
        <ele>15.2</ele>
        <time>2020-07-19T14:36:55Z</time>
      </trkpt>
      <trkpt lat="51.395419779206" lon="4.878789501112">
        <ele>15.4</ele>
        <time>2020-07-19T14:37:04Z</time>
      </trkpt>
      <trkpt lat="51.395135213701" lon="4.878116685999">
        <ele>15.6</ele>
        <time>2020-07-19T14:37:14Z</time>
      </trkpt>
      <trkpt lat="51.394718130357" lon="4.877526935515">
        <ele>14.6</ele>
        <time>2020-07-19T14:37:24Z</time>
      </trkpt>
      <trkpt lat="51.39468267492" lon="4.877479410142">
        <ele>14.4</ele>
        <time>2020-07-19T14:37:26Z</time>
      </trkpt>
      <trkpt lat="51.394373801905" lon="4.877039444211">
        <ele>19.2</ele>
        <time>2020-07-19T14:39:33Z</time>
      </trkpt>
      <trkpt lat="51.394014972766" lon="4.876299070984">
        <ele>18.4</ele>
        <time>2020-07-19T14:39:46Z</time>
      </trkpt>
      <trkpt lat="51.39367936149" lon="4.875556602282">
        <ele>17.4</ele>
        <time>2020-07-19T14:39:56Z</time>
      </trkpt>
      <trkpt lat="51.393358921453" lon="4.874837183805">
        <ele>17</ele>
        <time>2020-07-19T14:40:06Z</time>
      </trkpt>
      <trkpt lat="51.392953069855" lon="4.874237877955">
        <ele>16.6</ele>
        <time>2020-07-19T14:40:16Z</time>
      </trkpt>
      <trkpt lat="51.39260815467" lon="4.873927915293">
        <ele>16.4</ele>
        <time>2020-07-19T14:40:23Z</time>
      </trkpt>
      <trkpt lat="51.392083615368" lon="4.873468419535">
        <ele>16.4</ele>
        <time>2020-07-19T14:40:33Z</time>
      </trkpt>
      <trkpt lat="51.391606936715" lon="4.87302962707">
        <ele>14</ele>
        <time>2020-07-19T14:40:43Z</time>
      </trkpt>
      <trkpt lat="51.391136879763" lon="4.872591672795">
        <ele>12.2</ele>
        <time>2020-07-19T14:40:53Z</time>
      </trkpt>
      <trkpt lat="51.390662883318" lon="4.872134691607">
        <ele>9.4</ele>
        <time>2020-07-19T14:41:03Z</time>
      </trkpt>
      <trkpt lat="51.390161058965" lon="4.871689528898">
        <ele>12.2</ele>
        <time>2020-07-19T14:41:13Z</time>
      </trkpt>
      <trkpt lat="51.389630400876" lon="4.871276217409">
        <ele>13.8</ele>
        <time>2020-07-19T14:41:23Z</time>
      </trkpt>
      <trkpt lat="51.38913972445" lon="4.870870030535">
        <ele>13.2</ele>
        <time>2020-07-19T14:41:33Z</time>
      </trkpt>
      <trkpt lat="51.388658100476" lon="4.870396788461">
        <ele>16.8</ele>
        <time>2020-07-19T14:41:44Z</time>
      </trkpt>
      <trkpt lat="51.388162562548" lon="4.869969646837">
        <ele>14.8</ele>
        <time>2020-07-19T14:41:54Z</time>
      </trkpt>
      <trkpt lat="51.387681190031" lon="4.869546444706">
        <ele>17.2</ele>
        <time>2020-07-19T14:42:04Z</time>
      </trkpt>
      <trkpt lat="51.387188501949" lon="4.869188453757">
        <ele>19.6</ele>
        <time>2020-07-19T14:42:14Z</time>
      </trkpt>
      <trkpt lat="51.386669494701" lon="4.868890561031">
        <ele>23.6</ele>
        <time>2020-07-19T14:42:24Z</time>
      </trkpt>
      <trkpt lat="51.386139507164" lon="4.868629464846">
        <ele>24.2</ele>
        <time>2020-07-19T14:42:34Z</time>
      </trkpt>
      <trkpt lat="51.385607172695" lon="4.868386641203">
        <ele>24.8</ele>
        <time>2020-07-19T14:42:45Z</time>
      </trkpt>
      <trkpt lat="51.385042064997" lon="4.868096376006">
        <ele>18.8</ele>
        <time>2020-07-19T14:42:55Z</time>
      </trkpt>
      <trkpt lat="51.384475783833" lon="4.867818348383">
        <ele>13.2</ele>
        <time>2020-07-19T14:43:05Z</time>
      </trkpt>
      <trkpt lat="51.383924170994" lon="4.867557168379">
        <ele>7.8</ele>
        <time>2020-07-19T14:43:14Z</time>
      </trkpt>
      <trkpt lat="51.383396027475" lon="4.867317948953">
        <ele>8.2</ele>
        <time>2020-07-19T14:43:23Z</time>
      </trkpt>
      <trkpt lat="51.382885569765" lon="4.867011003775">
        <ele>9.6</ele>
        <time>2020-07-19T14:43:33Z</time>
      </trkpt>
      <trkpt lat="51.382388606914" lon="4.866618982312">
        <ele>11.4</ele>
        <time>2020-07-19T14:43:43Z</time>
      </trkpt>
      <trkpt lat="51.381879909403" lon="4.866200976959">
        <ele>9.6</ele>
        <time>2020-07-19T14:43:54Z</time>
      </trkpt>
      <trkpt lat="51.381391831366" lon="4.865800154501">
        <ele>10</ele>
        <time>2020-07-19T14:44:04Z</time>
      </trkpt>
      <trkpt lat="51.381286303245" lon="4.865721029365">
        <ele>9.6</ele>
        <time>2020-07-19T14:44:05Z</time>
      </trkpt>
      <trkpt lat="51.380773163327" lon="4.865316770328">
        <ele>11.2</ele>
        <time>2020-07-19T14:44:17Z</time>
      </trkpt>
      <trkpt lat="51.380256838287" lon="4.864935729154">
        <ele>12.4</ele>
        <time>2020-07-19T14:44:27Z</time>
      </trkpt>
      <trkpt lat="51.37996824947" lon="4.864728277129">
        <ele>14.8</ele>
        <time>2020-07-19T14:44:33Z</time>
      </trkpt>
      <trkpt lat="51.379450834783" lon="4.864297866564">
        <ele>18.2</ele>
        <time>2020-07-19T14:44:44Z</time>
      </trkpt>
      <trkpt lat="51.378960996547" lon="4.863824373033">
        <ele>17.2</ele>
        <time>2020-07-19T14:44:55Z</time>
      </trkpt>
      <trkpt lat="51.378451041751" lon="4.863422796204">
        <ele>13.8</ele>
        <time>2020-07-19T14:45:05Z</time>
      </trkpt>
      <trkpt lat="51.377953408348" lon="4.863046029799">
        <ele>13.2</ele>
        <time>2020-07-19T14:45:15Z</time>
      </trkpt>
      <trkpt lat="51.377618048529" lon="4.862817036291">
        <ele>15.8</ele>
        <time>2020-07-19T14:45:21Z</time>
      </trkpt>
      <trkpt lat="51.377202473927" lon="4.862229381282">
        <ele>14.8</ele>
        <time>2020-07-19T14:45:31Z</time>
      </trkpt>
      <trkpt lat="51.376872394705" lon="4.861449780763">
        <ele>13</ele>
        <time>2020-07-19T14:45:41Z</time>
      </trkpt>
      <trkpt lat="51.376585901363" lon="4.860708317889">
        <ele>12.6</ele>
        <time>2020-07-19T14:45:50Z</time>
      </trkpt>
      <trkpt lat="51.376297312546" lon="4.859947492826">
        <ele>11.4</ele>
        <time>2020-07-19T14:46:00Z</time>
      </trkpt>
      <trkpt lat="51.375983410391" lon="4.85929001659">
        <ele>11.2</ele>
        <time>2020-07-19T14:46:11Z</time>
      </trkpt>
      <trkpt lat="51.375656851567" lon="4.858576884538">
        <ele>12.6</ele>
        <time>2020-07-19T14:46:21Z</time>
      </trkpt>
      <trkpt lat="51.375250748512" lon="4.857975315575">
        <ele>14.2</ele>
        <time>2020-07-19T14:46:33Z</time>
      </trkpt>
      <trkpt lat="51.374844980733" lon="4.857437281414">
        <ele>10.2</ele>
        <time>2020-07-19T14:46:56Z</time>
      </trkpt>
      <trkpt lat="51.37479829355" lon="4.857483465683">
        <ele>12</ele>
        <time>2020-07-19T14:47:39Z</time>
      </trkpt>
      <trkpt lat="51.374275849723" lon="4.857752524673">
        <ele>11.6</ele>
        <time>2020-07-19T14:47:54Z</time>
      </trkpt>
      <trkpt lat="51.373732870241" lon="4.857990151538">
        <ele>11.6</ele>
        <time>2020-07-19T14:48:03Z</time>
      </trkpt>
      <trkpt lat="51.373155608788" lon="4.858150413466">
        <ele>11.8</ele>
        <time>2020-07-19T14:48:13Z</time>
      </trkpt>
      <trkpt lat="51.372597793343" lon="4.858340431139">
        <ele>11.8</ele>
        <time>2020-07-19T14:48:23Z</time>
      </trkpt>
      <trkpt lat="51.372324711041" lon="4.858440259568">
        <ele>10.8</ele>
        <time>2020-07-19T14:48:32Z</time>
      </trkpt>
      <trkpt lat="51.372318256978" lon="4.858481414697">
        <ele>10.8</ele>
        <time>2020-07-19T14:48:34Z</time>
      </trkpt>
      <trkpt lat="51.372347090714" lon="4.858482169068">
        <ele>10.4</ele>
        <time>2020-07-19T14:48:36Z</time>
      </trkpt>
      <trkpt lat="51.372415738475" lon="4.858224928557">
        <ele>10.4</ele>
        <time>2020-07-19T14:48:41Z</time>
      </trkpt>
      <trkpt lat="51.372396208648" lon="4.858160639384">
        <ele>10.4</ele>
        <time>2020-07-19T14:48:43Z</time>
      </trkpt>
      <trkpt lat="51.372097561551" lon="4.857401490701">
        <ele>11</ele>
        <time>2020-07-19T14:48:54Z</time>
      </trkpt>
      <trkpt lat="51.371725153734" lon="4.856721886249">
        <ele>14</ele>
        <time>2020-07-19T14:49:05Z</time>
      </trkpt>
      <trkpt lat="51.371286864183" lon="4.856108498807">
        <ele>14.2</ele>
        <time>2020-07-19T14:49:16Z</time>
      </trkpt>
      <trkpt lat="51.370916468022" lon="4.855399306248">
        <ele>13.6</ele>
        <time>2020-07-19T14:49:28Z</time>
      </trkpt>
      <trkpt lat="51.370737346819" lon="4.85497501447">
        <ele>13.6</ele>
        <time>2020-07-19T14:49:36Z</time>
      </trkpt>
      <trkpt lat="51.370362675889" lon="4.854060800637">
        <ele>13.8</ele>
        <time>2020-07-19T14:49:50Z</time>
      </trkpt>
      <trkpt lat="51.37005413815" lon="4.853308357474">
        <ele>13.8</ele>
        <time>2020-07-19T14:50:01Z</time>
      </trkpt>
      <trkpt lat="51.369943748527" lon="4.853018343734">
        <ele>14.4</ele>
        <time>2020-07-19T14:50:06Z</time>
      </trkpt>
      <trkpt lat="51.369872837653" lon="4.852829834803">
        <ele>13.4</ele>
        <time>2020-07-19T14:51:16Z</time>
      </trkpt>
      <trkpt lat="51.369625320146" lon="4.852040595099">
        <ele>13</ele>
        <time>2020-07-19T14:51:30Z</time>
      </trkpt>
      <trkpt lat="51.369325918678" lon="4.851274321801">
        <ele>12.4</ele>
        <time>2020-07-19T14:51:41Z</time>
      </trkpt>
      <trkpt lat="51.368992738153" lon="4.850545012682">
        <ele>12.2</ele>
        <time>2020-07-19T14:51:50Z</time>
      </trkpt>
      <trkpt lat="51.368664586768" lon="4.849827019128">
        <ele>12</ele>
        <time>2020-07-19T14:51:59Z</time>
      </trkpt>
      <trkpt lat="51.368476748389" lon="4.849516134457">
        <ele>11.6</ele>
        <time>2020-07-19T14:52:04Z</time>
      </trkpt>
      <trkpt lat="51.367999231546" lon="4.84911019904">
        <ele>13</ele>
        <time>2020-07-19T14:52:15Z</time>
      </trkpt>
      <trkpt lat="51.367509141853" lon="4.848705269451">
        <ele>12.2</ele>
        <time>2020-07-19T14:52:28Z</time>
      </trkpt>
      <trkpt lat="51.36743563259" lon="4.848649362178">
        <ele>12.2</ele>
        <time>2020-07-19T14:52:31Z</time>
      </trkpt>
      <trkpt lat="51.367363715888" lon="4.848748603874">
        <ele>12</ele>
        <time>2020-07-19T14:52:38Z</time>
      </trkpt>
      <trkpt lat="51.36731828599" lon="4.848815659074">
        <ele>12</ele>
        <time>2020-07-19T14:52:42Z</time>
      </trkpt>
      <trkpt lat="51.367294397575" lon="4.848837284376">
        <ele>12</ele>
        <time>2020-07-19T14:52:44Z</time>
      </trkpt>
      <trkpt lat="51.367276041214" lon="4.848894029839">
        <ele>12.2</ele>
        <time>2020-07-19T14:52:46Z</time>
      </trkpt>
      <trkpt lat="51.366882091914" lon="4.84811526751">
        <ele>24</ele>
        <time>2020-07-19T14:58:49Z</time>
      </trkpt>
      <trkpt lat="51.366452854815" lon="4.847540772084">
        <ele>23.4</ele>
        <time>2020-07-19T14:59:02Z</time>
      </trkpt>
      <trkpt lat="51.366000232215" lon="4.847024279406">
        <ele>23.8</ele>
        <time>2020-07-19T14:59:17Z</time>
      </trkpt>
      <trkpt lat="51.365561188293" lon="4.846516252447">
        <ele>23</ele>
        <time>2020-07-19T14:59:28Z</time>
      </trkpt>
      <trkpt lat="51.365122563466" lon="4.846013254628">
        <ele>19.6</ele>
        <time>2020-07-19T14:59:38Z</time>
      </trkpt>
      <trkpt lat="51.364652590333" lon="4.845473208811">
        <ele>16.6</ele>
        <time>2020-07-19T14:59:49Z</time>
      </trkpt>
      <trkpt lat="51.364180270268" lon="4.844970127173">
        <ele>14.4</ele>
        <time>2020-07-19T15:00:00Z</time>
      </trkpt>
      <trkpt lat="51.363925879603" lon="4.84473652362">
        <ele>13.8</ele>
        <time>2020-07-19T15:00:07Z</time>
      </trkpt>
      <trkpt lat="51.363832505237" lon="4.844652536982">
        <ele>14</ele>
        <time>2020-07-19T15:00:11Z</time>
      </trkpt>
      <trkpt lat="51.363348199055" lon="4.844229586308">
        <ele>15</ele>
        <time>2020-07-19T15:00:25Z</time>
      </trkpt>
      <trkpt lat="51.362846709978" lon="4.843772940396">
        <ele>14.4</ele>
        <time>2020-07-19T15:00:37Z</time>
      </trkpt>
      <trkpt lat="51.362357123199" lon="4.843350911731">
        <ele>15.2</ele>
        <time>2020-07-19T15:00:48Z</time>
      </trkpt>
      <trkpt lat="51.361871978827" lon="4.842916729311">
        <ele>15.6</ele>
        <time>2020-07-19T15:00:59Z</time>
      </trkpt>
      <trkpt lat="51.361532344239" lon="4.842628811046">
        <ele>16.6</ele>
        <time>2020-07-19T15:01:06Z</time>
      </trkpt>
      <trkpt lat="51.361013085534" lon="4.842168980012">
        <ele>16.8</ele>
        <time>2020-07-19T15:01:17Z</time>
      </trkpt>
      <trkpt lat="51.360726508373" lon="4.841916265727">
        <ele>17</ele>
        <time>2020-07-19T15:01:23Z</time>
      </trkpt>
      <trkpt lat="51.360486115481" lon="4.841732115384">
        <ele>17.4</ele>
        <time>2020-07-19T15:01:28Z</time>
      </trkpt>
      <trkpt lat="51.360382682835" lon="4.841692385178">
        <ele>17.6</ele>
        <time>2020-07-19T15:01:30Z</time>
      </trkpt>
      <trkpt lat="51.360277825266" lon="4.841678387405">
        <ele>17.4</ele>
        <time>2020-07-19T15:01:32Z</time>
      </trkpt>
      <trkpt lat="51.359722943486" lon="4.841831105623">
        <ele>16.8</ele>
        <time>2020-07-19T15:01:43Z</time>
      </trkpt>
      <trkpt lat="51.359180550737" lon="4.842022883495">
        <ele>16.4</ele>
        <time>2020-07-19T15:01:55Z</time>
      </trkpt>
      <trkpt lat="51.358600690895" lon="4.842212482073">
        <ele>15</ele>
        <time>2020-07-19T15:02:07Z</time>
      </trkpt>
      <trkpt lat="51.358050251522" lon="4.842417922442">
        <ele>14.6</ele>
        <time>2020-07-19T15:02:17Z</time>
      </trkpt>
      <trkpt lat="51.357776498668" lon="4.842428064541">
        <ele>14.8</ele>
        <time>2020-07-19T15:02:25Z</time>
      </trkpt>
      <trkpt lat="51.357913961828" lon="4.842590254306">
        <ele>14.8</ele>
        <time>2020-07-19T15:02:33Z</time>
      </trkpt>
      <trkpt lat="51.356473113218" lon="4.839680226264">
        <ele>22.8</ele>
        <time>2020-07-19T16:08:26Z</time>
      </trkpt>
      <trkpt lat="51.356218219639" lon="4.838887717619">
        <ele>15</ele>
        <time>2020-07-19T16:08:35Z</time>
      </trkpt>
      <trkpt lat="51.35595829692" lon="4.838082803762">
        <ele>18.4</ele>
        <time>2020-07-19T16:08:45Z</time>
      </trkpt>
      <trkpt lat="51.355830137669" lon="4.837703606606">
        <ele>19</ele>
        <time>2020-07-19T16:08:51Z</time>
      </trkpt>
      <trkpt lat="51.355550014571" lon="4.836930041055">
        <ele>18.4</ele>
        <time>2020-07-19T16:09:00Z</time>
      </trkpt>
      <trkpt lat="51.355268718007" lon="4.836122780266">
        <ele>19.2</ele>
        <time>2020-07-19T16:09:09Z</time>
      </trkpt>
      <trkpt lat="51.354973926584" lon="4.835302276075">
        <ele>19.2</ele>
        <time>2020-07-19T16:09:18Z</time>
      </trkpt>
      <trkpt lat="51.354684499577" lon="4.834509180697">
        <ele>18.8</ele>
        <time>2020-07-19T16:09:27Z</time>
      </trkpt>
      <trkpt lat="51.354411081999" lon="4.833708122514">
        <ele>19.6</ele>
        <time>2020-07-19T16:09:36Z</time>
      </trkpt>
      <trkpt lat="51.354134479299" lon="4.832903879209">
        <ele>20</ele>
        <time>2020-07-19T16:09:46Z</time>
      </trkpt>
      <trkpt lat="51.354046636987" lon="4.832595676746">
        <ele>20</ele>
        <time>2020-07-19T16:09:50Z</time>
      </trkpt>
      <trkpt lat="51.354053342507" lon="4.83244949641">
        <ele>19.8</ele>
        <time>2020-07-19T16:09:52Z</time>
      </trkpt>
      <trkpt lat="51.354041943123" lon="4.832301388237">
        <ele>20</ele>
        <time>2020-07-19T16:09:54Z</time>
      </trkpt>
      <trkpt lat="51.353782942413" lon="4.831505526832">
        <ele>21.6</ele>
        <time>2020-07-19T16:10:03Z</time>
      </trkpt>
      <trkpt lat="51.353703062906" lon="4.831210316314">
        <ele>21.6</ele>
        <time>2020-07-19T16:10:06Z</time>
      </trkpt>
      <trkpt lat="51.353648580556" lon="4.831006887601">
        <ele>21.6</ele>
        <time>2020-07-19T16:10:08Z</time>
      </trkpt>
      <trkpt lat="51.353578256415" lon="4.830829694235">
        <ele>22</ele>
        <time>2020-07-19T16:10:10Z</time>
      </trkpt>
      <trkpt lat="51.353495275605" lon="4.830681166967">
        <ele>22.4</ele>
        <time>2020-07-19T16:10:12Z</time>
      </trkpt>
      <trkpt lat="51.353312382547" lon="4.830140450598">
        <ele>22.6</ele>
        <time>2020-07-19T16:10:19Z</time>
      </trkpt>
      <trkpt lat="51.353331493279" lon="4.830016817573">
        <ele>22.6</ele>
        <time>2020-07-19T16:10:21Z</time>
      </trkpt>
      <trkpt lat="51.353438194866" lon="4.82992905908">
        <ele>22.6</ele>
        <time>2020-07-19T16:10:24Z</time>
      </trkpt>
      <trkpt lat="51.35811831255" lon="4.827786561621">
        <ele>23</ele>
        <time>2020-07-19T16:12:34Z</time>
      </trkpt>
      <trkpt lat="51.358110601202" lon="4.827706346838">
        <ele>22.8</ele>
        <time>2020-07-19T16:12:35Z</time>
      </trkpt>
      <trkpt lat="51.358015885732" lon="4.826790456625">
        <ele>20.8</ele>
        <time>2020-07-19T16:12:45Z</time>
      </trkpt>
      <trkpt lat="51.357917398407" lon="4.825942124526">
        <ele>21.4</ele>
        <time>2020-07-19T16:12:55Z</time>
      </trkpt>
      <trkpt lat="51.35759109104" lon="4.825730230094">
        <ele>20.8</ele>
        <time>2020-07-19T16:13:05Z</time>
      </trkpt>
      <trkpt lat="51.357459746667" lon="4.825754956699">
        <ele>20.6</ele>
        <time>2020-07-19T16:13:08Z</time>
      </trkpt>
      <trkpt lat="51.357425380877" lon="4.825687901499">
        <ele>20.6</ele>
        <time>2020-07-19T16:13:10Z</time>
      </trkpt>
      <trkpt lat="51.357379364246" lon="4.825346758169">
        <ele>20</ele>
        <time>2020-07-19T16:13:16Z</time>
      </trkpt>
      <trkpt lat="51.357360253514" lon="4.825009638151">
        <ele>20.4</ele>
        <time>2020-07-19T16:13:21Z</time>
      </trkpt>
      <trkpt lat="51.357296215798" lon="4.824317544668">
        <ele>20.4</ele>
        <time>2020-07-19T16:13:30Z</time>
      </trkpt>
      <trkpt lat="51.357234441195" lon="4.824060471795">
        <ele>20.4</ele>
        <time>2020-07-19T16:13:34Z</time>
      </trkpt>
      <trkpt lat="51.357131846739" lon="4.82320677528">
        <ele>20.2</ele>
        <time>2020-07-19T16:13:44Z</time>
      </trkpt>
      <trkpt lat="51.357052386327" lon="4.822874935859">
        <ele>20.6</ele>
        <time>2020-07-19T16:13:51Z</time>
      </trkpt>
      <trkpt lat="51.356478309996" lon="4.823004268576">
        <ele>19.8</ele>
        <time>2020-07-19T16:14:03Z</time>
      </trkpt>
      <trkpt lat="51.355942287491" lon="4.82315648388">
        <ele>19.8</ele>
        <time>2020-07-19T16:14:11Z</time>
      </trkpt>
      <trkpt lat="51.355388243901" lon="4.823320517663">
        <ele>21</ele>
        <time>2020-07-19T16:14:21Z</time>
      </trkpt>
      <trkpt lat="51.354809725163" lon="4.823479019392">
        <ele>23</ele>
        <time>2020-07-19T16:14:32Z</time>
      </trkpt>
      <trkpt lat="51.354227602208" lon="4.823638526949">
        <ele>21</ele>
        <time>2020-07-19T16:14:43Z</time>
      </trkpt>
      <trkpt lat="51.353679928862" lon="4.823803063646">
        <ele>21.4</ele>
        <time>2020-07-19T16:14:52Z</time>
      </trkpt>
      <trkpt lat="51.353139799226" lon="4.823947483783">
        <ele>21</ele>
        <time>2020-07-19T16:15:02Z</time>
      </trkpt>
      <trkpt lat="51.352576116451" lon="4.82409525668">
        <ele>19.8</ele>
        <time>2020-07-19T16:15:13Z</time>
      </trkpt>
      <trkpt lat="51.352013523323" lon="4.824257362626">
        <ele>18.6</ele>
        <time>2020-07-19T16:15:23Z</time>
      </trkpt>
      <trkpt lat="51.351803053814" lon="4.824332715907">
        <ele>19</ele>
        <time>2020-07-19T16:15:27Z</time>
      </trkpt>
      <trkpt lat="51.351712277837" lon="4.824370350638">
        <ele>19</ele>
        <time>2020-07-19T16:15:29Z</time>
      </trkpt>
      <trkpt lat="51.35158378331" lon="4.824154013799">
        <ele>18</ele>
        <time>2020-07-19T16:15:34Z</time>
      </trkpt>
      <trkpt lat="51.351451181652" lon="4.823219264311">
        <ele>17.2</ele>
        <time>2020-07-19T16:15:43Z</time>
      </trkpt>
      <trkpt lat="51.351315646329" lon="4.822295578931">
        <ele>20</ele>
        <time>2020-07-19T16:15:51Z</time>
      </trkpt>
      <trkpt lat="51.351159072437" lon="4.82144238533">
        <ele>23</ele>
        <time>2020-07-19T16:15:59Z</time>
      </trkpt>
      <trkpt lat="51.351038792172" lon="4.820519789597">
        <ele>23</ele>
        <time>2020-07-19T16:16:08Z</time>
      </trkpt>
      <trkpt lat="51.350920272106" lon="4.819636672613">
        <ele>22.4</ele>
        <time>2020-07-19T16:16:17Z</time>
      </trkpt>
      <trkpt lat="51.350801500583" lon="4.818735534544">
        <ele>21.6</ele>
        <time>2020-07-19T16:16:27Z</time>
      </trkpt>
      <trkpt lat="51.350670659124" lon="4.817880161649">
        <ele>20.8</ele>
        <time>2020-07-19T16:16:37Z</time>
      </trkpt>
      <trkpt lat="51.350517521811" lon="4.816984639453">
        <ele>20.4</ele>
        <time>2020-07-19T16:16:49Z</time>
      </trkpt>
      <trkpt lat="51.350355918779" lon="4.816149718394">
        <ele>22.2</ele>
        <time>2020-07-19T16:16:59Z</time>
      </trkpt>
      <trkpt lat="51.350170343513" lon="4.815227122661">
        <ele>23.6</ele>
        <time>2020-07-19T16:17:08Z</time>
      </trkpt>
      <trkpt lat="51.34998116403" lon="4.8143202849">
        <ele>24</ele>
        <time>2020-07-19T16:17:17Z</time>
      </trkpt>
      <trkpt lat="51.349803886845" lon="4.813451500965">
        <ele>24.4</ele>
        <time>2020-07-19T16:17:25Z</time>
      </trkpt>
      <trkpt lat="51.34964588803" lon="4.812608198006">
        <ele>25.8</ele>
        <time>2020-07-19T16:17:33Z</time>
      </trkpt>
      <trkpt lat="51.349456373271" lon="4.811723907556">
        <ele>26.8</ele>
        <time>2020-07-19T16:17:42Z</time>
      </trkpt>
      <trkpt lat="51.34926786434" lon="4.810828972093">
        <ele>27.4</ele>
        <time>2020-07-19T16:17:51Z</time>
      </trkpt>
      <trkpt lat="51.349123863298" lon="4.809968150963">
        <ele>25</ele>
        <time>2020-07-19T16:17:59Z</time>
      </trkpt>
      <trkpt lat="51.348970809804" lon="4.809135157741">
        <ele>22.6</ele>
        <time>2020-07-19T16:18:08Z</time>
      </trkpt>
      <trkpt lat="51.348802249795" lon="4.808261679942">
        <ele>21.6</ele>
        <time>2020-07-19T16:18:17Z</time>
      </trkpt>
      <trkpt lat="51.348629666474" lon="4.807377976225">
        <ele>22.2</ele>
        <time>2020-07-19T16:18:26Z</time>
      </trkpt>
      <trkpt lat="51.348520450317" lon="4.806791913777">
        <ele>22</ele>
        <time>2020-07-19T16:18:32Z</time>
      </trkpt>
      <trkpt lat="51.348380975501" lon="4.805959423469">
        <ele>23.4</ele>
        <time>2020-07-19T16:18:41Z</time>
      </trkpt>
      <trkpt lat="51.348177546788" lon="4.805097345054">
        <ele>23</ele>
        <time>2020-07-19T16:18:50Z</time>
      </trkpt>
      <trkpt lat="51.347866326841" lon="4.803501012199">
        <ele>24.4</ele>
        <time>2020-07-19T16:19:07Z</time>
      </trkpt>
      <trkpt lat="51.34769290533" lon="4.802661481095">
        <ele>24.4</ele>
        <time>2020-07-19T16:19:16Z</time>
      </trkpt>
      <trkpt lat="51.347518980905" lon="4.801812646082">
        <ele>24.8</ele>
        <time>2020-07-19T16:19:25Z</time>
      </trkpt>
      <trkpt lat="51.347347654869" lon="4.80092684689">
        <ele>25.8</ele>
        <time>2020-07-19T16:19:34Z</time>
      </trkpt>
      <trkpt lat="51.347185968018" lon="4.800089662718">
        <ele>26.8</ele>
        <time>2020-07-19T16:19:43Z</time>
      </trkpt>
      <trkpt lat="51.347011875955" lon="4.799177125265">
        <ele>27.4</ele>
        <time>2020-07-19T16:19:52Z</time>
      </trkpt>
      <trkpt lat="51.346828815259" lon="4.798278501766">
        <ele>26.8</ele>
        <time>2020-07-19T16:20:02Z</time>
      </trkpt>
      <trkpt lat="51.346662686001" lon="4.797434779712">
        <ele>25.2</ele>
        <time>2020-07-19T16:20:11Z</time>
      </trkpt>
      <trkpt lat="51.346515332199" lon="4.796531881444">
        <ele>25.2</ele>
        <time>2020-07-19T16:20:21Z</time>
      </trkpt>
      <trkpt lat="51.346512063258" lon="4.796431969196">
        <ele>25.2</ele>
        <time>2020-07-19T16:20:22Z</time>
      </trkpt>
      <trkpt lat="51.346502424073" lon="4.795527143091">
        <ele>27</ele>
        <time>2020-07-19T16:20:31Z</time>
      </trkpt>
      <trkpt lat="51.346513236724" lon="4.794601194598">
        <ele>26.6</ele>
        <time>2020-07-19T16:20:40Z</time>
      </trkpt>
      <trkpt lat="51.346520948072" lon="4.793675162286">
        <ele>25.6</ele>
        <time>2020-07-19T16:20:49Z</time>
      </trkpt>
      <trkpt lat="51.346535616397" lon="4.7927117467">
        <ele>25.4</ele>
        <time>2020-07-19T16:20:59Z</time>
      </trkpt>
      <trkpt lat="51.346535197302" lon="4.79177632666">
        <ele>26.8</ele>
        <time>2020-07-19T16:21:08Z</time>
      </trkpt>
      <trkpt lat="51.346553050749" lon="4.79088197793">
        <ele>25.4</ele>
        <time>2020-07-19T16:21:18Z</time>
      </trkpt>
      <trkpt lat="51.346558918079" lon="4.789972290323">
        <ele>24.2</ele>
        <time>2020-07-19T16:21:27Z</time>
      </trkpt>
      <trkpt lat="51.346540058804" lon="4.789096046497">
        <ele>22.2</ele>
        <time>2020-07-19T16:21:36Z</time>
      </trkpt>
      <trkpt lat="51.34655883426" lon="4.788145790494">
        <ele>21.2</ele>
        <time>2020-07-19T16:21:45Z</time>
      </trkpt>
      <trkpt lat="51.346556487328" lon="4.787249094832">
        <ele>21</ele>
        <time>2020-07-19T16:21:54Z</time>
      </trkpt>
      <trkpt lat="51.346554727129" lon="4.786378885974">
        <ele>20.8</ele>
        <time>2020-07-19T16:22:03Z</time>
      </trkpt>
      <trkpt lat="51.346575095146" lon="4.785427959419">
        <ele>20</ele>
        <time>2020-07-19T16:22:13Z</time>
      </trkpt>
      <trkpt lat="51.34658146539" lon="4.784542411684">
        <ele>21.6</ele>
        <time>2020-07-19T16:22:22Z</time>
      </trkpt>
      <trkpt lat="51.346590434023" lon="4.78360313597">
        <ele>19.6</ele>
        <time>2020-07-19T16:22:33Z</time>
      </trkpt>
      <trkpt lat="51.346486582282" lon="4.782681462246">
        <ele>19.6</ele>
        <time>2020-07-19T16:22:43Z</time>
      </trkpt>
      <trkpt lat="51.346258510783" lon="4.781808654999">
        <ele>21.6</ele>
        <time>2020-07-19T16:22:53Z</time>
      </trkpt>
      <trkpt lat="51.346051310215" lon="4.780987228799">
        <ele>23</ele>
        <time>2020-07-19T16:23:02Z</time>
      </trkpt>
      <trkpt lat="51.345852575366" lon="4.780154906129">
        <ele>21</ele>
        <time>2020-07-19T16:23:11Z</time>
      </trkpt>
      <trkpt lat="51.345642357314" lon="4.779281260692">
        <ele>20.8</ele>
        <time>2020-07-19T16:23:20Z</time>
      </trkpt>
      <trkpt lat="51.345453094012" lon="4.778401999382">
        <ele>20.6</ele>
        <time>2020-07-19T16:23:29Z</time>
      </trkpt>
      <trkpt lat="51.345331305005" lon="4.777528437764">
        <ele>21</ele>
        <time>2020-07-19T16:23:38Z</time>
      </trkpt>
      <trkpt lat="51.345187723058" lon="4.776640124002">
        <ele>21.2</ele>
        <time>2020-07-19T16:23:47Z</time>
      </trkpt>
      <trkpt lat="51.345103317325" lon="4.775692717845">
        <ele>22.4</ele>
        <time>2020-07-19T16:23:57Z</time>
      </trkpt>
      <trkpt lat="51.345059479988" lon="4.774772720501">
        <ele>22.2</ele>
        <time>2020-07-19T16:24:06Z</time>
      </trkpt>
      <trkpt lat="51.345002483068" lon="4.77381307677">
        <ele>21.4</ele>
        <time>2020-07-19T16:24:16Z</time>
      </trkpt>
      <trkpt lat="51.344956298799" lon="4.772941610627">
        <ele>21</ele>
        <time>2020-07-19T16:24:24Z</time>
      </trkpt>
      <trkpt lat="51.344902989915" lon="4.772083304067">
        <ele>21.6</ele>
        <time>2020-07-19T16:24:32Z</time>
      </trkpt>
      <trkpt lat="51.344906175037" lon="4.771880462087">
        <ele>21.6</ele>
        <time>2020-07-19T16:24:34Z</time>
      </trkpt>
      <trkpt lat="51.345103149687" lon="4.771007068107">
        <ele>20.4</ele>
        <time>2020-07-19T16:24:43Z</time>
      </trkpt>
      <trkpt lat="51.345228123816" lon="4.770413210492">
        <ele>20</ele>
        <time>2020-07-19T16:24:50Z</time>
      </trkpt>
      <trkpt lat="51.345431552529" lon="4.76956764442">
        <ele>19.8</ele>
        <time>2020-07-19T16:25:01Z</time>
      </trkpt>
      <trkpt lat="51.345626934618" lon="4.768694920992">
        <ele>20</ele>
        <time>2020-07-19T16:25:13Z</time>
      </trkpt>
      <trkpt lat="51.345734139119" lon="4.768234503225">
        <ele>19.8</ele>
        <time>2020-07-19T16:25:20Z</time>
      </trkpt>
      <trkpt lat="51.345778311732" lon="4.767981118388">
        <ele>19.8</ele>
        <time>2020-07-19T16:25:25Z</time>
      </trkpt>
      <trkpt lat="51.345707065582" lon="4.767966952977">
        <ele>19</ele>
        <time>2020-07-19T16:25:28Z</time>
      </trkpt>
      <trkpt lat="51.345536158641" lon="4.768062087542">
        <ele>19.2</ele>
        <time>2020-07-19T16:25:33Z</time>
      </trkpt>
      <trkpt lat="51.345442197542" lon="4.768069631252">
        <ele>19.4</ele>
        <time>2020-07-19T16:25:35Z</time>
      </trkpt>
      <trkpt lat="51.345247234548" lon="4.768029649589">
        <ele>19.4</ele>
        <time>2020-07-19T16:25:39Z</time>
      </trkpt>
      <trkpt lat="51.344863678804" lon="4.768031158331">
        <ele>24.6</ele>
        <time>2020-07-19T16:27:49Z</time>
      </trkpt>
      <trkpt lat="51.344664608679" lon="4.768080946817">
        <ele>24.2</ele>
        <time>2020-07-19T16:27:55Z</time>
      </trkpt>
      <trkpt lat="51.344125317233" lon="4.768336846224">
        <ele>23.8</ele>
        <time>2020-07-19T16:28:06Z</time>
      </trkpt>
      <trkpt lat="51.343558616974" lon="4.768620070625">
        <ele>23.4</ele>
        <time>2020-07-19T16:28:16Z</time>
      </trkpt>
      <trkpt lat="51.343296682599" lon="4.768767089151">
        <ele>23.6</ele>
        <time>2020-07-19T16:28:21Z</time>
      </trkpt>
      <trkpt lat="51.343222502784" lon="4.76868419216">
        <ele>23.6</ele>
        <time>2020-07-19T16:28:23Z</time>
      </trkpt>
      <trkpt lat="51.343179587456" lon="4.768547315733">
        <ele>23.8</ele>
        <time>2020-07-19T16:28:25Z</time>
      </trkpt>
      <trkpt lat="51.3429847921" lon="4.767720776574">
        <ele>24</ele>
        <time>2020-07-19T16:28:34Z</time>
      </trkpt>
      <trkpt lat="51.342976158743" lon="4.767616841014">
        <ele>23.6</ele>
        <time>2020-07-19T16:28:35Z</time>
      </trkpt>
      <trkpt lat="51.343002226452" lon="4.767408969894">
        <ele>22.8</ele>
        <time>2020-07-19T16:28:37Z</time>
      </trkpt>
      <trkpt lat="51.343068443462" lon="4.767225909198">
        <ele>22.6</ele>
        <time>2020-07-19T16:28:39Z</time>
      </trkpt>
      <trkpt lat="51.343410424982" lon="4.7665099273">
        <ele>22.6</ele>
        <time>2020-07-19T16:28:48Z</time>
      </trkpt>
      <trkpt lat="51.343613769876" lon="4.766028973878">
        <ele>22</ele>
        <time>2020-07-19T16:28:54Z</time>
      </trkpt>
      <trkpt lat="51.343705300224" lon="4.765920847368">
        <ele>22</ele>
        <time>2020-07-19T16:28:56Z</time>
      </trkpt>
      <trkpt lat="51.344204526188" lon="4.765543158954">
        <ele>22.2</ele>
        <time>2020-07-19T16:29:05Z</time>
      </trkpt>
      <trkpt lat="51.344356992949" lon="4.765414329151">
        <ele>22.4</ele>
        <time>2020-07-19T16:29:08Z</time>
      </trkpt>
      <trkpt lat="51.344433854972" lon="4.765302682243">
        <ele>22.4</ele>
        <time>2020-07-19T16:29:10Z</time>
      </trkpt>
      <trkpt lat="51.3444767703" lon="4.765167817472">
        <ele>22.6</ele>
        <time>2020-07-19T16:29:12Z</time>
      </trkpt>
      <trkpt lat="51.344456569921" lon="4.765045860827">
        <ele>22.6</ele>
        <time>2020-07-19T16:29:14Z</time>
      </trkpt>
      <trkpt lat="51.344417091172" lon="4.764956258316">
        <ele>22.6</ele>
        <time>2020-07-19T16:29:16Z</time>
      </trkpt>
      <trkpt lat="51.344506777502" lon="4.765141749763">
        <ele>23.2</ele>
        <time>2020-07-19T16:29:23Z</time>
      </trkpt>
      <trkpt lat="51.344717749925" lon="4.764883671062">
        <ele>22.4</ele>
        <time>2020-07-19T16:29:32Z</time>
      </trkpt>
      <trkpt lat="51.345109687569" lon="4.764267517593">
        <ele>21.2</ele>
        <time>2020-07-19T16:29:43Z</time>
      </trkpt>
      <trkpt lat="51.345497434263" lon="4.763603419656">
        <ele>20.8</ele>
        <time>2020-07-19T16:29:54Z</time>
      </trkpt>
      <trkpt lat="51.345893059943" lon="4.762900513522">
        <ele>21.8</ele>
        <time>2020-07-19T16:30:05Z</time>
      </trkpt>
      <trkpt lat="51.346210733953" lon="4.762353594547">
        <ele>22.8</ele>
        <time>2020-07-19T16:30:14Z</time>
      </trkpt>
      <trkpt lat="51.346600157027" lon="4.76167776195">
        <ele>22.8</ele>
        <time>2020-07-19T16:30:25Z</time>
      </trkpt>
      <trkpt lat="51.34700726591" lon="4.761067894906">
        <ele>22.8</ele>
        <time>2020-07-19T16:30:35Z</time>
      </trkpt>
      <trkpt lat="51.347467096944" lon="4.760499685905">
        <ele>23.8</ele>
        <time>2020-07-19T16:30:47Z</time>
      </trkpt>
      <trkpt lat="51.347557034731" lon="4.760125350251">
        <ele>25</ele>
        <time>2020-07-19T16:30:54Z</time>
      </trkpt>
      <trkpt lat="51.347203737646" lon="4.759463431608">
        <ele>29.4</ele>
        <time>2020-07-19T16:31:04Z</time>
      </trkpt>
      <trkpt lat="51.347073063825" lon="4.759206442554">
        <ele>31.2</ele>
        <time>2020-07-19T16:31:08Z</time>
      </trkpt>
      <trkpt lat="51.346777518031" lon="4.758380490128">
        <ele>31.2</ele>
        <time>2020-07-19T16:31:19Z</time>
      </trkpt>
      <trkpt lat="51.34643562033" lon="4.757686887903">
        <ele>28.8</ele>
        <time>2020-07-19T16:31:29Z</time>
      </trkpt>
      <trkpt lat="51.346081485055" lon="4.757007534908">
        <ele>27.2</ele>
        <time>2020-07-19T16:31:39Z</time>
      </trkpt>
      <trkpt lat="51.345736988965" lon="4.756255343202">
        <ele>28.2</ele>
        <time>2020-07-19T16:31:49Z</time>
      </trkpt>
      <trkpt lat="51.345394336893" lon="4.755549084308">
        <ele>28</ele>
        <time>2020-07-19T16:32:01Z</time>
      </trkpt>
      <trkpt lat="51.345301884536" lon="4.755358563721">
        <ele>27.4</ele>
        <time>2020-07-19T16:32:04Z</time>
      </trkpt>
      <trkpt lat="51.345044644025" lon="4.754951957752">
        <ele>26</ele>
        <time>2020-07-19T16:32:11Z</time>
      </trkpt>
      <trkpt lat="51.344972056771" lon="4.754819188456">
        <ele>25.6</ele>
        <time>2020-07-19T16:32:13Z</time>
      </trkpt>
      <trkpt lat="51.344560254024" lon="4.75416590317">
        <ele>25.6</ele>
        <time>2020-07-19T16:32:23Z</time>
      </trkpt>
      <trkpt lat="51.344172926425" lon="4.753562909284">
        <ele>26</ele>
        <time>2020-07-19T16:32:33Z</time>
      </trkpt>
      <trkpt lat="51.343798758409" lon="4.752961591778">
        <ele>26.2</ele>
        <time>2020-07-19T16:32:42Z</time>
      </trkpt>
      <trkpt lat="51.343414699751" lon="4.752250303744">
        <ele>27</ele>
        <time>2020-07-19T16:32:52Z</time>
      </trkpt>
      <trkpt lat="51.343014631664" lon="4.751541949375">
        <ele>28</ele>
        <time>2020-07-19T16:33:02Z</time>
      </trkpt>
      <trkpt lat="51.342650857204" lon="4.750847760417">
        <ele>28.4</ele>
        <time>2020-07-19T16:33:12Z</time>
      </trkpt>
      <trkpt lat="51.3422974763" lon="4.750162791549">
        <ele>27.8</ele>
        <time>2020-07-19T16:33:23Z</time>
      </trkpt>
      <trkpt lat="51.341947280518" lon="4.749482600364">
        <ele>27.4</ele>
        <time>2020-07-19T16:33:33Z</time>
      </trkpt>
      <trkpt lat="51.341581326764" lon="4.748782879352">
        <ele>27</ele>
        <time>2020-07-19T16:33:44Z</time>
      </trkpt>
      <trkpt lat="51.341200453228" lon="4.74809321662">
        <ele>26.8</ele>
        <time>2020-07-19T16:33:54Z</time>
      </trkpt>
      <trkpt lat="51.34078370516" lon="4.747482846662">
        <ele>28.6</ele>
        <time>2020-07-19T16:34:03Z</time>
      </trkpt>
      <trkpt lat="51.340341895211" lon="4.7468543718">
        <ele>27.4</ele>
        <time>2020-07-19T16:34:12Z</time>
      </trkpt>
      <trkpt lat="51.339531030205" lon="4.745675206108">
        <ele>26.4</ele>
        <time>2020-07-19T16:34:29Z</time>
      </trkpt>
      <trkpt lat="51.339101709287" lon="4.745041115373">
        <ele>26.4</ele>
        <time>2020-07-19T16:34:38Z</time>
      </trkpt>
      <trkpt lat="51.338739275931" lon="4.744363606396">
        <ele>26.4</ele>
        <time>2020-07-19T16:34:47Z</time>
      </trkpt>
      <trkpt lat="51.338453369322" lon="4.743633123811">
        <ele>25.6</ele>
        <time>2020-07-19T16:34:56Z</time>
      </trkpt>
      <trkpt lat="51.338236697207" lon="4.742843967926">
        <ele>25</ele>
        <time>2020-07-19T16:35:05Z</time>
      </trkpt>
      <trkpt lat="51.338024718956" lon="4.742005526469">
        <ele>25</ele>
        <time>2020-07-19T16:35:15Z</time>
      </trkpt>
      <trkpt lat="51.337943246888" lon="4.741611074255">
        <ele>25.4</ele>
        <time>2020-07-19T16:35:20Z</time>
      </trkpt>
      <trkpt lat="51.337700674702" lon="4.740830635546">
        <ele>24.2</ele>
        <time>2020-07-19T16:35:29Z</time>
      </trkpt>
      <trkpt lat="51.337464556579" lon="4.740036199064">
        <ele>26.4</ele>
        <time>2020-07-19T16:35:38Z</time>
      </trkpt>
      <trkpt lat="51.33719122282" lon="4.73921259357">
        <ele>29.8</ele>
        <time>2020-07-19T16:35:47Z</time>
      </trkpt>
      <trkpt lat="51.33695904419" lon="4.738407679713">
        <ele>31.2</ele>
        <time>2020-07-19T16:35:56Z</time>
      </trkpt>
      <trkpt lat="51.336724770085" lon="4.737628833565">
        <ele>32</ele>
        <time>2020-07-19T16:36:05Z</time>
      </trkpt>
      <trkpt lat="51.336504242296" lon="4.736823332975">
        <ele>29.8</ele>
        <time>2020-07-19T16:36:14Z</time>
      </trkpt>
      <trkpt lat="51.336259742273" lon="4.735966870433">
        <ele>27.6</ele>
        <time>2020-07-19T16:36:24Z</time>
      </trkpt>
      <trkpt lat="51.336023791788" lon="4.735174948521">
        <ele>25.8</ele>
        <time>2020-07-19T16:36:33Z</time>
      </trkpt>
      <trkpt lat="51.335786584018" lon="4.734390737957">
        <ele>24.4</ele>
        <time>2020-07-19T16:36:42Z</time>
      </trkpt>
      <trkpt lat="51.335529762602" lon="4.733536957623">
        <ele>24.2</ele>
        <time>2020-07-19T16:36:52Z</time>
      </trkpt>
      <trkpt lat="51.335277886507" lon="4.732701952745">
        <ele>26</ele>
        <time>2020-07-19T16:37:01Z</time>
      </trkpt>
      <trkpt lat="51.335041768384" lon="4.731929225384">
        <ele>27</ele>
        <time>2020-07-19T16:37:10Z</time>
      </trkpt>
      <trkpt lat="51.334928528915" lon="4.731711715079">
        <ele>28.2</ele>
        <time>2020-07-19T16:37:13Z</time>
      </trkpt>
      <trkpt lat="51.334513624865" lon="4.731139566585">
        <ele>35.6</ele>
        <time>2020-07-19T16:37:23Z</time>
      </trkpt>
      <trkpt lat="51.334465848035" lon="4.731095226334">
        <ele>36.2</ele>
        <time>2020-07-19T16:37:24Z</time>
      </trkpt>
      <trkpt lat="51.33413015294" lon="4.730926331049">
        <ele>35.2</ele>
        <time>2020-07-19T16:37:31Z</time>
      </trkpt>
      <trkpt lat="51.334019008946" lon="4.730810744648">
        <ele>31.4</ele>
        <time>2020-07-19T16:37:34Z</time>
      </trkpt>
      <trkpt lat="51.33404801032" lon="4.730632796911">
        <ele>27.4</ele>
        <time>2020-07-19T16:37:37Z</time>
      </trkpt>
      <trkpt lat="51.334245320246" lon="4.729758145646">
        <ele>25.6</ele>
        <time>2020-07-19T16:37:47Z</time>
      </trkpt>
      <trkpt lat="51.334410527495" lon="4.728891289548">
        <ele>26.2</ele>
        <time>2020-07-19T16:37:57Z</time>
      </trkpt>
      <trkpt lat="51.334578249314" lon="4.728018063206">
        <ele>28.8</ele>
        <time>2020-07-19T16:38:08Z</time>
      </trkpt>
      <trkpt lat="51.334738762699" lon="4.727145842692">
        <ele>28.4</ele>
        <time>2020-07-19T16:38:18Z</time>
      </trkpt>
      <trkpt lat="51.334877566963" lon="4.726668912582">
        <ele>28</ele>
        <time>2020-07-19T16:38:25Z</time>
      </trkpt>
      <trkpt lat="51.335078900201" lon="4.725840194129">
        <ele>28.4</ele>
        <time>2020-07-19T16:38:39Z</time>
      </trkpt>
      <trkpt lat="51.335188954548" lon="4.725209539973">
        <ele>28.4</ele>
        <time>2020-07-19T16:38:48Z</time>
      </trkpt>
      <trkpt lat="51.335189206005" lon="4.724969566176">
        <ele>28.4</ele>
        <time>2020-07-19T16:38:51Z</time>
      </trkpt>
      <trkpt lat="51.335343265327" lon="4.724103129173">
        <ele>27.8</ele>
        <time>2020-07-19T16:39:01Z</time>
      </trkpt>
      <trkpt lat="51.335514088449" lon="4.723233255591">
        <ele>28.2</ele>
        <time>2020-07-19T16:39:11Z</time>
      </trkpt>
      <trkpt lat="51.335693964023" lon="4.722410823563">
        <ele>26.8</ele>
        <time>2020-07-19T16:39:21Z</time>
      </trkpt>
      <trkpt lat="51.33586520624" lon="4.721538100135">
        <ele>25</ele>
        <time>2020-07-19T16:39:32Z</time>
      </trkpt>
      <trkpt lat="51.336043992167" lon="4.720649115821">
        <ele>25.6</ele>
        <time>2020-07-19T16:39:43Z</time>
      </trkpt>
      <trkpt lat="51.336219928248" lon="4.71980262774">
        <ele>25.4</ele>
        <time>2020-07-19T16:39:54Z</time>
      </trkpt>
      <trkpt lat="51.336290084751" lon="4.719434410873">
        <ele>25.2</ele>
        <time>2020-07-19T16:39:58Z</time>
      </trkpt>
      <trkpt lat="51.336323528532" lon="4.71926702433">
        <ele>23.4</ele>
        <time>2020-07-19T16:40:00Z</time>
      </trkpt>
      <trkpt lat="51.336432912327" lon="4.718701078442">
        <ele>24</ele>
        <time>2020-07-19T16:40:07Z</time>
      </trkpt>
      <trkpt lat="51.336484544831" lon="4.718402179888">
        <ele>24.2</ele>
        <time>2020-07-19T16:40:11Z</time>
      </trkpt>
      <trkpt lat="51.336661151464" lon="4.717514285221">
        <ele>25.2</ele>
        <time>2020-07-19T16:40:24Z</time>
      </trkpt>
      <trkpt lat="51.336831471672" lon="4.716640388327">
        <ele>25</ele>
        <time>2020-07-19T16:40:34Z</time>
      </trkpt>
      <trkpt lat="51.336997768568" lon="4.715757271343">
        <ele>25.8</ele>
        <time>2020-07-19T16:40:43Z</time>
      </trkpt>
      <trkpt lat="51.337187199508" lon="4.71487826149">
        <ele>24.8</ele>
        <time>2020-07-19T16:40:53Z</time>
      </trkpt>
      <trkpt lat="51.337369422014" lon="4.714055913281">
        <ele>23.8</ele>
        <time>2020-07-19T16:41:03Z</time>
      </trkpt>
      <trkpt lat="51.337548459398" lon="4.713221914231">
        <ele>22.4</ele>
        <time>2020-07-19T16:41:13Z</time>
      </trkpt>
      <trkpt lat="51.33773017899" lon="4.712393279597">
        <ele>21</ele>
        <time>2020-07-19T16:41:23Z</time>
      </trkpt>
      <trkpt lat="51.337884908864" lon="4.711511336079">
        <ele>22</ele>
        <time>2020-07-19T16:41:33Z</time>
      </trkpt>
      <trkpt lat="51.338049110285" lon="4.7106194181">
        <ele>22.8</ele>
        <time>2020-07-19T16:41:43Z</time>
      </trkpt>
      <trkpt lat="51.33823057842" lon="4.70974183317">
        <ele>23</ele>
        <time>2020-07-19T16:41:53Z</time>
      </trkpt>
      <trkpt lat="51.338402072094" lon="4.708871959588">
        <ele>23.4</ele>
        <time>2020-07-19T16:42:03Z</time>
      </trkpt>
      <trkpt lat="51.33854489967" lon="4.707991608631">
        <ele>24</ele>
        <time>2020-07-19T16:42:14Z</time>
      </trkpt>
      <trkpt lat="51.33871337586" lon="4.7070990201">
        <ele>25.2</ele>
        <time>2020-07-19T16:42:24Z</time>
      </trkpt>
      <trkpt lat="51.338879002204" lon="4.706204336094">
        <ele>26.4</ele>
        <time>2020-07-19T16:42:35Z</time>
      </trkpt>
      <trkpt lat="51.339049154774" lon="4.70532792463">
        <ele>26</ele>
        <time>2020-07-19T16:42:45Z</time>
      </trkpt>
      <trkpt lat="51.339210506349" lon="4.704493757942">
        <ele>26.2</ele>
        <time>2020-07-19T16:42:55Z</time>
      </trkpt>
      <trkpt lat="51.339396919805" lon="4.703614831908">
        <ele>25.8</ele>
        <time>2020-07-19T16:43:05Z</time>
      </trkpt>
      <trkpt lat="51.339566066547" lon="4.702748478724">
        <ele>26.4</ele>
        <time>2020-07-19T16:43:15Z</time>
      </trkpt>
      <trkpt lat="51.339740577705" lon="4.701845580456">
        <ele>25.8</ele>
        <time>2020-07-19T16:43:25Z</time>
      </trkpt>
      <trkpt lat="51.339903270384" lon="4.701008983017">
        <ele>26</ele>
        <time>2020-07-19T16:43:33Z</time>
      </trkpt>
      <trkpt lat="51.340085073795" lon="4.700167356438">
        <ele>25.8</ele>
        <time>2020-07-19T16:43:42Z</time>
      </trkpt>
      <trkpt lat="51.340266290473" lon="4.699326316592">
        <ele>25.4</ele>
        <time>2020-07-19T16:43:51Z</time>
      </trkpt>
      <trkpt lat="51.340456559603" lon="4.698455185725">
        <ele>23.8</ele>
        <time>2020-07-19T16:44:01Z</time>
      </trkpt>
      <trkpt lat="51.340625790164" lon="4.697629652394">
        <ele>21.4</ele>
        <time>2020-07-19T16:44:10Z</time>
      </trkpt>
      <trkpt lat="51.34079041068" lon="4.696791462394">
        <ele>22.8</ele>
        <time>2020-07-19T16:44:20Z</time>
      </trkpt>
      <trkpt lat="51.340974141928" lon="4.695901975166">
        <ele>21.6</ele>
        <time>2020-07-19T16:44:30Z</time>
      </trkpt>
      <trkpt lat="51.3411323922" lon="4.695033610326">
        <ele>21.8</ele>
        <time>2020-07-19T16:44:40Z</time>
      </trkpt>
      <trkpt lat="51.341290726291" lon="4.694172286282">
        <ele>21.8</ele>
        <time>2020-07-19T16:44:49Z</time>
      </trkpt>
      <trkpt lat="51.341447635459" lon="4.693266454349">
        <ele>23</ele>
        <time>2020-07-19T16:44:59Z</time>
      </trkpt>
      <trkpt lat="51.341605466636" lon="4.69241812225">
        <ele>23.6</ele>
        <time>2020-07-19T16:45:08Z</time>
      </trkpt>
      <trkpt lat="51.341758687768" lon="4.691590996358">
        <ele>24.6</ele>
        <time>2020-07-19T16:45:17Z</time>
      </trkpt>
      <trkpt lat="51.341901431525" lon="4.690950367741">
        <ele>24.8</ele>
        <time>2020-07-19T16:45:24Z</time>
      </trkpt>
      <trkpt lat="51.341994973529" lon="4.690703856062">
        <ele>24.6</ele>
        <time>2020-07-19T16:45:27Z</time>
      </trkpt>
      <trkpt lat="51.342189852704" lon="4.689858373809">
        <ele>25.2</ele>
        <time>2020-07-19T16:45:36Z</time>
      </trkpt>
      <trkpt lat="51.342367297527" lon="4.688964192717">
        <ele>24.4</ele>
        <time>2020-07-19T16:45:46Z</time>
      </trkpt>
      <trkpt lat="51.342426892836" lon="4.688585414656">
        <ele>25.4</ele>
        <time>2020-07-19T16:45:52Z</time>
      </trkpt>
      <trkpt lat="51.342598302691" lon="4.687729874123">
        <ele>25.4</ele>
        <time>2020-07-19T16:46:01Z</time>
      </trkpt>
      <trkpt lat="51.342774825505" lon="4.686837034135">
        <ele>24.6</ele>
        <time>2020-07-19T16:46:11Z</time>
      </trkpt>
      <trkpt lat="51.342942798781" lon="4.685919802818">
        <ele>26.4</ele>
        <time>2020-07-19T16:46:21Z</time>
      </trkpt>
      <trkpt lat="51.343125943296" lon="4.685047163209">
        <ele>27.8</ele>
        <time>2020-07-19T16:46:31Z</time>
      </trkpt>
      <trkpt lat="51.343139941069" lon="4.684964182399">
        <ele>28</ele>
        <time>2020-07-19T16:46:32Z</time>
      </trkpt>
      <trkpt lat="51.343305064499" lon="4.684088860582">
        <ele>27</ele>
        <time>2020-07-19T16:46:42Z</time>
      </trkpt>
      <trkpt lat="51.343443868763" lon="4.683203396666">
        <ele>25.4</ele>
        <time>2020-07-19T16:46:53Z</time>
      </trkpt>
      <trkpt lat="51.343607651089" lon="4.682362105363">
        <ele>24.6</ele>
        <time>2020-07-19T16:47:02Z</time>
      </trkpt>
      <trkpt lat="51.343760453126" lon="4.681513437988">
        <ele>27.4</ele>
        <time>2020-07-19T16:47:12Z</time>
      </trkpt>
      <trkpt lat="51.343925660375" lon="4.680642474759">
        <ele>28</ele>
        <time>2020-07-19T16:47:22Z</time>
      </trkpt>
      <trkpt lat="51.344168735475" lon="4.679337077653">
        <ele>28</ele>
        <time>2020-07-19T16:47:37Z</time>
      </trkpt>
      <trkpt lat="51.344279208917" lon="4.678440046715">
        <ele>28</ele>
        <time>2020-07-19T16:47:50Z</time>
      </trkpt>
      <trkpt lat="51.344354562198" lon="4.677557265007">
        <ele>27.8</ele>
        <time>2020-07-19T16:48:00Z</time>
      </trkpt>
      <trkpt lat="51.344400159734" lon="4.676679847715">
        <ele>26.8</ele>
        <time>2020-07-19T16:48:09Z</time>
      </trkpt>
      <trkpt lat="51.34437786388" lon="4.675753899222">
        <ele>24.8</ele>
        <time>2020-07-19T16:48:18Z</time>
      </trkpt>
      <trkpt lat="51.344273006311" lon="4.674842032321">
        <ele>25.2</ele>
        <time>2020-07-19T16:48:27Z</time>
      </trkpt>
      <trkpt lat="51.344162365231" lon="4.673990431281">
        <ele>22.6</ele>
        <time>2020-07-19T16:48:36Z</time>
      </trkpt>
      <trkpt lat="51.344016101076" lon="4.673090969592">
        <ele>24.6</ele>
        <time>2020-07-19T16:48:46Z</time>
      </trkpt>
      <trkpt lat="51.344001851846" lon="4.673001869995">
        <ele>24.4</ele>
        <time>2020-07-19T16:48:47Z</time>
      </trkpt>
      <trkpt lat="51.343786772292" lon="4.672221598924">
        <ele>23.8</ele>
        <time>2020-07-19T16:48:57Z</time>
      </trkpt>
      <trkpt lat="51.343705467862" lon="4.672004591533">
        <ele>25</ele>
        <time>2020-07-19T16:48:59Z</time>
      </trkpt>
      <trkpt lat="51.343564651942" lon="4.671622041617">
        <ele>24.8</ele>
        <time>2020-07-19T16:49:09Z</time>
      </trkpt>
      <trkpt lat="51.34349105886" lon="4.671492625081">
        <ele>29</ele>
        <time>2020-07-19T16:52:46Z</time>
      </trkpt>
      <trkpt lat="51.343218311834" lon="4.670675808926">
        <ele>28.2</ele>
        <time>2020-07-19T16:53:01Z</time>
      </trkpt>
      <trkpt lat="51.342889992811" lon="4.669890173439">
        <ele>29.8</ele>
        <time>2020-07-19T16:53:10Z</time>
      </trkpt>
      <trkpt lat="51.342579191959" lon="4.669075033664">
        <ele>33</ele>
        <time>2020-07-19T16:53:18Z</time>
      </trkpt>
      <trkpt lat="51.342210891273" lon="4.668291828928">
        <ele>37.6</ele>
        <time>2020-07-19T16:53:26Z</time>
      </trkpt>
      <trkpt lat="51.341868909753" lon="4.66758758169">
        <ele>44</ele>
        <time>2020-07-19T16:53:34Z</time>
      </trkpt>
      <trkpt lat="51.341554672322" lon="4.66681057956">
        <ele>44.8</ele>
        <time>2020-07-19T16:53:42Z</time>
      </trkpt>
      <trkpt lat="51.34126734079" lon="4.666044054805">
        <ele>40.6</ele>
        <time>2020-07-19T16:53:50Z</time>
      </trkpt>
      <trkpt lat="51.34096391601" lon="4.665287169235">
        <ele>39.6</ele>
        <time>2020-07-19T16:53:58Z</time>
      </trkpt>
      <trkpt lat="51.340643392154" lon="4.664545035809">
        <ele>38.6</ele>
        <time>2020-07-19T16:54:06Z</time>
      </trkpt>
      <trkpt lat="51.340366537997" lon="4.663782366728">
        <ele>32.4</ele>
        <time>2020-07-19T16:54:14Z</time>
      </trkpt>
      <trkpt lat="51.340060933923" lon="4.663010980471">
        <ele>32.4</ele>
        <time>2020-07-19T16:54:22Z</time>
      </trkpt>
      <trkpt lat="51.339751809451" lon="4.662222411319">
        <ele>30.6</ele>
        <time>2020-07-19T16:54:30Z</time>
      </trkpt>
      <trkpt lat="51.339443187893" lon="4.661436608194">
        <ele>30</ele>
        <time>2020-07-19T16:54:38Z</time>
      </trkpt>
      <trkpt lat="51.339136326534" lon="4.660629095948">
        <ele>29.6</ele>
        <time>2020-07-19T16:54:46Z</time>
      </trkpt>
      <trkpt lat="51.338847150984" lon="4.659882771572">
        <ele>29.2</ele>
        <time>2020-07-19T16:54:54Z</time>
      </trkpt>
      <trkpt lat="51.338557891615" lon="4.659148517132">
        <ele>30</ele>
        <time>2020-07-19T16:55:02Z</time>
      </trkpt>
      <trkpt lat="51.338238625044" lon="4.658363636016">
        <ele>31</ele>
        <time>2020-07-19T16:55:11Z</time>
      </trkpt>
      <trkpt lat="51.338208953118" lon="4.658288618011">
        <ele>31</ele>
        <time>2020-07-19T16:55:12Z</time>
      </trkpt>
      <trkpt lat="51.337879460629" lon="4.657504323628">
        <ele>29.2</ele>
        <time>2020-07-19T16:55:26Z</time>
      </trkpt>
      <trkpt lat="51.337561032248" lon="4.656691446966">
        <ele>28</ele>
        <time>2020-07-19T16:55:35Z</time>
      </trkpt>
      <trkpt lat="51.337222738764" lon="4.655886197833">
        <ele>30.2</ele>
        <time>2020-07-19T16:55:44Z</time>
      </trkpt>
      <trkpt lat="51.336896263759" lon="4.655101735812">
        <ele>31.2</ele>
        <time>2020-07-19T16:55:53Z</time>
      </trkpt>
      <trkpt lat="51.336557299723" lon="4.654339234369">
        <ele>31.6</ele>
        <time>2020-07-19T16:56:03Z</time>
      </trkpt>
      <trkpt lat="51.336240380084" lon="4.653548905018">
        <ele>31.2</ele>
        <time>2020-07-19T16:56:12Z</time>
      </trkpt>
      <trkpt lat="51.335948103231" lon="4.652742147143">
        <ele>26.4</ele>
        <time>2020-07-19T16:56:21Z</time>
      </trkpt>
      <trkpt lat="51.335665130287" lon="4.65198299846">
        <ele>23.2</ele>
        <time>2020-07-19T16:56:30Z</time>
      </trkpt>
      <trkpt lat="51.335349803209" lon="4.651191244186">
        <ele>24.6</ele>
        <time>2020-07-19T16:56:39Z</time>
      </trkpt>
      <trkpt lat="51.335055179424" lon="4.650453804624">
        <ele>25.8</ele>
        <time>2020-07-19T16:56:47Z</time>
      </trkpt>
      <trkpt lat="51.334731302808" lon="4.649654925735">
        <ele>26</ele>
        <time>2020-07-19T16:56:56Z</time>
      </trkpt>
      <trkpt lat="51.334400469215" lon="4.648855963027">
        <ele>26.4</ele>
        <time>2020-07-19T16:57:05Z</time>
      </trkpt>
      <trkpt lat="51.334085477413" lon="4.648104944787">
        <ele>25.8</ele>
        <time>2020-07-19T16:57:14Z</time>
      </trkpt>
      <trkpt lat="51.333792865284" lon="4.647350657606">
        <ele>24.6</ele>
        <time>2020-07-19T16:57:22Z</time>
      </trkpt>
      <trkpt lat="51.333469491582" lon="4.646560412074">
        <ele>26</ele>
        <time>2020-07-19T16:57:32Z</time>
      </trkpt>
      <trkpt lat="51.333167575544" lon="4.645775447139">
        <ele>27.4</ele>
        <time>2020-07-19T16:57:41Z</time>
      </trkpt>
      <trkpt lat="51.332857696701" lon="4.644997439181">
        <ele>26.2</ele>
        <time>2020-07-19T16:57:49Z</time>
      </trkpt>
      <trkpt lat="51.332536837569" lon="4.644224879458">
        <ele>25.6</ele>
        <time>2020-07-19T16:57:58Z</time>
      </trkpt>
      <trkpt lat="51.332212458039" lon="4.643463300024">
        <ele>25</ele>
        <time>2020-07-19T16:58:07Z</time>
      </trkpt>
      <trkpt lat="51.331886150672" lon="4.642673557406">
        <ele>26.4</ele>
        <time>2020-07-19T16:58:16Z</time>
      </trkpt>
      <trkpt lat="51.331581552426" lon="4.641896722914">
        <ele>29.8</ele>
        <time>2020-07-19T16:58:26Z</time>
      </trkpt>
      <trkpt lat="51.331226495142" lon="4.641100442414">
        <ele>31</ele>
        <time>2020-07-19T16:58:35Z</time>
      </trkpt>
      <trkpt lat="51.330904127268" lon="4.640308520502">
        <ele>31.8</ele>
        <time>2020-07-19T16:58:44Z</time>
      </trkpt>
      <trkpt lat="51.330568515992" lon="4.639503522826">
        <ele>33</ele>
        <time>2020-07-19T16:58:53Z</time>
      </trkpt>
      <trkpt lat="51.330250087611" lon="4.638729035266">
        <ele>35</ele>
        <time>2020-07-19T16:59:01Z</time>
      </trkpt>
      <trkpt lat="51.329962923717" lon="4.637941052847">
        <ele>31.6</ele>
        <time>2020-07-19T16:59:10Z</time>
      </trkpt>
      <trkpt lat="51.329684141723" lon="4.637202020724">
        <ele>28.4</ele>
        <time>2020-07-19T16:59:18Z</time>
      </trkpt>
      <trkpt lat="51.329383902065" lon="4.636453684692">
        <ele>26</ele>
        <time>2020-07-19T16:59:26Z</time>
      </trkpt>
      <trkpt lat="51.329153902729" lon="4.635894192867">
        <ele>25.8</ele>
        <time>2020-07-19T16:59:33Z</time>
      </trkpt>
      <trkpt lat="51.328835222891" lon="4.635043513836">
        <ele>27.2</ele>
        <time>2020-07-19T17:00:37Z</time>
      </trkpt>
      <trkpt lat="51.32851260356" lon="4.634273636321">
        <ele>27.2</ele>
        <time>2020-07-19T17:00:48Z</time>
      </trkpt>
      <trkpt lat="51.328195851559" lon="4.633499735494">
        <ele>23.2</ele>
        <time>2020-07-19T17:00:57Z</time>
      </trkpt>
      <trkpt lat="51.327883877241" lon="4.632706221021">
        <ele>22.6</ele>
        <time>2020-07-19T17:01:05Z</time>
      </trkpt>
      <trkpt lat="51.327572824932" lon="4.631934667126">
        <ele>20.6</ele>
        <time>2020-07-19T17:01:13Z</time>
      </trkpt>
      <trkpt lat="51.327244589728" lon="4.631119694989">
        <ele>22</ele>
        <time>2020-07-19T17:01:22Z</time>
      </trkpt>
      <trkpt lat="51.326936051989" lon="4.630400025055">
        <ele>24.2</ele>
        <time>2020-07-19T17:01:30Z</time>
      </trkpt>
      <trkpt lat="51.326616953056" lon="4.629617155595">
        <ele>23</ele>
        <time>2020-07-19T17:01:39Z</time>
      </trkpt>
      <trkpt lat="51.326328448058" lon="4.628876195635">
        <ele>25.6</ele>
        <time>2020-07-19T17:01:47Z</time>
      </trkpt>
      <trkpt lat="51.326035835929" lon="4.628096092202">
        <ele>24.4</ele>
        <time>2020-07-19T17:01:55Z</time>
      </trkpt>
      <trkpt lat="51.325718581014" lon="4.627287909404">
        <ele>25</ele>
        <time>2020-07-19T17:02:04Z</time>
      </trkpt>
      <trkpt lat="51.325409288904" lon="4.626509063256">
        <ele>25.4</ele>
        <time>2020-07-19T17:02:13Z</time>
      </trkpt>
      <trkpt lat="51.32510452302" lon="4.62573759318">
        <ele>24.4</ele>
        <time>2020-07-19T17:02:22Z</time>
      </trkpt>
      <trkpt lat="51.324773521789" lon="4.62497148752">
        <ele>22.4</ele>
        <time>2020-07-19T17:02:31Z</time>
      </trkpt>
      <trkpt lat="51.32445576396" lon="4.624219128176">
        <ele>25.2</ele>
        <time>2020-07-19T17:02:39Z</time>
      </trkpt>
      <trkpt lat="51.324156949225" lon="4.623456626733">
        <ele>23.6</ele>
        <time>2020-07-19T17:02:48Z</time>
      </trkpt>
      <trkpt lat="51.323839526672" lon="4.622706614321">
        <ele>23.4</ele>
        <time>2020-07-19T17:02:56Z</time>
      </trkpt>
      <trkpt lat="51.323556721366" lon="4.621961379592">
        <ele>20.6</ele>
        <time>2020-07-19T17:03:06Z</time>
      </trkpt>
      <trkpt lat="51.323279196657" lon="4.621181611435">
        <ele>21.6</ele>
        <time>2020-07-19T17:03:14Z</time>
      </trkpt>
      <trkpt lat="51.322947441055" lon="4.620419612906">
        <ele>24.4</ele>
        <time>2020-07-19T17:03:22Z</time>
      </trkpt>
      <trkpt lat="51.322607303553" lon="4.619622326578">
        <ele>27.4</ele>
        <time>2020-07-19T17:03:31Z</time>
      </trkpt>
      <trkpt lat="51.322297257072" lon="4.618873236175">
        <ele>30.8</ele>
        <time>2020-07-19T17:03:40Z</time>
      </trkpt>
      <trkpt lat="51.321971704076" lon="4.618183070529">
        <ele>29.4</ele>
        <time>2020-07-19T17:03:50Z</time>
      </trkpt>
      <trkpt lat="51.321668866029" lon="4.617363572166">
        <ele>22</ele>
        <time>2020-07-19T17:03:59Z</time>
      </trkpt>
      <trkpt lat="51.321268881761" lon="4.616390517395">
        <ele>22.4</ele>
        <time>2020-07-19T17:04:10Z</time>
      </trkpt>
      <trkpt lat="51.320949866647" lon="4.615629440875">
        <ele>25.8</ele>
        <time>2020-07-19T17:04:19Z</time>
      </trkpt>
      <trkpt lat="51.320648872618" lon="4.614861323559">
        <ele>28</ele>
        <time>2020-07-19T17:04:28Z</time>
      </trkpt>
      <trkpt lat="51.320353326824" lon="4.614094128252">
        <ele>29.4</ele>
        <time>2020-07-19T17:04:36Z</time>
      </trkpt>
      <trkpt lat="51.320043699438" lon="4.61331226462">
        <ele>29.8</ele>
        <time>2020-07-19T17:04:44Z</time>
      </trkpt>
      <trkpt lat="51.319740190839" lon="4.61253023335">
        <ele>28.8</ele>
        <time>2020-07-19T17:04:53Z</time>
      </trkpt>
      <trkpt lat="51.319428384159" lon="4.611726912054">
        <ele>28</ele>
        <time>2020-07-19T17:05:02Z</time>
      </trkpt>
      <trkpt lat="51.319102998801" lon="4.610946976259">
        <ele>28.6</ele>
        <time>2020-07-19T17:05:11Z</time>
      </trkpt>
      <trkpt lat="51.31880552517" lon="4.610174835631">
        <ele>29.4</ele>
        <time>2020-07-19T17:05:21Z</time>
      </trkpt>
      <trkpt lat="51.318477457604" lon="4.609375118552">
        <ele>28.6</ele>
        <time>2020-07-19T17:05:31Z</time>
      </trkpt>
      <trkpt lat="51.318166237657" lon="4.608623178303">
        <ele>26.6</ele>
        <time>2020-07-19T17:05:40Z</time>
      </trkpt>
      <trkpt lat="51.317852167864" lon="4.607842907232">
        <ele>26.6</ele>
        <time>2020-07-19T17:05:49Z</time>
      </trkpt>
      <trkpt lat="51.317551006197" lon="4.607077053029">
        <ele>26</ele>
        <time>2020-07-19T17:05:58Z</time>
      </trkpt>
      <trkpt lat="51.31725990281" lon="4.606300386175">
        <ele>25</ele>
        <time>2020-07-19T17:06:07Z</time>
      </trkpt>
      <trkpt lat="51.316934014538" lon="4.605498070707">
        <ele>24.2</ele>
        <time>2020-07-19T17:06:17Z</time>
      </trkpt>
      <trkpt lat="51.316599157633" lon="4.604725343346">
        <ele>23.4</ele>
        <time>2020-07-19T17:06:26Z</time>
      </trkpt>
      <trkpt lat="51.316304030934" lon="4.603978348418">
        <ele>25.2</ele>
        <time>2020-07-19T17:06:35Z</time>
      </trkpt>
      <trkpt lat="51.315990380236" lon="4.603248536385">
        <ele>27.4</ele>
        <time>2020-07-19T17:06:44Z</time>
      </trkpt>
      <trkpt lat="51.315684021791" lon="4.602441275596">
        <ele>24.8</ele>
        <time>2020-07-19T17:06:56Z</time>
      </trkpt>
      <trkpt lat="51.315350673628" lon="4.601666368941">
        <ele>26</ele>
        <time>2020-07-19T17:07:05Z</time>
      </trkpt>
      <trkpt lat="51.315042471165" lon="4.60088945063">
        <ele>29.2</ele>
        <time>2020-07-19T17:07:14Z</time>
      </trkpt>
      <trkpt lat="51.314707865717" lon="4.60012334497">
        <ele>27.8</ele>
        <time>2020-07-19T17:07:23Z</time>
      </trkpt>
      <trkpt lat="51.3144192769" lon="4.599387917064">
        <ele>25.2</ele>
        <time>2020-07-19T17:07:32Z</time>
      </trkpt>
      <trkpt lat="51.314114343378" lon="4.598623571603">
        <ele>21.6</ele>
        <time>2020-07-19T17:07:41Z</time>
      </trkpt>
      <trkpt lat="51.313799686852" lon="4.597825195628">
        <ele>23.2</ele>
        <time>2020-07-19T17:07:50Z</time>
      </trkpt>
      <trkpt lat="51.313485197964" lon="4.597099574545">
        <ele>26.6</ele>
        <time>2020-07-19T17:07:59Z</time>
      </trkpt>
      <trkpt lat="51.313171044352" lon="4.596357776395">
        <ele>27.8</ele>
        <time>2020-07-19T17:08:08Z</time>
      </trkpt>
      <trkpt lat="51.312875414739" lon="4.595602399567">
        <ele>28.4</ele>
        <time>2020-07-19T17:08:17Z</time>
      </trkpt>
      <trkpt lat="51.312531002468" lon="4.594840401038">
        <ele>30.6</ele>
        <time>2020-07-19T17:08:27Z</time>
      </trkpt>
      <trkpt lat="51.312202431988" lon="4.594131208479">
        <ele>32.6</ele>
        <time>2020-07-19T17:08:36Z</time>
      </trkpt>
      <trkpt lat="51.311867323626" lon="4.593313721772">
        <ele>32.8</ele>
        <time>2020-07-19T17:08:45Z</time>
      </trkpt>
      <trkpt lat="51.311648388398" lon="4.592487936984">
        <ele>20.6</ele>
        <time>2020-07-19T17:08:55Z</time>
      </trkpt>
      <trkpt lat="51.31136407435" lon="4.591720322582">
        <ele>17.8</ele>
        <time>2020-07-19T17:09:05Z</time>
      </trkpt>
      <trkpt lat="51.311054027869" lon="4.591002915761">
        <ele>20.6</ele>
        <time>2020-07-19T17:09:13Z</time>
      </trkpt>
      <trkpt lat="51.310959982951" lon="4.590757745186">
        <ele>21.2</ele>
        <time>2020-07-19T17:09:16Z</time>
      </trkpt>
      <trkpt lat="51.310619510173" lon="4.589988622042">
        <ele>20.8</ele>
        <time>2020-07-19T17:09:27Z</time>
      </trkpt>
      <trkpt lat="51.310281468146" lon="4.589195191388">
        <ele>24</ele>
        <time>2020-07-19T17:09:36Z</time>
      </trkpt>
      <trkpt lat="51.309972762769" lon="4.588421793475">
        <ele>25.2</ele>
        <time>2020-07-19T17:09:44Z</time>
      </trkpt>
      <trkpt lat="51.309662381012" lon="4.587634230151">
        <ele>25.2</ele>
        <time>2020-07-19T17:09:52Z</time>
      </trkpt>
      <trkpt lat="51.309336911835" lon="4.586813642141">
        <ele>22.4</ele>
        <time>2020-07-19T17:10:00Z</time>
      </trkpt>
      <trkpt lat="51.309009431002" lon="4.585995820158">
        <ele>23.6</ele>
        <time>2020-07-19T17:10:09Z</time>
      </trkpt>
      <trkpt lat="51.308702150548" lon="4.585238347855">
        <ele>21.8</ele>
        <time>2020-07-19T17:10:18Z</time>
      </trkpt>
      <trkpt lat="51.308400569786" lon="4.584439385147">
        <ele>14</ele>
        <time>2020-07-19T17:10:29Z</time>
      </trkpt>
      <trkpt lat="51.30808591326" lon="4.583711836227">
        <ele>10.2</ele>
        <time>2020-07-19T17:10:38Z</time>
      </trkpt>
      <trkpt lat="51.30778584124" lon="4.582992753026">
        <ele>11.2</ele>
        <time>2020-07-19T17:10:46Z</time>
      </trkpt>
      <trkpt lat="51.307474705112" lon="4.582241231872">
        <ele>11.4</ele>
        <time>2020-07-19T17:10:55Z</time>
      </trkpt>
      <trkpt lat="51.307176980024" lon="4.581464648837">
        <ele>10.6</ele>
        <time>2020-07-19T17:11:05Z</time>
      </trkpt>
      <trkpt lat="51.306866430629" lon="4.580661243722">
        <ele>10.6</ele>
        <time>2020-07-19T17:11:14Z</time>
      </trkpt>
      <trkpt lat="51.306556467967" lon="4.579933359526">
        <ele>14.4</ele>
        <time>2020-07-19T17:11:22Z</time>
      </trkpt>
      <trkpt lat="51.306237536672" lon="4.579236823636">
        <ele>19</ele>
        <time>2020-07-19T17:11:30Z</time>
      </trkpt>
      <trkpt lat="51.305962023619" lon="4.578485973034">
        <ele>22.6</ele>
        <time>2020-07-19T17:11:39Z</time>
      </trkpt>
      <trkpt lat="51.305661281047" lon="4.577694805493">
        <ele>19.6</ele>
        <time>2020-07-19T17:11:48Z</time>
      </trkpt>
      <trkpt lat="51.305381493225" lon="4.57695577337">
        <ele>17.2</ele>
        <time>2020-07-19T17:11:57Z</time>
      </trkpt>
      <trkpt lat="51.305064908862" lon="4.5761653602">
        <ele>17.6</ele>
        <time>2020-07-19T17:12:06Z</time>
      </trkpt>
      <trkpt lat="51.304739523504" lon="4.575374779392">
        <ele>16.2</ele>
        <time>2020-07-19T17:12:15Z</time>
      </trkpt>
      <trkpt lat="51.304420005476" lon="4.574633065061">
        <ele>16.8</ele>
        <time>2020-07-19T17:12:23Z</time>
      </trkpt>
      <trkpt lat="51.304103169656" lon="4.573881040993">
        <ele>18</ele>
        <time>2020-07-19T17:12:31Z</time>
      </trkpt>
      <trkpt lat="51.303803432912" lon="4.573145864544">
        <ele>19</ele>
        <time>2020-07-19T17:12:40Z</time>
      </trkpt>
      <trkpt lat="51.303506629833" lon="4.572399204892">
        <ele>19.6</ele>
        <time>2020-07-19T17:12:49Z</time>
      </trkpt>
      <trkpt lat="51.303194823153" lon="4.571625052608">
        <ele>17.6</ele>
        <time>2020-07-19T17:12:59Z</time>
      </trkpt>
      <trkpt lat="51.302888883803" lon="4.570847212288">
        <ele>18</ele>
        <time>2020-07-19T17:13:09Z</time>
      </trkpt>
      <trkpt lat="51.302574897829" lon="4.570058643136">
        <ele>17.4</ele>
        <time>2020-07-19T17:13:19Z</time>
      </trkpt>
      <trkpt lat="51.302413797711" lon="4.569589927288">
        <ele>17.2</ele>
        <time>2020-07-19T17:13:27Z</time>
      </trkpt>
      <trkpt lat="51.30225630181" lon="4.569161528379">
        <ele>19.4</ele>
        <time>2020-07-19T17:13:46Z</time>
      </trkpt>
      <trkpt lat="51.302095453149" lon="4.568868664793">
        <ele>20.8</ele>
        <time>2020-07-19T17:13:51Z</time>
      </trkpt>
      <trkpt lat="51.301762272624" lon="4.568161986804">
        <ele>22.6</ele>
        <time>2020-07-19T17:14:01Z</time>
      </trkpt>
      <trkpt lat="51.301472510341" lon="4.567406609976">
        <ele>21.2</ele>
        <time>2020-07-19T17:14:10Z</time>
      </trkpt>
      <trkpt lat="51.301168079733" lon="4.566630865131">
        <ele>20.2</ele>
        <time>2020-07-19T17:14:19Z</time>
      </trkpt>
      <trkpt lat="51.300842526737" lon="4.565847828033">
        <ele>19.2</ele>
        <time>2020-07-19T17:14:28Z</time>
      </trkpt>
      <trkpt lat="51.300538599043" lon="4.565114998516">
        <ele>19</ele>
        <time>2020-07-19T17:14:37Z</time>
      </trkpt>
      <trkpt lat="51.300229977485" lon="4.564356520385">
        <ele>17.6</ele>
        <time>2020-07-19T17:14:46Z</time>
      </trkpt>
      <trkpt lat="51.29989176782" lon="4.563573567106">
        <ele>18.6</ele>
        <time>2020-07-19T17:14:55Z</time>
      </trkpt>
      <trkpt lat="51.299585493194" lon="4.562798073718">
        <ele>18.2</ele>
        <time>2020-07-19T17:15:04Z</time>
      </trkpt>
      <trkpt lat="51.299268322098" lon="4.561994752422">
        <ele>17.8</ele>
        <time>2020-07-19T17:15:14Z</time>
      </trkpt>
      <trkpt lat="51.298956180142" lon="4.561225294002">
        <ele>18</ele>
        <time>2020-07-19T17:15:23Z</time>
      </trkpt>
      <trkpt lat="51.298668764791" lon="4.560493302675">
        <ele>17.8</ele>
        <time>2020-07-19T17:15:32Z</time>
      </trkpt>
      <trkpt lat="51.298345055813" lon="4.559694591424">
        <ele>16.6</ele>
        <time>2020-07-19T17:15:43Z</time>
      </trkpt>
      <trkpt lat="51.298106087844" lon="4.559092854823">
        <ele>16.2</ele>
        <time>2020-07-19T17:15:51Z</time>
      </trkpt>
      <trkpt lat="51.297881201467" lon="4.558557838146">
        <ele>15.6</ele>
        <time>2020-07-19T17:16:01Z</time>
      </trkpt>
      <trkpt lat="51.297578698696" lon="4.557816123815">
        <ele>16.4</ele>
        <time>2020-07-19T17:16:11Z</time>
      </trkpt>
      <trkpt lat="51.297257671926" lon="4.557024285722">
        <ele>16</ele>
        <time>2020-07-19T17:16:19Z</time>
      </trkpt>
      <trkpt lat="51.296928430894" lon="4.556223227539">
        <ele>17.4</ele>
        <time>2020-07-19T17:16:28Z</time>
      </trkpt>
      <trkpt lat="51.296539594553" lon="4.555225781439">
        <ele>16.8</ele>
        <time>2020-07-19T17:16:40Z</time>
      </trkpt>
      <trkpt lat="51.296229883348" lon="4.554442576703">
        <ele>16.6</ele>
        <time>2020-07-19T17:16:49Z</time>
      </trkpt>
      <trkpt lat="51.295930984794" lon="4.553688624798">
        <ele>16.2</ele>
        <time>2020-07-19T17:16:58Z</time>
      </trkpt>
      <trkpt lat="51.295607946368" lon="4.55290223494">
        <ele>16</ele>
        <time>2020-07-19T17:17:07Z</time>
      </trkpt>
      <trkpt lat="51.295311646203" lon="4.552170327432">
        <ele>16.4</ele>
        <time>2020-07-19T17:17:16Z</time>
      </trkpt>
      <trkpt lat="51.294981483162" lon="4.551384356669">
        <ele>16.6</ele>
        <time>2020-07-19T17:17:26Z</time>
      </trkpt>
      <trkpt lat="51.294842008346" lon="4.551022426227">
        <ele>16</ele>
        <time>2020-07-19T17:17:31Z</time>
      </trkpt>
      <trkpt lat="51.294776797164" lon="4.550879263375">
        <ele>16</ele>
        <time>2020-07-19T17:17:33Z</time>
      </trkpt>
      <trkpt lat="51.294659199107" lon="4.55057122855">
        <ele>16</ele>
        <time>2020-07-19T17:17:37Z</time>
      </trkpt>
      <trkpt lat="51.294356863974" lon="4.549811493134">
        <ele>15.8</ele>
        <time>2020-07-19T17:17:47Z</time>
      </trkpt>
      <trkpt lat="51.294066850234" lon="4.549071036088">
        <ele>16</ele>
        <time>2020-07-19T17:17:56Z</time>
      </trkpt>
      <trkpt lat="51.293777087951" lon="4.548342984254">
        <ele>15.8</ele>
        <time>2020-07-19T17:18:05Z</time>
      </trkpt>
      <trkpt lat="51.293645492121" lon="4.548057664378">
        <ele>15.4</ele>
        <time>2020-07-19T17:18:08Z</time>
      </trkpt>
      <trkpt lat="51.293252381011" lon="4.547379484849">
        <ele>14.8</ele>
        <time>2020-07-19T17:18:16Z</time>
      </trkpt>
      <trkpt lat="51.292817276582" lon="4.54676416957">
        <ele>13.6</ele>
        <time>2020-07-19T17:18:24Z</time>
      </trkpt>
      <trkpt lat="51.29236733619" lon="4.546193697456">
        <ele>12.4</ele>
        <time>2020-07-19T17:18:32Z</time>
      </trkpt>
      <trkpt lat="51.291900631998" lon="4.54562423117">
        <ele>12.6</ele>
        <time>2020-07-19T17:18:42Z</time>
      </trkpt>
      <trkpt lat="51.291471143442" lon="4.545087873389">
        <ele>12.8</ele>
        <time>2020-07-19T17:18:52Z</time>
      </trkpt>
      <trkpt lat="51.291036458108" lon="4.544573643824">
        <ele>14.8</ele>
        <time>2020-07-19T17:19:02Z</time>
      </trkpt>
      <trkpt lat="51.290618368936" lon="4.544012140343">
        <ele>14</ele>
        <time>2020-07-19T17:19:11Z</time>
      </trkpt>
      <trkpt lat="51.290180247023" lon="4.543422725135">
        <ele>14.6</ele>
        <time>2020-07-19T17:19:21Z</time>
      </trkpt>
      <trkpt lat="51.289740113454" lon="4.54286658607">
        <ele>14.2</ele>
        <time>2020-07-19T17:19:31Z</time>
      </trkpt>
      <trkpt lat="51.289301656265" lon="4.542321511113">
        <ele>13.8</ele>
        <time>2020-07-19T17:19:41Z</time>
      </trkpt>
      <trkpt lat="51.288830258209" lon="4.541720696521">
        <ele>13.4</ele>
        <time>2020-07-19T17:19:50Z</time>
      </trkpt>
      <trkpt lat="51.288392555391" lon="4.54115919304">
        <ele>11.6</ele>
        <time>2020-07-19T17:19:58Z</time>
      </trkpt>
      <trkpt lat="51.287944375198" lon="4.540578578827">
        <ele>11.8</ele>
        <time>2020-07-19T17:20:07Z</time>
      </trkpt>
      <trkpt lat="51.287527208035" lon="4.540020511925">
        <ele>10.8</ele>
        <time>2020-07-19T17:20:15Z</time>
      </trkpt>
      <trkpt lat="51.287062850775" lon="4.539446687051">
        <ele>9.2</ele>
        <time>2020-07-19T17:20:23Z</time>
      </trkpt>
      <trkpt lat="51.286633948952" lon="4.538893984565">
        <ele>8.6</ele>
        <time>2020-07-19T17:20:30Z</time>
      </trkpt>
      <trkpt lat="51.286195156487" lon="4.538340527708">
        <ele>9.2</ele>
        <time>2020-07-19T17:20:38Z</time>
      </trkpt>
      <trkpt lat="51.285726105363" lon="4.537761003142">
        <ele>10</ele>
        <time>2020-07-19T17:20:47Z</time>
      </trkpt>
      <trkpt lat="51.285292761133" lon="4.53721886185">
        <ele>9</ele>
        <time>2020-07-19T17:20:55Z</time>
      </trkpt>
      <trkpt lat="51.284838881248" lon="4.536636235981">
        <ele>8</ele>
        <time>2020-07-19T17:21:04Z</time>
      </trkpt>
      <trkpt lat="51.284414254194" lon="4.536076492699">
        <ele>10</ele>
        <time>2020-07-19T17:21:13Z</time>
      </trkpt>
      <trkpt lat="51.283984178905" lon="4.535511804096">
        <ele>10.2</ele>
        <time>2020-07-19T17:21:22Z</time>
      </trkpt>
      <trkpt lat="51.283515043962" lon="4.534963208741">
        <ele>10</ele>
        <time>2020-07-19T17:21:32Z</time>
      </trkpt>
      <trkpt lat="51.283059990611" lon="4.534382175433">
        <ele>9.6</ele>
        <time>2020-07-19T17:21:41Z</time>
      </trkpt>
      <trkpt lat="51.282628909494" lon="4.533823437979">
        <ele>9.8</ele>
        <time>2020-07-19T17:21:50Z</time>
      </trkpt>
      <trkpt lat="51.282173688505" lon="4.533233938952">
        <ele>9.2</ele>
        <time>2020-07-19T17:21:59Z</time>
      </trkpt>
      <trkpt lat="51.281707654865" lon="4.532649217608">
        <ele>8.8</ele>
        <time>2020-07-19T17:22:08Z</time>
      </trkpt>
      <trkpt lat="51.281287470218" lon="4.532102214814">
        <ele>9</ele>
        <time>2020-07-19T17:22:17Z</time>
      </trkpt>
      <trkpt lat="51.280848677753" lon="4.531538615858">
        <ele>7</ele>
        <time>2020-07-19T17:22:26Z</time>
      </trkpt>
      <trkpt lat="51.280377112059" lon="4.530945177338">
        <ele>6.8</ele>
        <time>2020-07-19T17:22:35Z</time>
      </trkpt>
      <trkpt lat="51.279905294908" lon="4.530357689967">
        <ele>7</ele>
        <time>2020-07-19T17:22:44Z</time>
      </trkpt>
      <trkpt lat="51.279479829664" lon="4.529814961942">
        <ele>7.6</ele>
        <time>2020-07-19T17:22:54Z</time>
      </trkpt>
      <trkpt lat="51.279039360819" lon="4.529254045194">
        <ele>7.2</ele>
        <time>2020-07-19T17:23:03Z</time>
      </trkpt>
      <trkpt lat="51.278589588065" lon="4.528659181751">
        <ele>8.6</ele>
        <time>2020-07-19T17:23:13Z</time>
      </trkpt>
      <trkpt lat="51.278150208867" lon="4.528114022975">
        <ele>7.8</ele>
        <time>2020-07-19T17:23:22Z</time>
      </trkpt>
      <trkpt lat="51.277725917089" lon="4.527517566971">
        <ele>8.4</ele>
        <time>2020-07-19T17:23:32Z</time>
      </trkpt>
      <trkpt lat="51.27749868378" lon="4.52718656574">
        <ele>10.2</ele>
        <time>2020-07-19T17:23:49Z</time>
      </trkpt>
      <trkpt lat="51.277376224221" lon="4.527100735084">
        <ele>10.6</ele>
        <time>2020-07-19T17:23:52Z</time>
      </trkpt>
      <trkpt lat="51.276941874163" lon="4.52657636342">
        <ele>10.2</ele>
        <time>2020-07-19T17:24:01Z</time>
      </trkpt>
      <trkpt lat="51.276506015363" lon="4.526004298745">
        <ele>10</ele>
        <time>2020-07-19T17:24:09Z</time>
      </trkpt>
      <trkpt lat="51.276034533488" lon="4.525392084769">
        <ele>8.4</ele>
        <time>2020-07-19T17:24:17Z</time>
      </trkpt>
      <trkpt lat="51.275601775991" lon="4.524820103913">
        <ele>8.2</ele>
        <time>2020-07-19T17:24:25Z</time>
      </trkpt>
      <trkpt lat="51.275171365426" lon="4.524288775272">
        <ele>7.6</ele>
        <time>2020-07-19T17:24:34Z</time>
      </trkpt>
      <trkpt lat="51.274737183006" lon="4.523774797164">
        <ele>6.2</ele>
        <time>2020-07-19T17:24:44Z</time>
      </trkpt>
      <trkpt lat="51.274287242614" lon="4.523172976744">
        <ele>5.2</ele>
        <time>2020-07-19T17:24:54Z</time>
      </trkpt>
      <trkpt lat="51.273851216176" lon="4.52262429757">
        <ele>7.4</ele>
        <time>2020-07-19T17:25:04Z</time>
      </trkpt>
      <trkpt lat="51.273391971875" lon="4.522035720552">
        <ele>6.8</ele>
        <time>2020-07-19T17:25:14Z</time>
      </trkpt>
      <trkpt lat="51.272926273511" lon="4.521461057488">
        <ele>7</ele>
        <time>2020-07-19T17:25:25Z</time>
      </trkpt>
      <trkpt lat="51.272472561264" lon="4.520880107999">
        <ele>8.8</ele>
        <time>2020-07-19T17:25:34Z</time>
      </trkpt>
      <trkpt lat="51.271998397181" lon="4.520317011957">
        <ele>9.2</ele>
        <time>2020-07-19T17:25:43Z</time>
      </trkpt>
      <trkpt lat="51.271568908625" lon="4.519768919516">
        <ele>8.6</ele>
        <time>2020-07-19T17:25:51Z</time>
      </trkpt>
      <trkpt lat="51.271148304883" lon="4.519220575618">
        <ele>8</ele>
        <time>2020-07-19T17:26:00Z</time>
      </trkpt>
      <trkpt lat="51.270688892944" lon="4.518626382727">
        <ele>8</ele>
        <time>2020-07-19T17:26:10Z</time>
      </trkpt>
      <trkpt lat="51.270272228695" lon="4.518078122648">
        <ele>8.2</ele>
        <time>2020-07-19T17:26:18Z</time>
      </trkpt>
      <trkpt lat="51.26979990863" lon="4.517481499006">
        <ele>7.8</ele>
        <time>2020-07-19T17:26:26Z</time>
      </trkpt>
      <trkpt lat="51.269335132275" lon="4.516878840396">
        <ele>7.2</ele>
        <time>2020-07-19T17:26:35Z</time>
      </trkpt>
      <trkpt lat="51.268874798327" lon="4.516272577569">
        <ele>5.6</ele>
        <time>2020-07-19T17:26:44Z</time>
      </trkpt>
      <trkpt lat="51.268406920669" lon="4.515742338575">
        <ele>7.8</ele>
        <time>2020-07-19T17:26:53Z</time>
      </trkpt>
      <trkpt lat="51.267917082433" lon="4.515258116212">
        <ele>8.8</ele>
        <time>2020-07-19T17:27:02Z</time>
      </trkpt>
      <trkpt lat="51.26737921591" lon="4.514835500814">
        <ele>9.8</ele>
        <time>2020-07-19T17:27:12Z</time>
      </trkpt>
      <trkpt lat="51.266872362417" lon="4.514485305032">
        <ele>9.4</ele>
        <time>2020-07-19T17:27:21Z</time>
      </trkpt>
      <trkpt lat="51.266643033633" lon="4.51434800951">
        <ele>9.6</ele>
        <time>2020-07-19T17:27:25Z</time>
      </trkpt>
      <trkpt lat="51.266111537354" lon="4.514063527824">
        <ele>9.2</ele>
        <time>2020-07-19T17:27:34Z</time>
      </trkpt>
      <trkpt lat="51.265542573982" lon="4.513777788853">
        <ele>9</ele>
        <time>2020-07-19T17:27:44Z</time>
      </trkpt>
      <trkpt lat="51.264986267279" lon="4.513476543367">
        <ele>9</ele>
        <time>2020-07-19T17:27:53Z</time>
      </trkpt>
      <trkpt lat="51.264459381045" lon="4.51320304197">
        <ele>9.6</ele>
        <time>2020-07-19T17:28:02Z</time>
      </trkpt>
      <trkpt lat="51.263889244207" lon="4.512913195868">
        <ele>9</ele>
        <time>2020-07-19T17:28:11Z</time>
      </trkpt>
      <trkpt lat="51.263346516182" lon="4.512621254291">
        <ele>7.4</ele>
        <time>2020-07-19T17:28:20Z</time>
      </trkpt>
      <trkpt lat="51.262787024357" lon="4.512361415391">
        <ele>7.2</ele>
        <time>2020-07-19T17:28:29Z</time>
      </trkpt>
      <trkpt lat="51.262233902776" lon="4.512074335316">
        <ele>7.8</ele>
        <time>2020-07-19T17:28:38Z</time>
      </trkpt>
      <trkpt lat="51.261924023933" lon="4.511908206058">
        <ele>7.8</ele>
        <time>2020-07-19T17:28:44Z</time>
      </trkpt>
      <trkpt lat="51.261466707469" lon="4.511659850361">
        <ele>6.4</ele>
        <time>2020-07-19T17:28:55Z</time>
      </trkpt>
      <trkpt lat="51.260923141254" lon="4.511365394214">
        <ele>5.2</ele>
        <time>2020-07-19T17:29:04Z</time>
      </trkpt>
      <trkpt lat="51.260356440995" lon="4.511100945269">
        <ele>5.2</ele>
        <time>2020-07-19T17:29:13Z</time>
      </trkpt>
      <trkpt lat="51.259779095723" lon="4.510811602081">
        <ele>5.6</ele>
        <time>2020-07-19T17:29:22Z</time>
      </trkpt>
      <trkpt lat="51.259254137326" lon="4.510561570004">
        <ele>6.8</ele>
        <time>2020-07-19T17:29:30Z</time>
      </trkpt>
      <trkpt lat="51.258728927472" lon="4.510335091066">
        <ele>8</ele>
        <time>2020-07-19T17:29:39Z</time>
      </trkpt>
      <trkpt lat="51.258675870045" lon="4.510302317837">
        <ele>8.2</ele>
        <time>2020-07-19T17:29:40Z</time>
      </trkpt>
      <trkpt lat="51.258114534202" lon="4.510023032929">
        <ele>9</ele>
        <time>2020-07-19T17:29:49Z</time>
      </trkpt>
      <trkpt lat="51.257589911081" lon="4.509774425775">
        <ele>9.4</ele>
        <time>2020-07-19T17:29:57Z</time>
      </trkpt>
      <trkpt lat="51.257027317953" lon="4.509517855816">
        <ele>10</ele>
        <time>2020-07-19T17:30:06Z</time>
      </trkpt>
      <trkpt lat="51.256516524967" lon="4.509241923668">
        <ele>7.8</ele>
        <time>2020-07-19T17:30:14Z</time>
      </trkpt>
      <trkpt lat="51.255981759747" lon="4.508947802797">
        <ele>7.4</ele>
        <time>2020-07-19T17:30:22Z</time>
      </trkpt>
      <trkpt lat="51.255429224899" lon="4.508678911445">
        <ele>6.4</ele>
        <time>2020-07-19T17:30:31Z</time>
      </trkpt>
      <trkpt lat="51.254863865744" lon="4.508402979297">
        <ele>7.2</ele>
        <time>2020-07-19T17:30:40Z</time>
      </trkpt>
      <trkpt lat="51.254307139946" lon="4.508127633882">
        <ele>7.8</ele>
        <time>2020-07-19T17:30:48Z</time>
      </trkpt>
      <trkpt lat="51.253752593442" lon="4.507843319834">
        <ele>7.2</ele>
        <time>2020-07-19T17:30:57Z</time>
      </trkpt>
      <trkpt lat="51.253233167099" lon="4.507565040754">
        <ele>7.2</ele>
        <time>2020-07-19T17:31:07Z</time>
      </trkpt>
      <trkpt lat="51.252980871909" lon="4.50742120735">
        <ele>6.8</ele>
        <time>2020-07-19T17:31:12Z</time>
      </trkpt>
      <trkpt lat="51.252464127774" lon="4.507122392615">
        <ele>7.6</ele>
        <time>2020-07-19T17:32:24Z</time>
      </trkpt>
      <trkpt lat="51.251943192689" lon="4.506897673876">
        <ele>5.6</ele>
        <time>2020-07-19T17:32:35Z</time>
      </trkpt>
      <trkpt lat="51.2514041527" lon="4.506636242415">
        <ele>5.8</ele>
        <time>2020-07-19T17:32:43Z</time>
      </trkpt>
      <trkpt lat="51.250869219842" lon="4.506377241705">
        <ele>5.6</ele>
        <time>2020-07-19T17:32:51Z</time>
      </trkpt>
      <trkpt lat="51.250337639744" lon="4.506135759166">
        <ele>4.8</ele>
        <time>2020-07-19T17:32:59Z</time>
      </trkpt>
      <trkpt lat="51.249788709113" lon="4.505828059617">
        <ele>2.8</ele>
        <time>2020-07-19T17:33:08Z</time>
      </trkpt>
      <trkpt lat="51.249250088219" lon="4.505560341731">
        <ele>4.4</ele>
        <time>2020-07-19T17:33:15Z</time>
      </trkpt>
      <trkpt lat="51.248715406818" lon="4.505265298851">
        <ele>4.4</ele>
        <time>2020-07-19T17:33:22Z</time>
      </trkpt>
      <trkpt lat="51.248187514756" lon="4.504990540169">
        <ele>4.4</ele>
        <time>2020-07-19T17:33:29Z</time>
      </trkpt>
      <trkpt lat="51.247607319638" lon="4.504702621904">
        <ele>4</ele>
        <time>2020-07-19T17:33:37Z</time>
      </trkpt>
      <trkpt lat="51.247021173371" lon="4.504417218209">
        <ele>5.4</ele>
        <time>2020-07-19T17:33:45Z</time>
      </trkpt>
      <trkpt lat="51.246447683773" lon="4.504139190586">
        <ele>6.2</ele>
        <time>2020-07-19T17:33:53Z</time>
      </trkpt>
      <trkpt lat="51.245909733431" lon="4.503866527379">
        <ele>5.4</ele>
        <time>2020-07-19T17:34:01Z</time>
      </trkpt>
      <trkpt lat="51.245377650419" lon="4.503612974904">
        <ele>6.6</ele>
        <time>2020-07-19T17:34:09Z</time>
      </trkpt>
      <trkpt lat="51.244854368402" lon="4.503358081325">
        <ele>5.6</ele>
        <time>2020-07-19T17:34:18Z</time>
      </trkpt>
      <trkpt lat="51.244573826209" lon="4.503214834654">
        <ele>4.8</ele>
        <time>2020-07-19T17:34:23Z</time>
      </trkpt>
      <trkpt lat="51.244190354284" lon="4.502659952874">
        <ele>0.4</ele>
        <time>2020-07-19T17:34:42Z</time>
      </trkpt>
      <trkpt lat="51.244330080557" lon="4.501820254132">
        <ele>0</ele>
        <time>2020-07-19T17:34:53Z</time>
      </trkpt>
      <trkpt lat="51.24432312358" lon="4.501674325253">
        <ele>0</ele>
        <time>2020-07-19T17:34:55Z</time>
      </trkpt>
      <trkpt lat="51.244311724196" lon="4.50160668332">
        <ele>0</ele>
        <time>2020-07-19T17:34:56Z</time>
      </trkpt>
      <trkpt lat="51.244377857387" lon="4.500753657357">
        <ele>0</ele>
        <time>2020-07-19T17:35:19Z</time>
      </trkpt>
      <trkpt lat="51.244117180297" lon="4.499957041581">
        <ele>0</ele>
        <time>2020-07-19T17:35:30Z</time>
      </trkpt>
      <trkpt lat="51.243809983662" lon="4.499169478257">
        <ele>0</ele>
        <time>2020-07-19T17:35:39Z</time>
      </trkpt>
      <trkpt lat="51.243752902923" lon="4.499030757812">
        <ele>0</ele>
        <time>2020-07-19T17:35:40Z</time>
      </trkpt>
      <trkpt lat="51.243406562815" lon="4.498281164495">
        <ele>0</ele>
        <time>2020-07-19T17:35:56Z</time>
      </trkpt>
      <trkpt lat="51.243109256822" lon="4.49753643268">
        <ele>0</ele>
        <time>2020-07-19T17:36:04Z</time>
      </trkpt>
      <trkpt lat="51.242764257818" lon="4.496762615672">
        <ele>0</ele>
        <time>2020-07-19T17:36:11Z</time>
      </trkpt>
      <trkpt lat="51.24247240006" lon="4.495942949671">
        <ele>0</ele>
        <time>2020-07-19T17:36:19Z</time>
      </trkpt>
      <trkpt lat="51.242299900558" lon="4.495095791038">
        <ele>0</ele>
        <time>2020-07-19T17:36:26Z</time>
      </trkpt>
      <trkpt lat="51.242137207879" lon="4.494265060929">
        <ele>0</ele>
        <time>2020-07-19T17:36:33Z</time>
      </trkpt>
      <trkpt lat="51.241989770258" lon="4.493394852071">
        <ele>0</ele>
        <time>2020-07-19T17:36:41Z</time>
      </trkpt>
      <trkpt lat="51.241881308472" lon="4.49248801431">
        <ele>0</ele>
        <time>2020-07-19T17:36:50Z</time>
      </trkpt>
      <trkpt lat="51.241804027354" lon="4.492083671454">
        <ele>0</ele>
        <time>2020-07-19T17:36:55Z</time>
      </trkpt>
      <trkpt lat="51.239321392393" lon="4.490365549592">
        <ele>6.4</ele>
        <time>2020-07-19T17:38:10Z</time>
      </trkpt>
      <trkpt lat="51.238734407936" lon="4.490099759543">
        <ele>4.2</ele>
        <time>2020-07-19T17:38:18Z</time>
      </trkpt>
      <trkpt lat="51.238139963588" lon="4.490024322443">
        <ele>2.2</ele>
        <time>2020-07-19T17:38:25Z</time>
      </trkpt>
      <trkpt lat="51.237600336866" lon="4.490182405077">
        <ele>0.4</ele>
        <time>2020-07-19T17:38:31Z</time>
      </trkpt>
      <trkpt lat="51.237041096498" lon="4.490459175415">
        <ele>0</ele>
        <time>2020-07-19T17:38:38Z</time>
      </trkpt>
      <trkpt lat="51.236476407895" lon="4.490420367218">
        <ele>0</ele>
        <time>2020-07-19T17:38:47Z</time>
      </trkpt>
      <trkpt lat="51.236430139807" lon="4.490394886242">
        <ele>0</ele>
        <time>2020-07-19T17:38:48Z</time>
      </trkpt>
      <trkpt lat="51.236352271956" lon="4.490329842698">
        <ele>0</ele>
        <time>2020-07-19T17:38:50Z</time>
      </trkpt>
      <trkpt lat="51.236330730473" lon="4.490188188588">
        <ele>0</ele>
        <time>2020-07-19T17:38:52Z</time>
      </trkpt>
      <trkpt lat="51.236323019125" lon="4.489984173142">
        <ele>0</ele>
        <time>2020-07-19T17:38:55Z</time>
      </trkpt>
      <trkpt lat="51.23638043514" lon="4.489125447487">
        <ele>0</ele>
        <time>2020-07-19T17:39:06Z</time>
      </trkpt>
      <trkpt lat="51.236336430165" lon="4.488482136662">
        <ele>0</ele>
        <time>2020-07-19T17:39:12Z</time>
      </trkpt>
      <trkpt lat="51.236336933079" lon="4.4876105867">
        <ele>0</ele>
        <time>2020-07-19T17:39:20Z</time>
      </trkpt>
      <trkpt lat="51.236306003868" lon="4.486652116435">
        <ele>0</ele>
        <time>2020-07-19T17:39:29Z</time>
      </trkpt>
      <trkpt lat="51.236276415761" lon="4.485770089098">
        <ele>0</ele>
        <time>2020-07-19T17:39:38Z</time>
      </trkpt>
      <trkpt lat="51.236275745209" lon="4.485401620774">
        <ele>0</ele>
        <time>2020-07-19T17:39:42Z</time>
      </trkpt>
      <trkpt lat="51.236304327488" lon="4.485234737145">
        <ele>0</ele>
        <time>2020-07-19T17:39:44Z</time>
      </trkpt>
      <trkpt lat="51.236300304176" lon="4.484306274082">
        <ele>0</ele>
        <time>2020-07-19T17:39:53Z</time>
      </trkpt>
      <trkpt lat="51.23628236691" lon="4.483383929806">
        <ele>0</ele>
        <time>2020-07-19T17:40:02Z</time>
      </trkpt>
      <trkpt lat="51.236267447128" lon="4.482478684606">
        <ele>0</ele>
        <time>2020-07-19T17:40:11Z</time>
      </trkpt>
      <trkpt lat="51.236290832629" lon="4.481533793019">
        <ele>0</ele>
        <time>2020-07-19T17:40:20Z</time>
      </trkpt>
      <trkpt lat="51.236319666365" lon="4.4805865545">
        <ele>0</ele>
        <time>2020-07-19T17:40:29Z</time>
      </trkpt>
      <trkpt lat="51.236358474562" lon="4.479716094185">
        <ele>0</ele>
        <time>2020-07-19T17:40:38Z</time>
      </trkpt>
      <trkpt lat="51.236360067123" lon="4.478852171752">
        <ele>0</ele>
        <time>2020-07-19T17:40:47Z</time>
      </trkpt>
      <trkpt lat="51.236283875652" lon="4.477971904614">
        <ele>0</ele>
        <time>2020-07-19T17:40:56Z</time>
      </trkpt>
      <trkpt lat="51.236244145446" lon="4.47761265638">
        <ele>0</ele>
        <time>2020-07-19T17:41:00Z</time>
      </trkpt>
      <trkpt lat="51.236211288398" lon="4.477451472443">
        <ele>0</ele>
        <time>2020-07-19T17:41:02Z</time>
      </trkpt>
      <trkpt lat="51.236021019268" lon="4.47656156612">
        <ele>0</ele>
        <time>2020-07-19T17:41:12Z</time>
      </trkpt>
      <trkpt lat="51.235848352128" lon="4.475737038617">
        <ele>0</ele>
        <time>2020-07-19T17:41:21Z</time>
      </trkpt>
      <trkpt lat="51.23567635554" lon="4.474883425921">
        <ele>0</ele>
        <time>2020-07-19T17:41:30Z</time>
      </trkpt>
      <trkpt lat="51.235491031731" lon="4.474017827108">
        <ele>0</ele>
        <time>2020-07-19T17:41:39Z</time>
      </trkpt>
      <trkpt lat="51.235308306311" lon="4.473196484727">
        <ele>0</ele>
        <time>2020-07-19T17:41:48Z</time>
      </trkpt>
      <trkpt lat="51.235116025525" lon="4.4723806744">
        <ele>0</ele>
        <time>2020-07-19T17:41:57Z</time>
      </trkpt>
      <trkpt lat="51.234955763597" lon="4.471556482173">
        <ele>0</ele>
        <time>2020-07-19T17:42:07Z</time>
      </trkpt>
      <trkpt lat="51.234822491387" lon="4.470658361588">
        <ele>0</ele>
        <time>2020-07-19T17:42:18Z</time>
      </trkpt>
      <trkpt lat="51.234812852202" lon="4.470577224796">
        <ele>0</ele>
        <time>2020-07-19T17:42:19Z</time>
      </trkpt>
      <trkpt lat="51.234798519153" lon="4.470334987886">
        <ele>0</ele>
        <time>2020-07-19T17:42:22Z</time>
      </trkpt>
      <trkpt lat="51.2346319708" lon="4.469419600587">
        <ele>0</ele>
        <time>2020-07-19T17:42:32Z</time>
      </trkpt>
      <trkpt lat="51.234509762698" lon="4.468553163584">
        <ele>0</ele>
        <time>2020-07-19T17:42:41Z</time>
      </trkpt>
      <trkpt lat="51.234374814108" lon="4.467680356337">
        <ele>0</ele>
        <time>2020-07-19T17:42:51Z</time>
      </trkpt>
      <trkpt lat="51.234239614061" lon="4.466780978467">
        <ele>0</ele>
        <time>2020-07-19T17:43:02Z</time>
      </trkpt>
      <trkpt lat="51.234107682955" lon="4.465894676361">
        <ele>0</ele>
        <time>2020-07-19T17:43:13Z</time>
      </trkpt>
      <trkpt lat="51.234042890868" lon="4.465507264943">
        <ele>0</ele>
        <time>2020-07-19T17:43:18Z</time>
      </trkpt>
      <trkpt lat="51.234012967485" lon="4.465183220689">
        <ele>0</ele>
        <time>2020-07-19T17:43:22Z</time>
      </trkpt>
      <trkpt lat="51.233857902335" lon="4.46430639013">
        <ele>0</ele>
        <time>2020-07-19T17:43:32Z</time>
      </trkpt>
      <trkpt lat="51.233728318161" lon="4.463418160187">
        <ele>0</ele>
        <time>2020-07-19T17:43:41Z</time>
      </trkpt>
      <trkpt lat="51.233458085705" lon="4.461699535411">
        <ele>0</ele>
        <time>2020-07-19T17:44:02Z</time>
      </trkpt>
      <trkpt lat="51.233363956968" lon="4.46088741312">
        <ele>0</ele>
        <time>2020-07-19T17:44:11Z</time>
      </trkpt>
      <trkpt lat="51.233296817949" lon="4.460538306985">
        <ele>0</ele>
        <time>2020-07-19T17:44:15Z</time>
      </trkpt>
      <trkpt lat="51.233164216291" lon="4.459697015682">
        <ele>0</ele>
        <time>2020-07-19T17:44:25Z</time>
      </trkpt>
      <trkpt lat="51.233084336784" lon="4.459297869604">
        <ele>0</ele>
        <time>2020-07-19T17:44:30Z</time>
      </trkpt>
      <trkpt lat="51.232917201698" lon="4.458462194174">
        <ele>0</ele>
        <time>2020-07-19T17:44:41Z</time>
      </trkpt>
      <trkpt lat="51.232810751568" lon="4.457961710925">
        <ele>0</ele>
        <time>2020-07-19T17:44:49Z</time>
      </trkpt>
      <trkpt lat="51.23269910466" lon="4.457731460132">
        <ele>0</ele>
        <time>2020-07-19T17:44:55Z</time>
      </trkpt>
      <trkpt lat="51.232471787532" lon="4.457704554233">
        <ele>0</ele>
        <time>2020-07-19T17:45:01Z</time>
      </trkpt>
      <trkpt lat="51.232350166163" lon="4.457751660511">
        <ele>0</ele>
        <time>2020-07-19T17:45:04Z</time>
      </trkpt>
      <trkpt lat="51.232112204022" lon="4.457883423979">
        <ele>0</ele>
        <time>2020-07-19T17:45:09Z</time>
      </trkpt>
      <trkpt lat="51.231574505137" lon="4.458263543144">
        <ele>0</ele>
        <time>2020-07-19T17:45:19Z</time>
      </trkpt>
      <trkpt lat="51.231047451265" lon="4.458603680646">
        <ele>0</ele>
        <time>2020-07-19T17:45:28Z</time>
      </trkpt>
      <trkpt lat="51.230509249466" lon="4.458784310591">
        <ele>0</ele>
        <time>2020-07-19T17:45:36Z</time>
      </trkpt>
      <trkpt lat="51.229985799811" lon="4.458910039091">
        <ele>0</ele>
        <time>2020-07-19T17:45:44Z</time>
      </trkpt>
      <trkpt lat="51.229424715425" lon="4.459011879176">
        <ele>0</ele>
        <time>2020-07-19T17:45:54Z</time>
      </trkpt>
      <trkpt lat="51.228860026822" lon="4.459186557972">
        <ele>0</ele>
        <time>2020-07-19T17:46:06Z</time>
      </trkpt>
      <trkpt lat="51.228644109078" lon="4.459200471926">
        <ele>0</ele>
        <time>2020-07-19T17:46:11Z</time>
      </trkpt>
      <trkpt lat="51.228577892068" lon="4.459095111443">
        <ele>0</ele>
        <time>2020-07-19T17:46:13Z</time>
      </trkpt>
      <trkpt lat="51.228565319218" lon="4.458931748212">
        <ele>0</ele>
        <time>2020-07-19T17:46:15Z</time>
      </trkpt>
      <trkpt lat="51.228535228197" lon="4.458354654397">
        <ele>0</ele>
        <time>2020-07-19T17:46:22Z</time>
      </trkpt>
      <trkpt lat="51.228566660322" lon="4.458226243689">
        <ele>0</ele>
        <time>2020-07-19T17:46:24Z</time>
      </trkpt>
      <trkpt lat="51.228810154517" lon="4.458116105523">
        <ele>0</ele>
        <time>2020-07-19T17:46:30Z</time>
      </trkpt>
      <trkpt lat="51.229365203935" lon="4.457990460842">
        <ele>1.2</ele>
        <time>2020-07-19T17:46:43Z</time>
      </trkpt>
    </trkseg>
  </trk>
</gpx>